[[{"header":{"parameterUnit":"m.s-1","parameterCategory":1,"la1":30.6,"la2":28.766,"lo1":-90.7593,"lo2":-88.6598,"dx":0.0162,"dy":0.0183,"nx":116,"ny":114,"refTime":"2022-11-13T18:00:00:Z","depth":0,"parameterNumber":2,"parameterNumberName":"U-component_of_WINDS"},"data":[0.0,0.0,0.0,0.0,0.0,0.0,0.0,0.0,0.0,0.0,0.0,0.0,0.0,0.0,0.0,0.0,0.0,0.0,0.0,0.0,0.0,0.0,0.0,0.0,0.0,0.0,0.0,0.0,0.0,0.0,0.0,0.0,0.0,0.0,0.0,0.0,0.0,0.0,0.0,0.0,0.0,0.0,0.0,0.0,0.0,0.0,0.0,0.0,0.0,0.0,0.0,0.0,0.0,0.0,0.0,0.0,0.0,0.0,0.0,0.0,0.0,0.0,0.0,0.0,0.0,0.0,0.0,0.0,0.0,0.0,0.0,0.0,0.0,0.0,0.0,0.0,0.0,0.0,0.0,0.0,0.0,0.0,0.0,0.0,0.0,0.0,0.0,0.0,0.0,0.0,0.0,0.0,0.0,0.0,0.0,0.0,0.0,0.0,0.0,0.0,0.0,0.0,0.0,0.0,0.0,0.0,0.0,0.0,0.0,0.0,0.0,0.0,0.0,0.0,0.0,0.0,0.0,0.0,0.0,0.0,0.0,0.0,0.0,0.0,0.0,0.0,0.0,0.0,0.0,0.0,0.0,0.0,0.0,0.0,0.0,0.0,0.0,0.0,0.0,0.0,0.0,0.0,0.0,0.0,0.0,0.0,0.0,0.0,0.0,0.0,0.0,0.0,0.0,0.0,0.0,0.0,0.0,0.0,0.0,0.0,0.0,0.0,0.0,0.0,0.0,0.0,0.0,0.0,0.0,0.0,0.0,0.0,0.0,0.0,0.0,0.0,0.0,0.0,0.0,0.0,0.0,0.0,0.0,0.0,0.0,0.0,0.0,0.0,0.0,0.0,0.0,0.0,0.0,0.0,0.0,0.0,0.0,0.0,0.0,0.0,0.0,0.0,0.0,0.0,0.0,0.0,0.0,0.0,0.0,0.0,0.0,0.0,0.0,0.0,0.0,0.0,0.0,0.0,0.0,0.0,0.0,0.0,0.0,0.0,0.0,0.0,0.0,0.0,0.0,0.0,0.0,0.0,0.0,0.0,0.0,0.0,0.0,0.0,0.0,0.0,0.0,0.0,0.0,0.0,0.0,0.0,0.0,0.0,0.0,0.0,0.0,0.0,0.0,0.0,0.0,0.0,0.0,0.0,0.0,0.0,0.0,0.0,0.0,0.0,0.0,0.0,0.0,0.0,0.0,0.0,0.0,0.0,0.0,0.0,0.0,0.0,0.0,0.0,0.0,0.0,0.0,0.0,0.0,0.0,0.0,0.0,0.0,0.0,0.0,0.0,0.0,0.0,0.0,0.0,0.0,0.0,0.0,0.0,0.0,0.0,0.0,0.0,0.0,0.0,0.0,0.0,0.0,0.0,0.0,0.0,0.0,0.0,0.0,0.0,0.0,0.0,0.0,0.0,0.0,0.0,0.0,0.0,0.0,0.0,0.0,0.0,0.0,0.0,0.0,0.0,0.0,0.0,0.0,0.0,0.0,0.0,0.0,0.0,0.0,0.0,0.0,0.0,0.0,0.0,0.0,0.0,0.0,0.0,0.0,0.0,0.0,0.0,0.0,0.0,0.0,0.0,0.0,0.0,0.0,0.0,0.0,0.0,0.0,0.0,0.0,0.0,0.0,0.0,0.0,0.0,0.0,0.0,0.0,0.0,0.0,0.0,0.0,0.0,0.0,0.0,0.0,0.0,0.0,0.0,0.0,0.0,0.0,0.0,0.0,0.0,0.0,0.0,0.0,0.0,0.0,0.0,0.0,0.0,0.0,0.0,0.0,0.0,0.0,0.0,0.0,0.0,0.0,0.0,0.0,0.0,0.0,0.0,0.0,0.0,0.0,0.0,0.0,0.0,0.0,0.0,0.0,0.0,0.0,0.0,0.0,0.0,0.0,0.0,0.0,0.0,0.0,0.0,0.0,0.0,0.0,0.0,0.0,0.0,0.0,0.0,0.0,0.0,0.0,0.0,0.0,0.0,0.0,0.0,0.0,0.0,0.0,0.0,0.0,0.0,0.0,0.0,0.0,0.0,0.0,0.0,0.0,0.0,0.0,0.0,0.0,0.0,0.0,0.0,0.0,0.0,0.0,0.0,0.0,0.0,0.0,0.0,0.0,0.0,0.0,0.0,0.0,0.0,0.0,0.0,0.0,0.0,0.0,0.0,0.0,0.0,0.0,0.0,0.0,0.0,0.0,0.0,0.0,0.0,0.0,0.0,0.0,0.0,0.0,0.0,0.0,0.0,0.0,0.0,0.0,0.0,0.0,0.0,0.0,0.0,0.0,0.0,0.0,0.0,0.0,0.0,0.0,0.0,0.0,0.0,0.0,0.0,0.0,0.0,0.0,0.0,0.0,0.0,0.0,0.0,0.0,0.0,0.0,0.0,0.0,0.0,0.0,0.0,0.0,0.0,0.0,0.0,0.0,0.0,0.0,0.0,0.0,0.0,0.0,0.0,0.0,0.0,0.0,0.0,0.0,0.0,0.0,0.0,0.0,0.0,0.0,0.0,0.0,0.0,0.0,0.0,0.0,0.0,0.0,0.0,0.0,0.0,0.0,0.0,0.0,0.0,0.0,0.0,0.0,0.0,0.0,0.0,0.0,0.0,0.0,0.0,0.0,0.0,0.0,0.0,0.0,0.0,0.0,0.0,0.0,0.0,0.0,0.0,0.0,0.0,0.0,0.0,0.0,0.0,0.0,0.0,0.0,0.0,0.0,0.0,0.0,0.0,0.0,0.0,0.0,0.0,0.0,0.0,0.0,0.0,0.0,0.0,0.0,0.0,0.0,0.0,0.0,0.0,0.0,0.0,0.0,0.0,0.0,0.0,0.0,0.0,0.0,0.0,0.0,0.0,0.0,0.0,0.0,0.0,0.0,0.0,0.0,0.0,0.0,0.0,0.0,0.0,0.0,0.0,0.0,0.0,0.0,0.0,0.0,0.0,0.0,0.0,0.0,0.0,0.0,0.0,0.0,0.0,0.0,0.0,0.0,0.0,0.0,0.0,0.0,0.0,0.0,0.0,0.0,0.0,0.0,0.0,0.0,0.0,0.0,0.0,0.0,0.0,0.0,0.0,0.0,0.0,0.0,0.0,0.0,0.0,0.0,0.0,0.0,0.0,0.0,0.0,0.0,0.0,0.0,0.0,0.0,0.0,0.0,0.0,0.0,0.0,0.0,0.0,0.0,0.0,0.0,0.0,0.0,0.0,0.0,0.0,0.0,0.0,0.0,0.0,0.0,0.0,0.0,0.0,0.0,0.0,0.0,0.0,0.0,0.0,0.0,0.0,0.0,0.0,0.0,0.0,0.0,0.0,0.0,0.0,0.0,0.0,0.0,0.0,0.0,0.0,0.0,0.0,0.0,0.0,0.0,0.0,0.0,0.0,0.0,0.0,0.0,0.0,0.0,0.0,0.0,0.0,0.0,0.0,0.0,0.0,0.0,0.0,0.0,0.0,0.0,0.0,0.0,0.0,0.0,0.0,0.0,0.0,0.0,0.0,0.0,0.0,0.0,0.0,0.0,0.0,0.0,0.0,0.0,0.0,0.0,0.0,0.0,0.0,0.0,0.0,0.0,0.0,0.0,0.0,0.0,0.0,0.0,0.0,0.0,0.0,0.0,0.0,0.0,0.0,0.0,0.0,0.0,0.0,0.0,0.0,0.0,0.0,0.0,0.0,0.0,0.0,0.0,0.0,0.0,0.0,0.0,0.0,0.0,0.0,0.0,0.0,0.0,0.0,0.0,0.0,0.0,0.0,0.0,0.0,0.0,0.0,0.0,0.0,0.0,0.0,0.0,0.0,0.0,0.0,0.0,0.0,0.0,0.0,0.0,0.0,0.0,0.0,0.0,0.0,0.0,0.0,0.0,0.0,0.0,0.0,0.0,0.0,0.0,0.0,0.0,0.0,0.0,0.0,0.0,0.0,0.0,0.0,0.0,0.0,0.0,0.0,0.0,0.0,0.0,0.0,0.0,0.0,0.0,0.0,0.0,0.0,0.0,0.0,0.0,0.0,0.0,0.0,0.0,0.0,0.0,0.0,0.0,0.0,0.0,0.0,0.0,0.0,0.0,0.0,0.0,0.0,0.0,0.0,0.0,0.0,0.0,0.0,0.0,0.0,0.0,0.0,0.0,0.0,0.0,0.0,0.0,0.0,0.0,0.0,0.0,0.0,0.0,0.0,0.0,0.0,0.0,0.0,0.0,0.0,0.0,0.0,0.0,0.0,0.0,0.0,0.0,0.0,0.0,0.0,0.0,0.0,0.0,0.0,0.0,0.0,0.0,0.0,0.0,0.0,0.0,0.0,0.0,0.0,0.0,0.0,0.0,0.0,0.0,0.0,0.0,0.0,0.0,0.0,0.0,0.0,0.0,0.0,0.0,0.0,0.0,0.0,0.0,0.0,0.0,0.0,0.0,0.0,0.0,0.0,0.0,0.0,0.0,0.0,0.0,0.0,0.0,0.0,0.0,0.0,0.0,0.0,0.0,0.0,0.0,0.0,0.0,0.0,0.0,0.0,0.0,0.0,0.0,0.0,0.0,0.0,0.0,0.0,0.0,0.0,0.0,0.0,0.0,0.0,0.0,0.0,0.0,0.0,0.0,0.0,0.0,0.0,0.0,0.0,0.0,0.0,0.0,0.0,0.0,0.0,0.0,0.0,0.0,0.0,0.0,0.0,0.0,0.0,0.0,0.0,0.0,0.0,0.0,0.0,0.0,0.0,0.0,0.0,0.0,0.0,0.0,0.0,0.0,0.0,0.0,0.0,0.0,0.0,0.0,0.0,0.0,0.0,0.0,0.0,0.0,0.0,0.0,0.0,0.0,0.0,0.0,0.0,0.0,0.0,0.0,0.0,0.0,0.0,0.0,0.0,0.0,0.0,0.0,0.0,0.0,0.0,0.0,0.0,0.0,0.0,0.0,0.0,0.0,0.0,0.0,0.0,0.0,0.0,0.0,0.0,0.0,0.0,0.0,0.0,0.0,0.0,0.0,0.0,0.0,0.0,0.0,0.0,0.0,0.0,0.0,0.0,0.0,0.0,0.0,0.0,0.0,0.0,0.0,0.0,0.0,0.0,0.0,0.0,0.0,0.0,0.0,0.0,0.0,0.0,0.0,0.0,0.0,0.0,0.0,0.0,0.0,0.0,0.0,0.0,0.0,0.0,0.0,0.0,0.0,0.0,0.0,0.0,0.0,0.0,0.0,0.0,0.0,0.0,0.0,0.0,0.0,0.0,0.0,0.0,0.0,0.0,0.0,0.0,0.0,0.0,0.0,0.0,0.0,0.0,0.0,0.0,0.0,0.0,0.0,0.0,0.0,0.0,0.0,0.0,0.0,0.0,0.0,0.0,0.0,0.0,0.0,0.0,0.0,0.0,0.0,0.0,0.0,0.0,0.0,0.0,0.0,0.0,0.0,0.0,0.0,0.0,0.0,0.0,0.0,0.0,0.0,0.0,0.0,0.0,0.0,0.0,0.0,0.0,0.0,0.0,0.0,0.0,0.0,0.0,0.0,0.0,0.0,0.0,0.0,0.0,0.0,0.0,0.0,0.0,0.0,0.0,0.0,0.0,0.0,0.0,0.0,0.0,0.0,0.0,0.0,0.0,0.0,0.0,0.0,0.0,0.0,0.0,0.0,0.0,0.0,0.0,0.0,0.0,0.0,0.0,0.0,0.0,0.0,0.0,0.0,0.0,0.0,0.0,0.0,0.0,0.0,0.0,0.0,0.0,0.0,0.0,0.0,0.0,0.0,0.0,0.0,0.0,0.0,0.0,0.0,0.0,0.0,0.0,0.0,0.0,0.0,0.0,0.0,0.0,0.0,0.0,0.0,0.0,0.0,0.0,0.0,0.0,0.0,0.0,0.0,0.0,0.0,0.0,0.0,0.0,0.0,0.0,0.0,0.0,0.0,0.0,0.0,0.0,0.0,0.0,0.0,0.0,0.0,0.0,0.0,0.0,0.0,0.0,0.0,0.0,0.0,0.0,0.0,0.0,0.0,0.0,0.0,0.0,0.0,0.0,0.0,0.0,0.0,0.0,0.0,0.0,0.0,0.0,0.0,0.0,0.0,0.0,0.0,0.0,0.0,0.0,0.0,0.0,0.0,0.0,6.7724,0.0,0.0,0.0,0.0,0.0,0.0,0.0,0.0,0.0,0.0,0.0,0.0,0.0,0.0,0.0,0.0,0.0,0.0,0.0,0.0,0.0,0.0,0.0,0.0,5.2454,5.3518,5.4289,5.5097,0.0,0.0,0.0,0.0,0.0,0.0,0.0,5.5574,5.5978,5.6161,5.6161,5.7373,5.8584,5.9722,5.9281,5.8657,5.7886,0.0,0.0,0.0,0.0,0.0,0.0,0.0,0.0,0.0,0.0,0.0,0.0,0.0,0.0,0.0,0.0,0.0,0.0,0.0,0.0,0.0,0.0,0.0,0.0,0.0,0.0,0.0,0.0,0.0,0.0,0.0,0.0,0.0,0.0,0.0,0.0,0.0,0.0,0.0,0.0,0.0,0.0,0.0,0.0,0.0,0.0,0.0,0.0,0.0,0.0,0.0,0.0,0.0,0.0,0.0,0.0,0.0,0.0,0.0,0.0,0.0,0.0,0.0,0.0,0.0,0.0,0.0,0.0,0.0,0.0,0.0,6.8605,0.0,0.0,0.0,0.0,0.0,0.0,0.0,0.0,0.0,0.0,0.0,0.0,0.0,0.0,0.0,0.0,0.0,0.0,0.0,0.0,0.0,5.0986,5.3004,5.3702,5.4583,5.5904,5.6271,5.6418,5.6418,5.6418,0.0,0.0,0.0,0.0,5.6418,5.7079,5.7519,5.7629,5.9281,6.0823,6.2254,6.2915,6.2548,6.1263,6.0786,0.0,0.0,0.0,0.0,0.0,0.0,0.0,0.0,0.0,0.0,0.0,0.0,0.0,0.0,0.0,0.0,0.0,0.0,0.0,0.0,0.0,0.0,0.0,0.0,0.0,0.0,0.0,0.0,0.0,0.0,0.0,0.0,0.0,0.0,0.0,0.0,0.0,0.0,0.0,0.0,0.0,0.0,0.0,0.0,0.0,0.0,0.0,0.0,0.0,0.0,0.0,0.0,0.0,0.0,0.0,0.0,0.0,0.0,0.0,0.0,0.0,0.0,0.0,0.0,0.0,7.312,7.3266,7.3707,7.4221,7.2202,7.1101,7.0734,0.0,0.0,0.0,0.0,0.0,0.0,0.0,0.0,0.0,0.0,0.0,0.0,0.0,0.0,0.0,0.0,0.0,0.0,0.0,0.0,5.2858,5.3188,5.5684,5.7446,5.7666,5.8951,5.9758,5.9758,5.9758,0.0,0.0,0.0,5.9758,5.9758,5.9869,6.0272,6.097,6.2622,6.3906,6.4824,6.4934,6.4861,6.4567,6.2401,6.0933,6.0052,0.0,0.0,0.0,0.0,0.0,0.0,0.0,0.0,0.0,0.0,0.0,0.0,0.0,0.0,0.0,0.0,0.0,0.0,0.0,0.0,0.0,0.0,0.0,0.0,0.0,0.0,0.0,0.0,0.0,0.0,0.0,0.0,0.0,0.0,0.0,0.0,0.0,0.0,0.0,0.0,0.0,6.5249,6.6219,0.0,0.0,0.0,0.0,0.0,0.0,0.0,0.0,0.0,0.0,0.0,0.0,0.0,0.0,7.323,7.4037,7.4441,7.4441,7.5249,7.5616,7.5652,7.635,7.6754,7.6827,7.6497,0.0,7.323,7.323,0.0,0.0,0.0,0.0,0.0,0.0,0.0,0.0,0.0,0.0,0.0,0.0,0.0,0.0,0.0,0.0,0.0,0.0,0.0,0.0,0.0,5.6895,5.8547,5.9905,6.0236,6.0603,6.1043,6.0639,0.0,0.0,6.0419,6.0419,6.0419,6.13,6.2622,6.4347,6.5521,6.6512,6.732,6.7797,6.776,6.7283,6.5705,6.3796,6.1741,6.1374,0.0,0.0,0.0,0.0,0.0,0.0,0.0,0.0,0.0,0.0,0.0,0.0,0.0,0.0,0.0,0.0,0.0,0.0,0.0,0.0,0.0,0.0,0.0,0.0,0.0,0.0,0.0,0.0,0.0,0.0,0.0,0.0,0.0,0.0,0.0,0.0,0.0,0.0,0.0,6.6243,6.71,6.8385,6.8825,6.9192,0.0,0.0,0.0,0.0,0.0,0.0,0.0,0.0,0.0,7.4001,7.5139,7.5726,7.5726,7.657,7.6974,7.7011,7.7781,7.8185,7.8185,7.8552,7.8699,7.8699,7.8699,7.8112,7.7047,7.613,7.5249,7.4441,0.0,0.0,0.0,0.0,0.0,7.2652,0.0,0.0,0.0,0.0,0.0,0.0,0.0,0.0,0.0,0.0,0.0,0.0,5.6895,5.84,5.9942,6.1741,6.1741,6.1924,6.2511,6.1777,6.1447,6.163,6.1447,6.1447,6.1667,6.3246,6.5081,6.71,6.7907,6.8715,6.9522,7.0146,7.011,6.9486,6.8898,6.6806,6.3723,6.3319,6.1998,6.0052,0.0,0.0,0.0,0.0,0.0,0.0,0.0,0.0,0.0,0.0,0.0,0.0,0.0,0.0,0.0,0.0,0.0,0.0,0.0,0.0,0.0,0.0,0.0,0.0,0.0,0.0,0.0,0.0,0.0,0.0,0.0,0.0,0.0,0.0,0.0,0.0,0.0,6.7799,6.877,7.0257,7.0587,7.077,0.0,0.0,0.0,0.0,0.0,0.0,7.4625,7.5983,7.6754,7.6754,7.7524,7.7965,7.7965,7.8809,7.9213,7.9213,8.0241,8.0718,8.0718,8.0938,8.1012,8.1012,8.1012,8.1012,8.0764,7.8809,7.7536,7.6876,7.5983,7.5201,0.0,7.3406,7.3861,7.4994,0.0,0.0,0.0,0.0,0.0,0.0,0.0,0.0,0.0,0.0,0.0,5.6969,5.785,6.0713,6.2622,6.2732,6.4163,6.5081,6.5118,6.4347,6.4237,6.5044,6.431,6.4273,6.5044,6.6623,6.7871,6.8788,6.9596,7.0403,7.1211,7.1248,7.1248,7.1211,7.1138,6.9339,6.6219,6.4677,6.3503,6.2548,6.1741,0.0,0.0,0.0,0.0,0.0,0.0,0.0,0.0,0.0,0.0,0.0,0.0,0.0,0.0,0.0,0.0,0.0,0.0,0.0,0.0,0.0,0.0,0.0,0.0,0.0,0.0,0.0,0.0,0.0,0.0,0.0,0.0,0.0,0.0,0.0,0.0,0.0,0.0,7.1081,7.1908,0.0,0.0,0.0,0.0,7.5799,7.5946,7.6313,7.7084,7.8002,7.8479,7.8479,7.925,7.9653,7.9653,8.0461,8.0901,8.0901,8.248,8.3251,8.3251,8.4022,8.4352,8.4352,8.4352,8.4285,8.3825,8.0874,7.9553,7.9214,7.8446,7.7924,7.7516,7.665,7.6735,7.7326,0.0,0.0,0.0,5.1242,5.0949,5.0875,5.1096,5.205,5.3078,5.3885,5.6088,5.807,5.9391,6.1484,6.3466,6.5044,6.5264,6.5521,6.6035,6.5338,6.5007,6.5301,6.5044,6.5485,6.6806,6.8421,6.9889,7.1211,7.2018,7.2826,7.3634,7.3634,7.3634,7.3597,7.3083,7.2202,7.0954,6.8311,6.6402,6.5118,6.431,6.3503,0.0,0.0,0.0,0.0,0.0,0.0,0.0,0.0,0.0,0.0,0.0,0.0,0.0,0.0,0.0,0.0,0.0,0.0,0.0,0.0,0.0,0.0,0.0,0.0,0.0,0.0,0.0,0.0,0.0,0.0,0.0,0.0,0.0,0.0,0.0,0.0,0.0,7.3487,7.4331,0.0,0.0,7.6497,7.7414,7.7671,7.8662,7.9396,7.969,8.0975,8.1709,8.1709,8.248,8.2884,8.2884,8.3177,8.3324,8.3324,8.3911,8.4168,8.4168,8.4462,8.4541,8.4369,8.4369,8.43,8.3983,8.292,8.1861,8.0807,8.0485,7.9621,7.854,7.8114,7.8445,7.9028,0.0,0.0,0.0,5.205,5.1793,5.172,5.194,5.2894,5.3995,5.506,5.7299,5.9428,6.1043,6.2915,6.4714,6.6366,6.6256,6.6329,6.688,6.6145,6.5962,6.6512,6.7026,6.7944,6.9265,7.0624,7.2092,7.3707,7.4258,7.5065,7.6166,7.6166,7.6166,7.613,7.5579,7.5175,7.4771,7.2349,6.9926,6.765,6.7136,6.6109,6.4787,0.0,0.0,0.0,0.0,0.0,0.0,0.0,0.0,0.0,0.0,0.0,0.0,0.0,0.0,0.0,0.0,0.0,0.0,0.0,0.0,0.0,0.0,0.0,0.0,0.0,0.0,0.0,0.0,0.0,0.0,0.0,0.0,0.0,0.0,0.0,7.4042,7.5519,7.646,7.7047,7.7304,7.8589,7.9507,7.98,8.1048,8.1929,8.2186,8.3251,8.3801,8.3801,8.4248,8.4541,8.4541,8.473,8.4772,8.4808,8.5065,8.5211,8.5211,8.5211,8.5105,8.5036,8.5036,8.4895,8.4681,8.4681,8.3881,8.2609,8.2284,8.152,8.0542,8.0402,8.0658,8.1092,0.0,0.0,5.2968,5.216,5.2674,5.2968,5.2197,5.3408,5.5023,5.6638,5.8951,6.1043,6.2658,6.5044,6.6512,6.6549,6.7247,6.7687,6.7687,6.699,6.7283,6.8898,7.0513,7.1725,7.2569,7.3377,7.4588,7.6166,7.6203,7.7047,7.8626,7.8626,7.8626,7.8626,7.8626,7.8185,7.7341,7.657,7.3927,7.033,7.022,6.8752,6.6623,0.0,0.0,0.0,0.0,0.0,0.0,0.0,0.0,0.0,0.0,0.0,0.0,0.0,0.0,0.0,0.0,0.0,0.0,0.0,0.0,0.0,0.0,0.0,0.0,0.0,0.0,0.0,0.0,0.0,0.0,0.0,0.0,0.0,7.2134,7.436,7.6276,7.7243,7.8185,7.9029,7.98,8.0608,8.1452,8.2223,8.303,8.3838,8.4609,8.4646,8.4682,8.4682,8.4442,8.4373,8.4373,8.4932,8.5225,8.5262,8.6028,8.6429,8.6429,8.6429,8.6429,8.6392,8.6392,8.6247,8.61,8.61,8.5516,8.4642,8.3992,8.3629,8.3483,8.3483,8.3483,8.3483,5.3225,5.3225,5.3151,5.2931,5.3078,5.3335,5.3665,5.462,5.5831,5.7446,5.9758,6.1887,6.3539,6.5375,6.6733,6.732,6.7577,6.7687,6.7687,6.8054,6.8972,7.0587,7.1615,7.2826,7.4221,7.5616,7.6864,7.7892,7.8479,7.8993,7.947,7.947,7.947,7.947,7.947,7.9323,7.9103,7.8883,7.7451,7.5139,7.2789,7.1101,6.9853,0.0,0.0,0.0,0.0,0.0,0.0,0.0,0.0,0.0,0.0,0.0,0.0,0.0,0.0,0.0,0.0,0.0,0.0,0.0,0.0,0.0,0.0,0.0,0.0,0.0,0.0,0.0,0.0,0.0,0.0,0.0,0.0,7.5334,7.5489,7.6199,7.7338,7.8956,8.0223,8.111,8.133,8.244,8.3354,8.371,8.4479,8.5097,8.5453,8.604,8.6265,8.6127,8.6057,8.595,8.5808,8.5955,8.6064,8.6064,8.632,8.6429,8.6429,8.6429,8.632,8.6174,8.6174,8.6136,8.5948,8.5948,8.5803,8.5475,8.4716,8.4063,8.3483,8.3483,8.3483,8.3483,5.3225,5.3225,5.3225,5.3225,5.3225,5.3482,5.4289,5.506,5.6308,5.8253,6.0603,6.2732,6.442,6.6035,6.7173,6.765,6.7687,6.7834,6.8164,6.9596,7.1138,7.2753,7.3927,7.5139,7.6423,7.7708,7.8772,7.9617,8.0057,8.0461,8.0791,8.0791,8.0791,8.0791,8.0791,8.0791,8.0755,8.0461,7.9727,7.8626,7.6093,7.3964,7.2165,7.0881,7.022,6.9743,6.8458,6.8017,6.7797,6.6549,0.0,0.0,0.0,0.0,0.0,0.0,0.0,0.0,0.0,0.0,0.0,0.0,0.0,0.0,0.0,0.0,0.0,0.0,0.0,0.0,0.0,0.0,0.0,0.0,7.5502,7.7516,7.8565,7.8909,7.9406,8.0422,8.1855,8.2774,8.2774,8.3837,8.4567,8.4637,8.5404,8.595,8.609,8.6529,8.6715,8.6573,8.6465,8.6392,8.6247,8.621,8.621,8.621,8.621,8.621,8.621,8.621,8.6136,0.0,8.5987,8.5948,8.5909,8.5909,8.5909,0.0,0.0,0.0,0.0,0.0,8.4497,8.4497,5.3225,5.3225,5.3225,5.3225,5.3225,5.3518,5.4399,5.5207,5.6602,5.9024,6.1447,6.3576,6.5154,6.6733,6.7687,6.7687,6.7687,6.8128,6.9119,7.1358,7.3413,7.5102,7.6644,7.7892,7.8846,7.9543,8.0314,8.1158,8.1158,8.1489,8.2186,8.2186,8.2186,8.2186,8.2186,8.2186,8.215,8.1452,8.1085,8.0901,7.9433,7.6974,7.4001,7.3193,7.2422,7.1615,7.0807,7.0513,7.0367,6.9486,0.0,0.0,0.0,0.0,0.0,0.0,0.0,0.0,0.0,0.0,0.0,0.0,0.0,0.0,0.0,0.0,0.0,0.0,0.0,0.0,0.0,0.0,0.0,0.0,7.7389,7.894,8.1084,8.1733,8.1947,8.1907,8.315,8.4097,8.4097,8.479,8.5263,8.5335,8.5919,8.6429,8.6429,0.0,0.0,0.0,0.0,8.61,8.61,8.6021,8.6018,8.6018,8.6126,8.6163,8.6163,8.6163,8.6163,8.6163,8.6163,8.6163,8.6163,8.6163,8.6163,8.6126,8.5982,8.5909,8.5909,8.5909,8.5909,0.0,5.3335,5.3225,5.3225,5.3225,5.3225,5.3702,5.5133,5.6051,5.7446,5.9869,6.2328,6.4237,6.5191,6.6733,6.7687,6.7687,6.7687,6.8568,7.0697,7.2496,7.4478,7.6754,7.7818,7.9029,8.0498,8.0681,8.1158,8.1966,8.1966,8.2039,8.2186,8.2186,8.2186,8.2186,8.2186,8.2186,8.2186,8.2039,8.1599,8.0975,8.0681,7.8956,7.6533,7.5726,7.4918,7.4111,7.3303,7.301,7.2789,7.1321,7.0844,7.0697,6.9706,6.9412,0.0,0.0,0.0,0.0,0.0,0.0,0.0,0.0,0.0,0.0,0.0,0.0,0.0,0.0,0.0,0.0,0.0,0.0,0.0,7.7072,7.9028,8.0656,8.1127,8.2831,8.3956,8.3551,8.4245,8.4682,8.4682,8.5372,8.577,8.5955,8.6101,8.6247,8.6392,8.6429,0.0,8.6174,8.61,8.6062,8.5948,8.6489,8.6815,8.6815,0.0,0.0,8.7793,8.7793,8.7793,8.7793,8.7793,8.7793,8.7793,8.7793,8.7793,8.7648,8.638,8.5909,8.5909,8.5909,8.5909,8.5909,5.4473,5.4399,5.4399,5.4399,5.4399,5.4803,5.6014,5.6528,5.7666,6.0089,6.1814,6.3319,6.4567,6.6145,6.71,6.71,6.8568,7.0367,7.2386,7.4368,7.6423,7.8479,7.936,8.0351,8.1562,8.1599,8.1782,8.2186,8.2186,8.2186,8.2186,8.2186,8.2186,8.2186,8.2186,8.2186,8.2186,8.2186,8.1966,8.1599,8.1599,8.0608,7.8993,7.7341,7.646,7.5946,7.4735,7.4294,7.4184,7.3377,7.312,7.2973,7.2165,7.1908,7.1741,0.0,0.0,0.0,0.0,0.0,0.0,0.0,0.0,0.0,0.0,0.0,0.0,0.0,0.0,7.4754,0.0,0.0,7.8376,7.9173,8.0984,8.2432,8.2831,8.3917,8.4607,8.4428,8.5009,8.5407,8.5407,8.5731,8.5948,8.5987,8.5987,8.6062,8.6136,8.6172,8.6062,8.5987,8.635,8.6492,8.6452,8.7249,8.7611,8.7611,8.8046,8.8227,8.8227,8.8227,8.8227,8.8227,8.8227,8.8227,8.8227,8.8227,8.8227,8.8155,8.7358,8.6815,8.6416,8.6054,8.5909,8.5909,5.6014,5.6051,5.5978,5.5647,5.5574,5.5868,5.6675,5.6932,5.785,6.0089,6.1227,6.2401,6.3906,6.5411,6.6329,6.6476,6.9302,7.1762,7.334,7.5726,7.7892,7.969,8.0571,8.1379,8.2186,8.2186,8.2186,8.2186,8.2186,8.2186,8.2186,8.2186,8.2186,8.2186,8.2186,8.2186,8.2186,8.2186,8.2186,8.2186,8.2186,8.1819,8.1012,7.8846,7.7855,7.7378,7.6093,7.5506,7.5359,7.5212,7.5139,7.4992,7.4184,7.3927,7.3699,7.2948,7.2717,0.0,0.0,0.0,0.0,0.0,0.0,0.0,0.0,0.0,7.5768,7.5623,7.6348,7.7253,7.805,7.939,8.0621,8.1454,8.2794,8.3953,8.4605,8.4823,8.4931,8.4931,8.5511,8.5909,8.5909,8.5909,8.5909,8.5909,8.5909,8.5945,8.6126,8.6126,8.6199,8.6344,8.6923,8.7249,8.7249,8.8046,8.8444,8.8444,8.8589,8.8698,8.8698,8.8698,8.8698,8.8698,8.8698,8.8698,8.8698,8.8698,8.8698,8.8662,8.8517,8.8046,8.7394,8.6634,8.6344,8.6344,5.7593,5.774,5.7262,5.5831,5.5574,5.5868,5.6675,5.7409,5.8474,6.0199,6.1741,6.3025,6.398,6.4897,6.5742,6.6439,6.8788,7.0917,7.2532,7.4882,7.7304,7.969,8.0571,8.1379,8.2186,8.2186,8.2186,8.2186,8.2186,8.2186,8.2186,8.2186,8.2186,8.2186,8.2186,8.2186,8.2186,8.2186,8.2186,8.2186,8.2186,8.215,8.1966,8.0975,7.969,7.8442,7.8259,7.7708,7.6937,7.6203,7.5983,7.5836,7.5028,7.4652,7.4677,7.5114,7.5107,7.516,7.5653,7.5768,7.5768,7.5877,7.642,7.6782,0.0,0.0,7.8086,7.7362,7.8448,7.9752,8.0549,8.1418,8.2287,8.3084,8.399,8.4605,8.4678,8.533,8.5764,8.5764,8.5837,8.5909,8.5909,8.5909,8.5909,8.5909,8.5909,8.6199,8.6851,8.6887,8.7213,8.7937,8.8046,8.8082,8.8082,8.8879,8.9277,8.9277,9.0002,9.0328,9.0328,9.0328,9.0328,9.0328,9.0328,9.0328,9.0328,9.0328,9.0328,9.0255,8.9531,8.9205,8.9024,8.8263,8.7974,8.7974,5.7923,5.7997,5.7776,5.7116,5.7005,5.7116,5.7446,5.7776,5.84,5.9575,6.0309,6.1227,6.2511,6.3796,6.5301,6.7026,6.8972,7.0991,7.3046,7.5469,7.7708,7.969,8.0571,8.1379,8.2186,8.2186,8.2186,8.2186,8.2186,8.2186,8.2186,8.2186,8.2186,8.2186,8.2186,8.2186,8.2186,8.2186,8.2186,8.2186,8.2186,8.2186,8.2113,8.1305,8.0214,7.9086,7.8772,7.7976,0.0,7.6876,7.6668,7.6507,7.624,7.6068,7.6026,7.6672,7.6861,7.6977,7.7538,7.7688,7.7688,0.0,7.7941,7.8122,7.776,7.8593,7.9462,7.9571,8.0513,8.1527,8.236,8.3157,8.3809,0.0,8.4859,8.5402,8.5402,8.5692,8.5909,8.5909,8.5909,8.5909,8.5909,8.5909,8.609,8.6525,8.6561,8.6887,8.7684,8.772,8.7865,8.8227,8.8662,8.8915,8.8915,8.9712,9.011,9.011,9.0436,9.0581,9.0581,9.0581,9.0581,9.0581,9.0581,9.0581,9.0581,9.0581,9.0581,9.0581,9.0219,9.011,8.9929,8.8698,8.8227,8.8227,5.7997,5.7997,5.7997,5.7997,5.7997,5.7997,5.7997,5.7997,5.829,5.9098,5.9208,5.9832,6.141,6.2879,6.464,6.6843,6.8495,7.044,7.2863,7.5102,7.7157,7.9029,8.0094,8.1048,8.1856,8.2076,8.2186,8.2186,8.2186,8.2186,8.2186,8.2186,8.2186,8.2186,8.2186,8.2186,8.2186,8.2186,8.2186,8.2186,8.1966,8.1856,8.1782,8.0975,8.0003,7.9105,7.8647,7.7851,7.7029,7.7118,7.6993,7.6801,7.6966,7.6902,7.689,7.788,7.8431,7.8836,7.9209,7.9535,7.968,7.968,7.9861,8.0006,8.0006,8.0476,8.1056,8.1635,8.2396,8.312,8.37,8.4497,8.504,8.504,8.5511,8.5909,8.5909,8.5909,8.5909,8.5909,8.609,8.6199,8.6199,8.6199,8.6416,8.6959,8.7213,8.7684,8.8517,8.8553,8.8662,8.8879,8.9422,8.9712,8.9712,9.0292,9.0581,9.0581,9.0581,9.0581,9.0581,9.0581,9.0581,9.0581,9.0581,9.0581,9.0581,9.0581,9.0581,9.0581,9.0581,9.0581,9.0473,8.9314,8.8879,8.8879,5.7997,5.7997,5.7997,5.7997,5.7997,5.7997,5.7997,5.7997,5.829,5.9098,5.9208,5.9832,6.141,6.2365,6.3539,6.5228,6.6843,6.8788,7.1211,7.2899,7.4882,7.7304,7.8956,8.0204,8.1012,8.1782,8.2186,8.2186,8.2186,8.2186,8.2186,8.2186,8.2186,8.2186,8.2186,8.2186,8.2186,8.2186,8.2186,8.2113,8.1342,8.1048,8.0938,8.0131,7.9196,7.8336,7.8336,7.7623,7.6801,7.6801,7.6801,7.6801,7.6801,7.6708,7.6905,7.8504,7.9928,8.102,8.102,8.1599,8.2179,8.2179,8.2758,8.3338,8.3338,8.3374,8.3374,8.341,8.4062,8.4605,8.4642,8.533,8.5873,8.5873,8.5873,8.5909,8.5909,8.5909,8.5909,8.5909,8.6525,8.6996,0.0,8.6996,8.6996,8.7032,8.7756,8.8517,8.9314,8.935,8.9712,9.0509,9.0545,9.0545,9.0545,9.0581,9.0581,9.0581,9.0581,9.0581,9.0581,9.0581,9.0581,9.0581,9.0581,9.0581,9.0581,9.0581,9.0581,9.0581,9.0581,9.0581,9.0581,9.0545,9.0545,9.0545,5.7997,5.7997,5.7997,5.7997,5.7997,5.7997,5.7997,5.7997,5.8107,5.8364,5.8877,0.0,0.0,0.0,0.0,0.0,6.5632,6.7687,6.9596,7.1725,7.3744,7.5652,7.7268,7.8552,7.9396,8.0204,8.0865,8.1415,8.1415,8.1672,8.2186,8.2186,8.2186,8.2186,8.2186,8.2186,8.2186,8.2186,8.1893,8.1379,8.1122,8.0617,7.9901,7.9096,7.8492,7.783,0.0,7.6162,7.5907,7.5935,7.5871,7.5785,7.6498,7.6875,7.7502,7.9097,8.0692,8.1889,8.1889,8.2468,8.3084,8.3084,8.3301,8.3483,8.3483,8.3483,8.3627,8.4171,8.4497,8.4859,8.5402,8.5728,8.5909,8.5909,8.5909,8.5909,8.5909,8.5909,8.609,8.6597,8.6851,0.0,0.0,0.0,0.0,8.8553,8.8843,8.935,9.0147,9.0183,9.0074,8.9821,8.9785,8.9567,8.9024,8.9531,8.9785,8.9821,9.0328,9.0581,9.0581,9.0581,9.0581,9.0581,9.0581,9.0581,9.0581,9.0581,9.0581,9.0581,9.0581,9.0581,9.0581,9.0581,9.0581,9.0581,5.7997,5.7997,5.7997,5.7997,5.7997,0.0,0.0,0.0,0.0,0.0,0.0,0.0,0.0,0.0,0.0,0.0,0.0,6.6109,6.8348,7.0183,7.1945,7.356,7.5432,7.6717,7.7268,7.8369,7.9323,8.0131,8.0131,8.0534,8.1342,8.1342,8.1342,8.1342,8.1342,8.1342,8.1342,8.1342,8.1048,8.047,8.0113,7.9608,7.8894,7.8089,7.7604,0.0,7.5851,7.5313,7.5313,7.5406,7.5495,7.5696,7.6627,7.7538,7.8629,7.9933,8.1273,8.236,8.265,8.3301,8.3917,8.3917,8.4135,8.4352,8.4352,8.4352,8.4497,8.5004,8.5112,8.5293,8.5801,8.5909,8.5909,8.5909,8.6126,8.6308,8.6308,8.6561,8.6923,8.7394,8.7684,8.8082,0.0,0.0,0.0,8.9386,8.9676,8.9929,9.0147,9.0183,8.9785,8.8988,8.8988,8.8879,8.8626,8.9133,8.9531,8.9821,9.0364,9.0581,9.0581,9.0581,9.0762,9.1016,9.1016,9.1016,9.1016,9.1016,9.0871,9.0581,9.0581,9.0581,9.0581,9.0581,9.0581,9.0581,5.7997,5.7997,5.7997,0.0,0.0,0.0,0.0,0.0,0.0,0.0,0.0,0.0,0.0,0.0,0.0,0.0,0.0,0.0,6.7247,6.8274,6.9486,7.1064,7.3355,7.4639,7.4675,7.6216,7.7463,7.8405,7.8405,7.8846,7.9653,7.9653,7.9653,7.9653,7.9653,7.9653,7.9653,7.9653,7.949,7.9251,7.8483,7.7989,7.7713,7.6984,7.6599,7.6432,7.5633,7.5248,7.5189,7.5116,7.5659,7.6529,7.7398,7.8738,8.0151,8.0984,8.178,8.2577,8.3338,8.4135,8.475,8.475,8.533,8.5909,8.5909,8.5909,8.5909,8.5909,8.5909,8.5909,0.0,0.0,8.5909,8.5945,8.6561,8.7032,8.7068,8.7756,8.8227,0.0,0.0,0.0,0.0,0.0,0.0,8.9459,0.0,9.0183,8.9386,8.935,8.8988,8.8191,8.8191,8.8553,8.9277,8.935,8.9785,9.0581,9.0581,9.0581,9.0581,9.0581,9.1052,9.1813,9.1813,9.1813,9.1849,9.1849,9.1414,9.0726,9.0726,9.069,9.0654,9.0654,9.0654,9.0581,0.0,0.0,0.0,0.0,0.0,0.0,0.0,0.0,0.0,0.0,0.0,0.0,0.0,0.0,0.0,0.0,0.0,0.0,6.398,6.5856,6.7378,6.8403,7.014,7.1326,7.1948,7.2875,7.408,7.5505,7.5505,7.6298,7.7651,7.7714,7.7778,7.7778,7.7903,7.7903,7.7778,7.7778,7.7385,7.6647,7.6428,7.589,7.5152,7.4934,7.5095,7.54,7.4566,7.5037,7.5913,7.5334,7.6022,7.7543,7.9571,8.0476,8.1092,8.2468,8.3446,8.4135,8.4316,8.4968,8.5583,8.5583,8.5764,8.5909,8.5909,8.5909,8.5909,8.5909,8.5909,8.5909,8.5909,0.0,0.0,8.6634,8.6887,0.0,8.7829,8.8082,0.0,8.9024,0.0,8.964,9.0219,8.9929,0.0,0.0,8.9567,8.935,8.8553,8.8517,8.8155,8.7358,8.7901,8.801,8.7648,8.8807,8.9785,9.0581,9.0581,9.0581,9.0581,9.0581,9.1052,9.1813,9.1813,9.2139,9.2682,9.2682,9.2573,9.2392,9.2392,9.203,9.1487,9.1487,9.1125,9.0581,0.0,0.0,0.0,0.0,0.0,0.0,0.0,0.0,0.0,0.0,0.0,0.0,0.0,0.0,0.0,0.0,0.0,0.0,0.0,6.4626,6.571,6.6408,6.7561,6.8564,6.9253,7.0055,7.1354,7.296,7.296,7.3581,7.4822,7.4884,7.4945,7.4945,7.497,7.497,7.4945,7.4945,7.453,0.0,0.0,7.3588,7.3035,7.3398,7.3732,7.4102,7.4356,7.5478,7.6818,7.671,7.7507,7.8847,8.0585,8.1346,8.1925,8.3555,8.4352,8.4786,8.5112,8.5547,8.5909,8.5909,8.5909,8.5909,8.5909,8.5909,8.5909,8.5909,8.5909,8.5909,8.5909,8.5909,8.6054,0.0,0.0,0.0,8.8155,8.8843,8.9422,0.0,8.9929,0.0,9.0545,9.0183,8.9785,0.0,8.906,8.8517,8.7756,8.8046,8.7865,8.7068,8.7829,8.8155,8.8046,8.9314,9.0147,9.0581,9.0581,9.0581,9.0581,9.0581,9.1233,9.232,0.0,9.2791,9.3551,9.3551,9.3334,9.3008,9.3008,9.2501,9.1813,9.1813,9.1306,9.0581,0.0,0.0,0.0,0.0,0.0,0.0,0.0,0.0,0.0,5.8143,5.8143,5.8217,0.0,0.0,0.0,0.0,0.0,0.0,0.0,0.0,6.4171,6.4872,6.5513,6.619,6.6826,6.7555,6.8706,7.0237,7.0237,7.0638,7.1381,7.1441,7.1441,7.1441,7.1441,7.1441,7.1441,7.155,7.1466,7.1308,7.1417,7.133,7.1277,0.0,7.2472,7.2762,7.45,7.613,7.7615,7.8448,7.9245,8.0078,8.1092,8.1889,8.2758,8.4388,8.4859,8.5004,8.5692,8.5909,8.5909,8.5909,8.5909,8.5909,8.5909,8.5909,8.5909,8.5909,8.5909,8.5909,8.5909,8.5909,8.5909,8.6018,0.0,8.8263,8.8372,8.964,9.0581,9.0581,9.0581,9.0581,9.0581,9.0509,9.0147,8.9459,8.8662,8.7937,8.7213,8.7829,8.7974,8.743,8.8046,8.877,8.9531,9.0255,9.0581,9.0581,9.0581,9.0581,9.0581,9.0581,9.1414,9.2863,0.0,0.0,9.4058,9.4167,9.3805,9.3153,9.3153,9.2682,9.1958,9.1958,9.1378,9.0581,0.0,0.0,0.0,0.0,0.0,0.0,0.0,0.0,0.0,0.0,5.8988,5.9245,0.0,0.0,0.0,0.0,0.0,0.0,0.0,0.0,0.0,6.3836,6.3803,6.4109,6.4908,6.5053,6.5597,6.654,6.654,6.6939,6.7738,6.7855,6.7877,6.7913,6.8086,6.8028,6.7949,6.8604,6.8777,6.873,6.9382,6.9636,6.9684,7.048,0.0,0.0,7.4283,7.613,7.7615,7.8448,7.9245,8.0259,8.2396,8.3157,8.3591,8.5221,8.5692,8.5728,8.5873,8.5909,8.5909,8.5909,8.5909,8.5909,8.5909,8.5909,8.5909,8.5909,8.5909,8.5909,8.5909,8.5909,8.609,8.6706,8.7611,8.8444,8.9096,9.0002,9.0581,9.0581,9.0581,9.0581,9.0581,9.0002,0.0,0.0,0.0,0.0,8.801,8.8155,8.8444,8.8988,8.9133,8.9567,9.0364,9.0545,9.0581,9.0581,9.0581,9.0581,9.0581,9.0581,9.1125,9.2066,0.0,0.0,9.3261,9.395,9.4131,9.3986,9.3986,9.3515,9.2791,9.2791,9.1849,9.0581,0.0,0.0,0.0,0.0,0.0,0.0,0.0,5.8951,5.9501,6.0346,6.0456,6.0456,6.0419,6.0419,6.0566,0.0,0.0,0.0,0.0,0.0,0.0,6.2944,6.282,6.3112,6.3744,6.378,6.4178,6.4975,0.0,6.5156,6.5555,6.5612,6.5633,6.5633,6.5783,6.5727,6.567,6.6069,6.641,6.6786,6.7148,6.7583,6.8054,6.9285,0.0,0.0,7.3921,7.5515,7.7072,7.8303,7.9245,8.0332,8.2722,8.3483,8.3809,8.5438,8.5909,8.5909,8.5909,8.5909,8.5909,8.5909,8.5909,8.5909,8.5909,8.5909,8.5909,8.5909,8.5909,8.5909,8.5909,8.6199,8.6597,8.6959,8.8046,8.8951,8.935,9.0074,9.0581,9.0581,9.0581,9.0581,9.0581,9.0255,9.0002,0.0,0.0,0.0,8.8263,8.8626,8.9205,9.0002,9.0002,9.0219,9.0581,9.0581,9.0581,9.0581,9.0581,9.0581,9.0581,9.0581,9.1052,9.1813,9.2211,0.0,9.3044,9.3443,9.3587,9.3587,9.3587,9.308,9.2392,9.2392,9.1632,9.0545,0.0,0.0,0.0,0.0,0.0,0.0,0.0,5.9355,5.9979,6.141,6.1741,6.163,6.097,6.0933,6.119,0.0,0.0,0.0,0.0,0.0,0.0,0.0,0.0,0.0,6.2911,0.0,0.0,6.3889,6.3889,0.0,0.0,0.0,0.0,0.0,6.3889,6.3889,6.3889,6.407,6.4613,0.0,0.0,6.6098,6.6967,0.0,0.0,0.0,0.0,7.4826,7.6311,7.8086,7.9245,8.0295,8.2541,8.3338,8.3772,8.5221,8.5764,8.5909,8.5909,8.5909,8.5909,8.5909,8.5909,8.5909,8.5909,8.5909,8.5909,8.5909,8.5909,8.5909,8.5909,8.6525,8.7032,8.7032,8.8372,8.9386,8.9386,9.0074,9.0581,9.0581,9.0581,9.0581,9.0581,9.0581,0.0,0.0,0.0,0.0,8.8807,8.9314,8.9929,9.0581,9.0581,9.0581,9.0581,9.0581,9.0581,9.0581,9.0581,9.0581,9.0581,9.0581,9.0943,9.1559,9.174,0.0,0.0,9.2682,9.2754,9.2754,9.2754,9.2356,9.1813,9.1732,9.1225,9.0429,0.0,0.0,0.0,0.0,0.0,0.0,5.9098,5.9832,6.0603,6.1484,6.2254,6.2658,6.2585,6.2585,6.2622,0.0,0.0,0.0,0.0,0.0,0.0,0.0,0.0,0.0,0.0,0.0,0.0,6.2223,6.2223,0.0,0.0,0.0,0.0,0.0,0.0,6.2223,6.2295,6.2983,0.0,0.0,0.0,0.0,0.0,0.0,0.0,0.0,0.0,7.4464,7.5587,7.7905,7.9245,8.0187,8.1853,8.2903,8.3664,8.4533,8.533,8.5909,8.5909,8.5909,8.5909,8.5909,8.5909,8.5909,8.5909,8.5909,8.5909,8.5909,8.5909,8.5909,8.5909,8.6525,8.7032,8.7032,8.8372,8.9386,8.9386,9.0074,9.0581,9.0581,9.0581,9.0581,9.0581,9.0581,0.0,0.0,0.0,0.0,0.0,9.0436,9.0509,9.0581,9.0581,9.0581,9.0581,9.0581,9.0581,9.0581,9.0581,9.0581,9.0581,9.0581,9.0654,9.0762,0.0,0.0,0.0,9.1595,9.1921,9.1921,9.1921,9.1885,9.1813,9.1568,9.098,9.0295,0.0,0.0,0.0,0.0,0.0,0.0,5.9722,6.0199,6.086,6.2144,6.2622,6.2805,6.2805,6.2805,6.2805,6.2805,0.0,0.0,0.0,0.0,0.0,0.0,0.0,0.0,0.0,0.0,6.2005,6.2005,6.2005,0.0,0.0,0.0,0.0,0.0,0.0,6.2005,6.2041,6.2331,0.0,0.0,0.0,0.0,0.0,0.0,0.0,0.0,0.0,0.0,7.4826,7.7724,7.8919,7.9462,8.1056,8.2106,8.3012,8.4316,8.4931,8.5257,8.5764,8.5909,8.5909,8.5909,8.5909,8.5909,8.5909,8.5909,8.5909,8.5909,8.5909,8.5909,8.5909,8.6923,8.7756,8.7756,8.906,9.011,9.011,9.04,9.0581,9.0581,9.0581,9.0581,0.0,0.0,0.0,0.0,0.0,0.0,0.0,9.0581,9.0581,9.0581,9.0581,9.0581,9.0581,9.0581,9.0581,9.0581,9.0581,9.0581,9.0581,9.0581,9.0581,9.0618,0.0,0.0,0.0,9.0943,9.1088,9.1088,9.0927,9.0927,9.0846,9.0516,9.0049,8.9485,0.0,0.0,0.0,0.0,0.0,5.8474,5.9832,6.0272,6.0896,6.2291,6.2658,6.2805,6.2805,6.2805,6.2805,6.2805,6.2805,0.0,0.0,0.0,0.0,0.0,0.0,0.0,0.0,0.0,6.2005,6.2005,6.2005,6.2005,0.0,0.0,0.0,6.2005,0.0,0.0,0.0,0.0,0.0,0.0,0.0,0.0,0.0,0.0,0.0,0.0,0.0,0.0,0.0,0.0,0.0,7.8992,8.0585,8.1491,8.2251,8.3845,8.4497,8.4859,8.5692,8.5909,8.5909,8.5909,8.5909,8.5909,8.5909,8.5909,8.5909,8.5909,8.5909,8.5909,8.5909,8.7177,8.8227,8.8227,8.9567,9.0581,9.0581,9.0581,9.0581,9.0581,9.0581,9.0581,0.0,0.0,0.0,0.0,0.0,0.0,0.0,9.0581,9.0581,9.0581,9.0581,9.0581,9.0581,9.0581,9.0581,9.0581,9.0581,9.0581,9.0581,9.0581,9.0581,9.0581,0.0,0.0,0.0,9.0581,9.0581,9.0581,9.0376,9.0213,9.0131,8.9507,8.9126,8.8757,0.0,0.0,0.0,0.0,0.0,0.0,5.9098,5.9905,6.0676,6.152,6.2328,6.2805,6.2805,6.2805,6.2805,6.2805,6.2805,0.0,0.0,0.0,0.0,0.0,0.0,0.0,0.0,0.0,6.2005,6.2005,6.2005,6.2005,6.2005,6.2005,6.2005,6.2005,0.0,0.0,0.0,0.0,0.0,0.0,0.0,0.0,0.0,0.0,0.0,0.0,0.0,0.0,0.0,0.0,0.0,0.0,0.0,8.1128,8.1454,8.3048,8.4062,8.4859,8.5692,8.5909,8.5909,8.5909,8.5909,8.5909,8.5909,8.5909,8.5909,8.5909,8.5909,8.5909,8.5909,8.7177,8.8227,8.8227,8.9567,9.0581,9.0581,9.0581,9.0581,9.0581,9.0581,9.0581,9.0581,0.0,0.0,0.0,0.0,0.0,0.0,9.0581,9.0581,9.0581,9.0581,9.0581,9.0581,9.0581,9.0581,9.0581,9.0581,9.0581,9.0581,9.0581,9.0581,0.0,0.0,0.0,0.0,9.0581,9.0581,9.0581,9.0376,9.0095,8.9809,8.8863,8.829,8.7888,0.0,0.0,0.0,0.0,0.0,0.0,5.9098,5.9905,6.0676,6.1484,6.2291,6.2805,6.2805,6.2805,6.2805,6.2805,6.2805,0.0,0.0,0.0,0.0,0.0,0.0,0.0,0.0,6.206,6.2005,6.2005,6.2005,6.2005,6.2005,6.2005,6.2005,6.2005,6.2005,6.2005,0.0,0.0,0.0,0.0,0.0,0.0,0.0,0.0,0.0,0.0,0.0,0.0,0.0,0.0,0.0,0.0,0.0,0.0,0.0,8.3012,8.3664,8.4171,8.5511,8.5909,8.5909,8.5909,8.5909,8.5909,8.5909,8.5909,8.5909,8.5909,8.5909,8.5909,8.5909,8.7177,8.8227,8.8227,8.9567,9.0581,9.0581,9.0581,9.0581,9.0581,9.0581,9.0581,0.0,0.0,0.0,0.0,0.0,0.0,0.0,9.0581,9.0581,9.0581,9.0581,9.0581,9.0581,9.0581,9.0581,9.0581,9.0581,9.0581,9.0581,9.0581,0.0,0.0,0.0,0.0,0.0,9.0581,9.0537,9.0376,8.9726,8.93,8.8775,8.7644,8.688,8.639,0.0,0.0,0.0,0.0,0.0,0.0,5.8694,5.9685,6.0566,6.108,6.2108,6.2805,6.2805,6.2805,6.2805,6.2805,6.2805,0.0,0.0,0.0,0.0,0.0,0.0,0.0,6.2344,6.2168,6.206,6.206,6.2005,6.2005,6.2005,6.2005,6.2005,6.2005,6.2005,6.2005,0.0,0.0,0.0,0.0,0.0,0.0,6.8778,0.0,0.0,0.0,0.0,0.0,0.0,0.0,0.0,0.0,0.0,0.0,0.0,0.0,8.37,8.4243,8.5547,8.5909,8.5909,8.5909,8.5909,8.5909,8.5909,8.5909,8.5909,8.5909,8.5909,8.5909,8.5909,8.7177,8.8227,8.8227,8.9567,9.0581,9.0581,9.0581,9.0581,9.0581,0.0,0.0,0.0,0.0,0.0,0.0,0.0,0.0,0.0,0.0,9.0581,9.0581,9.0581,9.0581,9.0581,9.0581,9.0581,9.0581,9.0581,9.0581,9.0581,9.0581,0.0,0.0,0.0,0.0,0.0,9.0537,9.0295,8.9965,8.9213,8.8561,8.7923,8.6587,8.5787,8.5308,0.0,0.0,0.0,0.0,0.0,0.0,0.0,5.9318,6.0346,6.0382,6.1741,6.2768,6.2805,6.2805,6.2805,6.2805,6.2805,0.0,0.0,0.0,0.0,0.0,0.0,0.0,6.2603,6.2344,6.2185,6.2185,6.206,6.2005,6.2005,6.2005,6.2005,6.2005,6.2005,6.2005,0.0,0.0,0.0,0.0,0.0,0.0,0.0,0.0,0.0,0.0,0.0,0.0,0.0,0.0,0.0,0.0,0.0,0.0,0.0,0.0,0.0,0.0,0.0,8.5909,8.5909,8.5909,8.5909,8.5909,8.5909,8.5909,0.0,8.5909,8.5909,8.5909,8.5909,8.7177,8.8227,8.8227,8.9567,9.0581,9.0581,9.0581,9.0581,9.0581,9.0581,0.0,0.0,0.0,0.0,0.0,0.0,0.0,0.0,0.0,9.0581,9.0581,9.0581,9.0581,9.0581,9.0581,9.0581,9.0581,9.0581,9.0581,9.0581,9.0581,0.0,0.0,0.0,0.0,0.0,9.0295,8.9965,8.9421,8.8686,8.7923,8.7004,8.5753,8.4995,8.4359,0.0,0.0,0.0,0.0,0.0,0.0,0.0,0.0,0.0,0.0,6.1263,6.2108,6.2732,6.2805,6.2805,0.0,0.0,0.0,0.0,0.0,0.0,0.0,0.0,0.0,6.2603,6.2344,6.2185,6.2185,6.206,6.2005,6.2005,6.2005,6.2005,6.2005,6.2005,6.2005,0.0,0.0,0.0,0.0,0.0,0.0,0.0,0.0,0.0,0.0,7.2364,7.3378,0.0,0.0,0.0,0.0,0.0,0.0,0.0,0.0,8.4062,8.4859,8.5692,0.0,8.5909,8.5909,8.5909,8.5909,0.0,8.5909,8.5909,8.5909,8.5909,8.5909,8.5909,8.7177,8.8227,8.8227,8.9567,9.0581,9.0581,9.0581,9.0581,9.0581,9.0581,0.0,0.0,0.0,0.0,0.0,0.0,0.0,0.0,0.0,9.0581,9.0581,9.0581,9.0581,9.0581,9.0581,9.0581,9.0581,9.0581,9.0581,9.0581,9.0581,0.0,0.0,0.0,0.0,9.0295,8.9881,8.9335,8.8686,8.7702,8.6748,8.5651,8.4539,8.3926,8.3521,0.0,0.0,0.0,0.0,0.0,0.0,0.0,0.0,0.0,0.0,6.108,6.1924,6.2732,6.2805,6.2805,0.0,0.0,0.0,0.0,0.0,0.0,0.0,0.0,6.2705,6.2705,6.2397,6.2291,6.2291,6.2114,6.2005,6.2005,6.2005,6.2005,6.2005,6.2005,6.2005,0.0,0.0,0.0,0.0,6.6134,0.0,0.0,0.0,0.0,0.0,7.2436,7.3559,0.0,7.7181,7.8376,7.8919,0.0,0.0,0.0,0.0,8.4062,8.4859,8.5692,8.5909,8.5909,8.5909,8.5909,8.5909,8.5909,8.5909,8.5909,8.5909,8.5909,8.6018,8.6344,8.7394,8.8336,8.8698,8.9785,9.0581,9.0581,9.0581,9.0581,9.0581,9.0581,0.0,0.0,0.0,0.0,0.0,0.0,0.0,0.0,0.0,9.0581,9.0581,9.0581,9.0581,9.0581,9.0581,9.0581,9.0581,9.0581,9.0581,9.0581,9.0581,0.0,0.0,0.0,0.0,8.9797,8.9335,8.8596,8.7738,8.6651,8.5651,8.4645,8.3817,8.3299,8.3108,0.0,0.0,0.0,0.0,0.0,0.0,0.0,0.0,0.0,0.0,0.0,0.0,0.0,0.0,0.0,0.0,0.0,0.0,0.0,0.0,0.0,0.0,6.2805,6.2805,6.2805,6.25,6.2433,6.2433,6.2114,6.2005,6.2005,6.2005,6.2005,6.2005,6.2005,6.2078,6.2295,0.0,0.0,0.0,6.6207,0.0,0.0,0.0,0.0,0.0,0.0,0.0,0.0,7.6529,7.7941,7.8847,7.9643,0.0,0.0,0.0,0.0,0.0,8.5692,8.5909,8.5909,8.5909,8.5909,8.5909,8.5909,8.5909,8.5909,8.5909,8.5909,8.6126,8.6887,8.7684,8.8481,8.9277,9.0074,9.0581,9.0581,9.0581,9.0581,9.0581,0.0,0.0,0.0,0.0,0.0,0.0,0.0,0.0,0.0,0.0,0.0,9.0581,9.0581,9.0581,9.0581,9.0581,9.0581,9.0581,9.0581,9.0581,9.0581,9.0581,9.0537,0.0,0.0,0.0,8.9162,8.8596,8.7738,8.6685,8.5686,8.4751,8.3926,8.341,8.3108,8.2883,0.0,0.0,0.0,0.0,0.0,0.0,0.0,0.0,0.0,0.0,0.0,0.0,0.0,0.0,0.0,0.0,0.0,0.0,0.0,0.0,0.0,6.2805,6.2805,6.2805,6.2805,6.25,6.2433,6.2433,6.2114,6.2005,6.2005,6.2005,6.2005,6.2005,6.2005,6.2404,6.3056,6.3997,0.0,0.0,0.0,0.0,0.0,0.0,0.0,0.0,0.0,0.0,0.0,7.5913,7.747,7.8847,7.9643,0.0,0.0,0.0,0.0,0.0,8.5692,8.5909,8.5909,8.5909,8.5909,8.5909,8.5909,8.5909,8.5909,8.5909,8.5909,8.6126,8.6887,8.7684,8.8481,8.9277,9.0074,9.0581,0.0,0.0,9.0581,0.0,0.0,0.0,0.0,0.0,0.0,0.0,0.0,0.0,0.0,0.0,0.0,9.0581,9.0581,9.0581,9.0581,9.0581,9.0581,9.0581,9.0581,9.0581,9.0581,9.0581,9.0537,0.0,0.0,8.9421,8.8899,8.7959,8.688,8.5889,8.51,8.4143,8.3443,8.3108,8.2916,8.2883,0.0,0.0,0.0,0.0,0.0,0.0,0.0,0.0,0.0,0.0,0.0,0.0,0.0,0.0,0.0,0.0,0.0,0.0,0.0,0.0,6.2805,6.2805,6.2805,6.2805,6.2805,6.25,6.2615,6.3053,6.2785,6.2875,6.3309,6.2838,6.2657,6.2657,6.2657,6.2838,6.3273,6.4504,6.5265,6.5663,0.0,0.0,0.0,0.0,0.0,0.0,0.0,0.0,0.0,0.0,7.7072,7.8195,7.8992,0.0,0.0,0.0,0.0,0.0,8.504,8.5583,8.5909,8.5909,8.5909,8.5909,8.5909,8.5909,8.5909,8.5909,8.5909,8.6271,8.743,8.7974,8.8626,8.9857,9.0002,9.011,9.0545,0.0,0.0,0.0,0.0,0.0,0.0,0.0,0.0,0.0,0.0,0.0,0.0,0.0,0.0,0.0,9.0581,9.0581,9.0581,9.0581,9.0581,9.0581,9.0581,9.0501,9.0457,9.0457,9.0295,8.9881,0.0,8.8987,8.8234,8.717,8.609,8.51,8.4251,8.3521,8.3075,8.2453,8.232,8.232,0.0,0.0,0.0,0.0,0.0,0.0,0.0,0.0,0.0,0.0,0.0,0.0,0.0,0.0,0.0,0.0,0.0,0.0,0.0,6.2805,6.2805,6.2805,6.2805,6.2805,6.2805,6.25,6.2798,6.36,6.333,6.3599,6.4396,6.3744,6.3454,6.3454,6.3454,6.3563,6.3816,6.5084,6.57,6.5953,0.0,0.0,0.0,0.0,0.0,0.0,0.0,0.0,0.0,0.0,0.0,0.0,0.0,0.0,0.0,8.1817,8.2867,8.3664,8.446,8.5293,8.5909,8.5909,8.5909,8.5909,8.5909,8.5909,8.5945,8.6126,8.6163,8.6597,8.7974,8.8227,8.8626,8.9857,8.9531,8.9386,0.0,0.0,0.0,0.0,0.0,0.0,0.0,0.0,0.0,0.0,0.0,0.0,0.0,0.0,0.0,0.0,9.0581,9.0581,9.0581,9.0501,9.0537,9.0537,9.0537,9.0457,9.0213,9.0131,8.9965,8.9543,8.9075,8.8416,8.7491,8.639,8.5378,8.4392,8.3631,8.3009,8.2552,8.179,8.1525,8.1525,0.0,0.0,0.0,0.0,0.0,0.0,0.0,0.0,0.0,0.0,0.0,0.0,0.0,0.0,0.0,0.0,0.0,0.0,0.0,6.2805,6.2805,6.2805,6.2805,6.2805,6.2805,6.25,6.2798,6.36,6.333,6.3599,6.4396,6.4323,6.4287,6.4287,6.4287,6.4722,6.5446,6.5555,6.6025,6.6786,6.7583,0.0,0.0,0.0,0.0,0.0,0.0,0.0,0.0,0.0,0.0,0.0,0.0,0.0,8.0223,8.1817,8.2867,8.3664,8.446,8.5293,8.5909,8.5909,8.5909,8.5909,8.5909,8.5909,8.609,8.6778,8.6959,8.7249,8.8082,8.8227,8.8263,8.8372,8.8336,0.0,0.0,0.0,0.0,0.0,0.0,0.0,0.0,0.0,0.0,0.0,0.0,0.0,0.0,0.0,0.0,0.0,0.0,9.0581,9.0581,9.0457,9.0295,9.0295,9.0295,9.0213,9.0001,8.9797,8.9543,8.9285,8.829,8.755,8.6977,8.5583,8.4713,8.4211,8.3554,8.2677,8.179,8.1028,8.0763,8.0763,0.0,0.0,0.0,0.0,0.0,0.0,0.0,0.0,0.0,0.0,0.0,0.0,0.0,0.0,0.0,0.0,0.0,0.0,0.0,6.2805,6.2805,6.2805,6.2805,6.2805,6.2805,6.3115,6.358,6.4366,6.5109,6.5591,6.5881,6.5374,6.5156,6.5156,6.5156,6.5301,6.5627,6.6134,6.6533,6.6858,6.7692,6.8307,0.0,0.0,0.0,0.0,0.0,0.0,0.0,0.0,7.5841,7.6963,7.8303,7.8919,7.9462,8.1092,8.2468,8.3555,8.3845,8.4895,8.5909,8.5909,8.5909,8.5909,8.5909,8.5909,8.6126,8.6851,8.7032,8.7285,8.8082,8.8227,8.8227,8.8227,8.7793,0.0,0.0,0.0,0.0,0.0,0.0,0.0,0.0,0.0,0.0,0.0,0.0,0.0,0.0,0.0,0.0,0.0,0.0,9.0581,9.0581,9.0376,9.0213,9.0167,9.0167,8.9881,8.9543,8.9249,8.8899,8.8361,8.755,8.6783,8.599,8.51,8.3982,8.2929,8.2023,8.147,8.1028,8.0299,8.0034,8.0034,0.0,0.0,0.0,0.0,0.0,0.0,0.0,0.0,0.0,0.0,0.0,0.0,0.0,0.0,0.0,0.0,0.0,0.0,6.2805,6.2805,6.2805,6.2805,6.2805,6.2805,6.2805,6.3768,6.4417,6.4803,6.6105,6.6786,6.6786,6.6243,6.5989,6.5989,6.5989,6.5989,6.6025,6.6569,6.6967,6.7257,6.8054,6.885,0.0,0.0,0.0,0.0,0.0,0.0,0.0,0.0,7.5841,7.6565,7.8195,7.8702,7.9028,8.0621,8.2251,8.3483,8.3483,8.4678,8.5909,8.5909,8.5909,8.5909,8.5909,8.5909,8.6199,8.7177,8.7611,8.7937,8.8481,8.8191,8.7829,0.0,0.0,0.0,0.0,0.0,0.0,0.0,0.0,0.0,0.0,0.0,0.0,0.0,0.0,0.0,0.0,0.0,0.0,0.0,0.0,9.0618,9.0537,9.0295,9.0048,8.9833,8.9628,8.9371,8.8987,8.8632,8.8051,8.7396,8.6685,8.5889,8.5066,8.4196,8.3046,8.169,8.074,8.0366,8.0266,7.9537,7.9272,7.9272,0.0,0.0,0.0,0.0,0.0,0.0,0.0,0.0,0.0,0.0,0.0,0.0,0.0,0.0,0.0,0.0,0.0,0.0,6.2805,6.2805,6.2805,6.2805,6.2805,6.2805,6.2805,6.4457,6.5144,6.484,6.6105,6.6786,6.6786,6.6786,6.6786,6.6786,6.6786,6.6786,6.6786,6.6786,6.7257,6.809,6.885,6.9684,7.0553,0.0,0.0,0.0,0.0,0.0,0.0,0.0,7.6275,7.6565,7.8195,7.8702,7.9028,8.0658,8.2251,8.3483,8.3483,8.4678,8.5909,8.5909,8.5909,8.5909,8.5909,8.5909,8.6344,8.7901,8.8843,8.9386,8.9386,8.8082,0.0,0.0,0.0,0.0,0.0,0.0,0.0,0.0,0.0,0.0,0.0,0.0,0.0,0.0,0.0,0.0,0.0,0.0,0.0,0.0,0.0,0.0,9.0295,9.0084,8.9749,8.9285,8.8721,8.8506,8.8416,8.7679,8.7109,8.6523,8.5412,8.4785,8.4398,8.2829,8.1547,8.0598,7.9902,7.9604,7.9537,7.8776,7.8511,7.8511,0.0,0.0,0.0,0.0,0.0,0.0,0.0,0.0,0.0,0.0,0.0,0.0,0.0,0.0,0.0,0.0,0.0,0.0,6.2805,6.2805,6.2805,6.2805,6.2805,6.2805,6.2805,6.4213,6.5442,6.6481,6.6743,6.6786,6.6786,6.6786,6.6786,6.6786,6.6786,6.6786,6.6786,6.6786,6.7257,6.809,6.885,6.9973,7.1277,0.0,0.0,0.0,0.0,0.0,0.0,0.0,0.0,0.0,7.8195,7.8702,7.9136,8.1309,8.2686,8.3591,8.4171,8.5112,8.5909,8.5909,8.5909,8.5909,8.5909,8.5909,8.6344,8.7901,8.7974,8.7901,8.8481,8.7285,0.0,0.0,0.0,0.0,0.0,0.0,0.0,0.0,0.0,0.0,0.0,0.0,0.0,0.0,0.0,0.0,0.0,0.0,0.0,0.0,0.0,0.0,9.0295,8.9797,8.9371,8.8987,8.8143,8.7679,8.7679,8.688,8.6191,8.5412,8.4713,8.4177,8.3531,8.1857,8.0707,7.9869,7.914,7.8842,7.8809,7.861,7.8511,7.8511,0.0,0.0,0.0,0.0,0.0,0.0,0.0,0.0,0.0,0.0,6.2805,6.2805,0.0,0.0,0.0,0.0,0.0,0.0,6.2805,6.2805,6.2805,6.2805,6.2805,6.3135,6.3796,6.4729,6.5934,6.721,6.6961,6.6786,6.6786,6.6786,6.6967,6.7293,6.7293,6.7293,6.7293,6.7619,6.8017,6.8561,6.9321,7.0589,7.2074,0.0,0.0,0.0,0.0,0.0,0.0,0.0,0.0,0.0,7.8666,7.9173,7.9535,8.1309,8.2613,8.3591,8.4098,8.504,8.5909,8.5909,8.5909,8.5982,8.6271,8.6597,8.7104,8.8046,8.8082,8.8118,8.8589,8.7394,0.0,0.0,0.0,0.0,0.0,0.0,0.0,0.0,0.0,0.0,0.0,0.0,0.0,0.0,0.0,0.0,0.0,0.0,0.0,0.0,0.0,0.0,8.9881,8.9457,8.8899,8.8325,8.7396,8.6818,8.6424,8.5889,8.5274,8.4466,8.3658,8.281,8.2145,8.0873,7.9836,7.914,7.8709,7.8511,7.8511,7.8511,7.8511,7.8511,0.0,0.0,0.0,0.0,0.0,0.0,0.0,0.0,0.0,6.2805,6.2805,6.2805,0.0,0.0,0.0,6.2805,6.2805,6.2805,6.2805,6.2805,6.2805,6.2805,6.2879,6.3723,6.5375,6.5842,6.6408,6.721,6.6961,6.6786,6.6786,6.6786,6.7221,6.8017,6.8017,6.8054,6.8162,6.8887,6.9213,6.9358,7.0154,7.1422,7.2907,7.3704,0.0,0.0,0.0,0.0,0.0,0.0,0.0,0.0,7.9318,7.9861,8.0078,8.0947,8.2287,8.3519,8.3591,8.4714,8.5909,8.5909,8.5945,8.6199,8.6851,8.7684,8.8336,8.8336,8.877,8.9205,8.9277,0.0,0.0,0.0,0.0,0.0,0.0,0.0,0.0,0.0,0.0,0.0,0.0,0.0,0.0,0.0,0.0,0.0,0.0,0.0,0.0,0.0,0.0,0.0,8.9285,8.8899,8.8234,0.0,8.6489,8.5686,8.489,8.489,8.4466,8.3564,8.2311,8.1359,8.0631,7.9935,7.9206,7.8511,7.8511,7.8511,7.8511,7.8511,7.8511,7.8511,0.0,0.0,0.0,0.0,0.0,0.0,0.0,0.0,6.2805,6.2805,6.2805,6.2805,6.2805,6.2805,0.0,6.2805,6.2805,6.2805,6.2805,6.2805,6.2805,6.2805,6.3466,6.4567,6.6219,6.6206,6.6519,6.721,6.6961,6.6786,6.6786,6.6786,6.7221,6.8017,6.8017,6.8343,6.8923,6.9104,6.9539,7.0191,7.0951,7.2219,7.374,7.4573,7.5334,0.0,0.0,0.0,0.0,0.0,0.0,0.0,7.8666,7.939,8.0187,8.1599,8.2722,8.3627,8.4243,8.5149,8.5909,8.5909,8.6344,8.6815,8.6959,8.8118,8.9133,8.9133,8.8263,8.772,0.0,0.0,0.0,0.0,0.0,0.0,0.0,0.0,0.0,0.0,0.0,0.0,0.0,0.0,0.0,0.0,0.0,0.0,0.0,0.0,0.0,0.0,0.0,8.9507,8.8987,8.8143,8.73,0.0,8.5583,8.4785,8.4035,8.4035,8.3598,8.3042,8.2233,8.1359,8.0631,7.9935,7.9206,7.8511,7.8511,7.8511,7.8511,7.8511,7.8511,7.8511,0.0,0.0,0.0,0.0,0.0,0.0,0.0,0.0,6.2805,6.2805,6.2805,6.2805,6.2805,6.2805,0.0,0.0,6.2805,6.2805,6.2805,6.2805,6.2805,6.2805,6.4016,6.5081,6.5925,6.6499,6.6793,6.6627,6.6801,6.6845,6.6822,6.7184,6.78,6.8597,6.8959,6.9358,6.9792,7.0154,7.0335,7.048,7.1603,7.2834,7.3993,7.479,7.5623,7.6275,7.6275,0.0,0.0,0.0,0.0,0.0,0.0,0.0,8.0078,8.0911,8.2251,8.3591,8.399,8.4968,8.5909,8.5909,8.6452,8.7104,8.7503,8.8517,8.9495,8.9893,8.8988,0.0,0.0,0.0,0.0,0.0,0.0,0.0,0.0,0.0,0.0,0.0,0.0,0.0,0.0,0.0,0.0,0.0,0.0,0.0,0.0,0.0,0.0,0.0,8.9628,8.8987,8.8361,8.7361,8.639,8.5583,8.4785,8.4035,8.3299,8.3299,8.3187,8.285,8.1757,8.1061,8.0598,7.9537,7.8875,7.8511,7.8511,7.8511,7.8511,7.8511,7.8511,7.8511,0.0,0.0,0.0,0.0,0.0,0.0,0.0,0.0,0.0,6.2805,6.2805,6.2805,6.2805,6.2805,6.2805,0.0,0.0,0.0,6.2805,6.2805,6.2879,6.3025,6.4347,6.5154,6.5301,6.6516,6.6738,6.5843,6.6369,6.6598,6.6605,6.7438,6.8307,6.9213,6.9865,7.0335,7.0625,7.1241,7.1132,7.0734,7.2291,7.3305,7.403,7.4971,7.5732,7.6275,7.6275,7.6275,7.6384,7.7072,0.0,0.0,0.0,0.0,7.9897,7.9897,8.1599,8.3483,8.3483,8.4678,8.5909,8.5909,8.6452,8.7213,8.8046,8.8843,8.964,9.0436,0.0,0.0,0.0,0.0,0.0,0.0,0.0,0.0,0.0,0.0,0.0,0.0,0.0,0.0,0.0,0.0,0.0,0.0,0.0,0.0,0.0,0.0,8.9302,8.9881,8.9162,8.8416,8.7585,8.6489,8.5583,8.4785,8.3926,8.3299,8.2883,8.2883,8.2883,8.2817,8.1326,8.0697,8.0564,7.9107,7.8511,7.8511,7.8511,7.8511,7.8511,7.8511,7.8511,7.8511,0.0,0.0,0.0,0.0,0.0,0.0,0.0,0.0,0.0,0.0,6.2805,6.2805,6.2805,6.2805,6.2805,6.2805,6.2805,6.2805,6.2805,0.0,0.0,6.387,6.4127,6.4604,6.5301,6.5469,6.5453,6.5164,6.5113,6.5386,6.5944,6.6627,6.7764,6.9176,6.9285,7.0082,7.135,7.1458,7.1458,7.1494,7.3124,7.3812,7.4066,7.5587,7.6203,7.6275,7.6275,7.6275,7.6311,7.642,7.6927,0.0,0.0,0.0,7.9897,7.9897,8.1599,8.3483,8.3483,8.4678,8.5909,8.5909,8.6452,8.7213,8.8046,8.8843,8.964,0.0,0.0,0.0,0.0,0.0,0.0,0.0,0.0,0.0,0.0,0.0,0.0,0.0,0.0,0.0,0.0,0.0,0.0,0.0,0.0,0.0,0.0,8.8707,8.922,8.9421,8.8596,8.7738,8.6818,8.572,8.4785,8.3926,8.3299,8.2996,8.2883,8.2883,8.2883,8.2817,8.1326,8.0697,8.0564,7.9107,7.8511,7.8511,7.8511,7.8511,7.8511,7.8511,7.8511,7.8511,0.0,0.0,0.0,0.0,0.0,0.0,0.0,0.0,0.0,0.0,0.0,6.2805,6.2805,6.2805,6.2805,6.2805,6.2805,6.2805,6.2805,6.2805,6.2989,6.3356,6.3833,6.4273,6.4604,6.5081,6.494,6.4217,6.5022,6.535,6.5053,6.6207,6.7655,6.9213,6.9647,7.048,7.1494,7.1494,7.1748,7.2327,7.3921,7.4863,7.5406,7.7036,7.7362,7.6963,7.6963,7.6674,7.6275,7.6275,7.6529,7.6818,7.6818,0.0,0.0,0.0,8.0947,8.3012,8.3917,8.5004,8.5909,8.5909,8.6452,8.7213,8.8046,8.8843,8.964,0.0,0.0,0.0,0.0,0.0,0.0,0.0,0.0,0.0,0.0,0.0,0.0,0.0,0.0,0.0,0.0,0.0,0.0,0.0,0.0,0.0,8.7191,8.7664,8.804,8.8398,8.7804,8.7074,8.6191,8.51,8.4069,8.3187,8.2996,8.2883,8.2883,8.2883,8.2883,8.2817,8.1326,8.0697,8.0564,7.9107,7.8511,7.8511,7.8511,7.8511,7.8511,7.8511,7.8511,7.8403,0.0,0.0,0.0,0.0,0.0,0.0,0.0,0.0,0.0,0.0,0.0,6.2805,6.2805,0.0,0.0,0.0,6.2805,6.2805,6.2805,6.2805,6.2805,6.2805,6.3429,6.3759,6.3759,6.4347,6.4244,6.3361,6.4694,6.5039,6.4489,6.6062,6.7655,6.9213,6.9828,7.0625,7.1494,7.1494,7.1965,7.2834,7.4464,7.5696,7.6782,7.8376,7.8629,7.8086,7.7869,7.7289,7.6565,7.6348,7.6275,7.6275,7.6275,7.7398,0.0,0.0,0.0,8.2903,8.4316,8.5293,8.5909,8.5909,8.6308,8.6996,8.7974,8.8662,8.9386,0.0,0.0,0.0,0.0,0.0,0.0,0.0,0.0,0.0,0.0,0.0,0.0,0.0,0.0,0.0,0.0,0.0,0.0,0.0,0.0,0.0,8.6492,8.6798,8.708,8.7427,8.7036,8.639,8.5481,8.4392,8.3554,8.2883,8.2883,8.2883,8.2883,8.2718,8.2618,8.2552,8.126,8.0697,8.0564,7.9107,7.8511,7.8511,7.8511,7.8511,7.8511,7.8511,7.8403,7.8403,0.0,0.0,0.0,0.0,0.0,0.0,0.0,0.0,0.0,0.0,0.0,6.2805,6.2805,6.2805,6.2805,6.2805,6.2805,6.2805,6.2805,6.2805,6.2805,6.2805,6.2842,0.0,6.2879,6.2915,6.2815,6.2676,6.3361,6.4003,6.4601,6.612,6.7655,6.9176,6.9213,7.0082,7.1494,7.1494,7.1965,7.2834,7.4464,7.6058,7.7615,7.9209,7.9825,7.968,7.8919,7.8122,7.7326,7.6565,7.6275,7.6275,7.6275,7.7398,7.8702,0.0,0.0,0.0,8.446,8.5293,8.5909,8.5909,8.5909,8.6344,8.7865,0.0,0.0,0.0,0.0,0.0,0.0,0.0,0.0,0.0,0.0,0.0,0.0,0.0,0.0,0.0,0.0,0.0,0.0,0.0,0.0,0.0,0.0,0.0,8.6127,8.6668,8.6822,8.6706,8.6401,8.5686,8.4679,8.3521,8.2883,8.2883,8.2883,8.2883,8.2883,8.2188,8.1856,8.179,8.1028,8.0697,8.0564,7.9107,7.8511,7.8511,7.8511,7.8511,7.8511,7.8511,7.8296,7.8079,0.0,0.0,0.0,0.0,0.0,0.0,0.0,0.0,0.0,0.0,0.0,0.0,0.0,6.2805,6.2805,6.2805,6.2805,6.2805,6.2805,6.2805,6.2805,6.2805,6.2805,6.2805,6.2805,6.3356,6.3254,6.2449,6.4256,6.4949,6.4489,6.6569,6.8162,6.9213,6.972,7.0806,7.2291,7.2291,7.3342,7.5152,7.6782,7.8376,8.0006,8.1599,8.1563,8.0658,8.0332,7.939,7.8231,7.7941,7.7833,7.776,7.7217,7.8159,7.9571,8.0114,8.1418,8.2903,8.37,8.4497,8.5257,8.5764,8.5909,8.6308,8.7865,8.8227,0.0,0.0,0.0,0.0,0.0,0.0,0.0,0.0,0.0,0.0,0.0,0.0,0.0,0.0,0.0,0.0,0.0,0.0,0.0,0.0,0.0,0.0,8.5294,8.5464,8.5517,8.5531,8.5151,8.459,8.3741,8.322,8.2883,8.2883,8.2883,8.2883,8.2883,8.2121,8.179,8.1724,8.0531,8.0001,7.9935,7.8941,7.8511,7.8511,7.8511,7.8511,7.8511,7.8511,7.8296,7.8079,0.0,0.0,0.0,0.0,0.0,0.0,0.0,0.0,6.5118,6.4567,0.0,0.0,0.0,0.0,6.3135,6.2842,6.2805,6.2915,6.3209,6.2989,6.3062,6.3613,6.3392,6.3356,6.3649,6.42,6.4046,6.3235,6.5095,6.5585,6.4867,6.7257,6.8669,6.9249,7.0553,7.1748,7.2726,7.2726,7.3957,7.6022,7.7651,7.9426,8.1273,8.2867,8.3012,8.2287,0.0,0.0,0.0,7.9281,7.91,7.8919,7.7833,7.8412,7.968,8.0476,8.1454,8.2396,8.2939,8.3881,8.4823,8.5366,8.5692,8.6235,8.7539,8.8046,0.0,0.0,0.0,0.0,0.0,0.0,0.0,0.0,0.0,0.0,0.0,0.0,0.0,0.0,0.0,0.0,0.0,0.0,0.0,0.0,0.0,0.0,8.4456,8.4352,8.4424,8.4454,8.4011,8.351,8.322,8.2996,8.2883,8.2883,8.2883,8.2784,8.2519,8.1757,8.1293,8.0995,7.9769,7.9405,7.9571,7.8809,7.8511,7.8511,7.8511,7.8511,7.8511,7.8403,7.8188,7.7829,0.0,0.0,0.0,0.0,0.0,0.0,0.0,0.0,6.5448,6.5411,0.0,0.0,0.0,0.0,0.0,6.2952,6.2879,6.3209,6.4053,6.3319,6.3576,6.5191,6.453,6.4494,6.5301,6.5338,6.5144,6.4803,6.5642,6.5876,6.5663,6.8054,6.9176,6.9285,7.1639,7.269,7.2762,7.2762,7.3704,7.5334,7.6927,7.8992,8.1309,8.2903,8.399,0.0,8.3772,8.2976,0.0,8.0549,0.0,7.968,7.8086,7.8122,7.8883,7.968,8.102,8.2251,0.0,0.0,0.0,8.4678,8.5293,8.609,8.6851,0.0,0.0,0.0,0.0,0.0,0.0,0.0,0.0,0.0,0.0,0.0,0.0,0.0,0.0,0.0,0.0,0.0,0.0,0.0,0.0,0.0,0.0,8.3954,8.3489,8.3515,8.35,8.3422,8.2993,8.271,8.2883,8.2883,8.2883,8.2883,8.2883,8.2486,8.1757,8.0995,8.0266,7.9571,7.8842,7.8941,7.9537,7.8809,7.8511,7.8511,7.8511,7.8511,7.8511,7.8188,7.7829,7.761,0.0,0.0,0.0,0.0,0.0,6.9449,6.9449,6.9045,6.8568,0.0,0.0,0.0,6.5925,6.5338,6.4861,6.464,6.4604,6.4457,6.4127,6.387,6.3943,6.442,6.42,6.4494,6.5301,6.5888,6.5693,6.4803,6.6189,6.6422,6.5663,6.8054,6.9176,6.9249,7.1024,7.2472,7.3631,7.4211,7.537,7.7,7.8593,8.0332,0.0,0.0,0.0,0.0,0.0,8.3338,8.3084,0.0,8.2106,8.1346,7.9752,7.939,7.9607,7.9825,8.0621,8.1563,8.2143,0.0,0.0,0.0,0.0,0.0,0.0,0.0,0.0,0.0,0.0,0.0,0.0,0.0,0.0,0.0,0.0,0.0,0.0,0.0,0.0,0.0,0.0,0.0,0.0,0.0,0.0,0.0,8.4137,8.335,8.2961,8.2682,8.2374,8.233,8.2368,8.2489,8.2883,8.2883,8.2883,8.2883,8.2353,8.1989,8.1757,8.0498,7.9802,7.9571,7.8842,7.8643,7.8809,7.861,7.8511,7.8511,7.8511,7.8511,7.8511,7.8188,7.7829,7.761,0.0,0.0,7.2679,7.2202,7.1835,7.1578,7.1578,7.1027,7.044,0.0,0.0,0.0,6.7577,6.6769,6.6182,6.5852,6.5815,6.5595,6.5118,6.4787,6.4897,6.5558,6.5264,6.5485,6.6292,6.6769,6.6755,6.6299,6.7247,6.7477,6.7148,6.8887,6.9684,6.9756,7.1313,7.2726,7.3957,7.479,7.5841,0.0,7.8738,0.0,0.0,8.3048,8.4207,0.0,0.0,0.0,8.446,8.4098,8.3012,0.0,0.0,7.9897,7.9897,7.9897,8.0476,8.1201,8.1672,8.2396,8.3193,8.399,0.0,0.0,0.0,0.0,0.0,0.0,0.0,0.0,0.0,0.0,0.0,0.0,0.0,0.0,0.0,0.0,0.0,0.0,0.0,0.0,0.0,0.0,0.0,0.0,8.3786,8.2581,8.1612,8.1248,8.1257,8.1604,8.1717,8.2156,8.2883,8.2883,8.2883,8.2883,8.2453,8.2088,8.1757,8.0598,7.9902,7.9571,7.8842,7.8511,7.8511,7.8511,7.8511,7.8511,7.8511,7.8403,7.8296,7.7938,7.7719,7.7454,0.0,0.0,7.4918,7.4918,7.4294,7.3817,7.3817,7.2642,7.1725,0.0,7.0991,7.0146,6.9265,6.8531,6.776,6.6953,6.688,6.6806,6.6623,6.5962,6.6145,6.7504,6.688,6.6916,6.7797,6.7834,6.8037,6.8523,6.8523,6.875,6.9213,7.0009,7.0444,7.0589,7.2038,7.3197,7.4102,7.4826,7.5623,7.6565,7.8195,7.9788,0.0,0.0,8.4497,0.0,8.5801,8.5801,8.5764,8.4968,8.3193,0.0,0.0,8.0042,8.0042,7.9933,8.0476,8.1128,8.1237,8.1817,8.2613,8.341,8.4243,0.0,0.0,0.0,0.0,0.0,0.0,0.0,0.0,0.0,0.0,0.0,0.0,0.0,0.0,0.0,0.0,0.0,0.0,0.0,0.0,0.0,8.495,8.4402,8.3321,8.1787,7.9835,7.9699,8.0129,8.1067,8.1101,8.1614,8.2883,8.2883,8.2883,8.2883,8.2817,8.2419,8.1757,8.1028,8.0299,7.9604,7.8941,7.861,7.8511,7.8511,7.8511,7.8511,7.8511,7.8296,7.8079,7.7719,7.7389,7.7297,7.4918,7.4918,7.4918,7.4918,7.4771,7.4661,7.4661,7.4404,7.4221,7.4221,7.3487,7.2422,7.0991,7.0697,7.0293,6.9449,6.9412,6.8862,6.754,6.732,6.7063,6.6733,6.6586,6.7173,6.8641,6.8678,6.8879,6.9362,6.9362,6.9295,6.9213,7.0009,7.0698,7.1313,7.2291,7.3523,7.4899,7.5044,0.0,7.7398,7.9028,0.0,8.2143,8.312,8.4497,8.5801,8.5149,8.533,8.5764,0.0,8.3953,8.2758,0.0,0.0,8.0766,8.0114,8.0476,8.1237,8.1889,8.265,8.3446,8.4243,8.5076,0.0,0.0,0.0,0.0,0.0,0.0,0.0,0.0,0.0,0.0,0.0,0.0,0.0,0.0,0.0,0.0,0.0,0.0,0.0,0.0,0.0,8.4757,8.4624,8.2767,8.0953,7.9526,7.9251,7.9708,8.1067,8.0883,8.1503,8.2883,8.2883,8.2883,8.2883,8.2287,8.1923,8.1757,8.1028,8.0299,7.9604,7.9471,7.9074,7.8511,7.8511,7.8511,7.8511,7.8511,7.8296,7.8079,7.7719,7.7389,7.7297,7.7268,7.7341,7.7341,7.7341,7.7341,7.7341,7.7341,7.6644,7.613,7.613,7.5395,7.4441,7.323,7.345,7.323,7.1982,7.1908,7.1211,6.9596,6.9486,6.9155,6.8311,6.8311,6.8678,6.9486,6.9486,6.9721,7.0201,7.0201,7.0241,7.0335,7.077,7.135,7.211,7.2545,7.3595,7.5116,7.5116,7.6275,7.8159,7.8992,0.0,8.236,8.3193,8.4497,8.5837,8.5438,8.5547,8.5764,8.4968,8.4424,0.0,0.0,8.2287,8.2215,8.1817,8.1708,8.178,8.2179,8.2287,8.2505,8.3301,8.3809,0.0,0.0,0.0,0.0,0.0,0.0,0.0,0.0,0.0,0.0,0.0,0.0,0.0,0.0,0.0,0.0,0.0,0.0,0.0,0.0,0.0,8.4065,8.3388,8.2002,8.0661,7.9535,7.9728,8.0152,8.0883,8.1138,8.179,8.2883,8.2883,8.2883,8.2883,8.2519,8.2353,8.232,8.1558,8.0829,8.0134,7.9769,7.9206,7.8511,7.8511,7.8403,7.8296,7.8296,7.8079,7.7894,7.7925,7.7721,7.7658,7.969,7.98,7.98,7.98,7.98,7.98,7.98,7.8662,7.7781,7.7781,7.7231,7.6497,7.5726,7.6203,7.5983,7.4515,7.4404,7.3707,7.2129,7.2018,7.1578,7.0587,7.055,7.055,7.055,7.055,7.0767,7.1099,7.1039,7.1187,7.1593,7.1675,7.2183,7.2943,7.3269,7.4102,7.537,7.5515,0.0,7.8702,0.0,8.0223,8.2613,8.341,8.4605,8.5909,8.5909,8.5909,8.5801,8.5149,8.4823,8.4569,8.3917,8.3591,0.0,8.3301,8.2794,8.2287,8.2287,8.1817,8.1527,8.2324,8.2505,8.2686,0.0,0.0,0.0,0.0,0.0,0.0,0.0,0.0,0.0,0.0,0.0,0.0,0.0,0.0,0.0,0.0,0.0,0.0,0.0,0.0,8.3052,8.1825,8.1357,8.0693,7.967,8.0299,8.0697,8.0697,8.1426,8.2154,8.2883,8.2883,8.2883,8.2883,8.2883,8.2817,8.2651,8.2055,8.1326,8.0465,7.9869,7.9206,7.8511,7.8511,7.8296,7.8079,7.8079,7.7927,7.7794,7.8159,7.8145,7.8208,7.991,7.98,7.98,7.98,7.98,7.98,7.98,7.9617,7.9507,7.9507,7.9433,7.9066,7.8259,7.8259,7.7928,7.6974,7.69,0.0,7.4625,0.0,7.3817,7.2275,7.2239,7.2239,7.2239,7.2239,7.2218,7.2153,7.1938,7.183,7.1755,7.2318,7.3016,7.3849,7.5261,7.5985,7.6203,0.0,7.7796,0.0,7.8702,8.0549,0.0,8.4243,8.5112,8.5909,8.5909,8.5909,8.5873,0.0,8.5293,8.4678,0.0,8.4062,8.3338,8.265,8.236,8.2287,8.2287,8.2215,8.236,8.3157,8.3338,8.3374,0.0,0.0,8.3519,0.0,0.0,0.0,0.0,0.0,0.0,0.0,0.0,0.0,0.0,0.0,0.0,0.0,0.0,0.0,0.0,0.0,0.0,8.0979,8.109,8.0726,7.967,8.0299,8.0697,8.0697,8.1426,8.2154,8.2883,8.2883,8.2883,8.2883,8.2883,8.2552,8.1923,8.1823,8.1028,7.9736,7.967,7.9206,7.8511,7.8511,7.8296,7.8079,7.8079,7.8146,7.8289,7.8242,7.847,7.8888,8.1269,8.1195,8.1195,8.1195,8.1195,8.1195,8.1195,8.0791,8.0314,7.9837,8.0204,8.0167,7.936,8.0131,8.0351,7.9543,0.0,0.0,0.0,0.0,7.679,7.4698,7.4588,7.4147,7.323,7.3193,7.2856,7.2144,7.2024,7.1903,7.1656,7.2327,7.3124,7.3993,7.5587,7.6565,7.7036,0.0,7.8666,0.0,0.0,0.0,0.0,8.3881,8.4786,8.5909,8.5909,8.5909,8.5909,0.0,8.5692,0.0,0.0,0.0,8.4823,8.4497,8.37,8.2976,8.2976,8.2287,8.1672,8.2034,8.2106,8.2106,8.2106,0.0,8.236,0.0,0.0,0.0,0.0,0.0,0.0,0.0,8.4497,0.0,0.0,0.0,0.0,0.0,0.0,0.0,0.0,0.0,0.0,0.0,0.0,8.1138,8.0299,8.1326,8.179,8.1326,8.2055,8.2585,8.2883,8.2883,8.2883,8.2883,8.2453,8.2088,8.179,8.1359,8.0598,7.9637,7.9637,7.9206,7.8511,7.8511,7.8188,7.7829,7.7829,7.7957,7.8339,7.8535,7.9004,7.9633,8.2186,8.2186,8.2186,8.2186,8.2186,8.2186,8.2186,8.1709,8.1122,8.0534,8.0975,8.1195,8.0828,8.1819,8.237,8.2039,8.2517,8.215,0.0,0.0,7.9433,7.7194,7.7121,0.0,7.4735,7.4698,7.4066,7.2705,7.2681,7.2496,7.2246,7.2979,7.3667,7.4319,7.613,7.7289,7.7905,0.0,7.9825,8.0621,8.1201,8.2396,8.3845,8.4062,8.4859,8.5909,8.5909,8.5909,8.5909,8.5909,8.5909,0.0,8.5909,8.5909,8.5873,8.5619,8.475,8.3772,8.3555,8.265,8.1708,8.1491,0.0,0.0,0.0,0.0,0.0,0.0,0.0,0.0,0.0,0.0,0.0,0.0,0.0,8.3155,0.0,0.0,0.0,0.0,0.0,0.0,0.0,0.0,0.0,0.0,0.0,0.0,8.0432,8.1591,8.1956,8.1227,8.2121,8.2585,8.2585,8.2784,8.2883,8.2883,8.2154,8.1691,8.1459,8.073,8.0001,7.9339,7.9339,7.9007,7.8511,7.8403,7.8079,7.761,7.7499,7.7865,7.8519,7.8809,7.9471,8.0345,8.2186,8.2186,8.2186,8.2186,8.2186,8.2186,8.2186,8.2186,8.215,8.2113,0.0,0.0,0.0,0.0,0.0,0.0,0.0,8.3838,8.2223,0.0,8.1379,0.0,0.0,7.8883,0.0,7.7194,7.6301,7.4604,7.442,7.4296,7.4142,7.4747,7.5044,7.5189,7.7579,7.8629,7.8774,8.0368,8.1491,8.2215,8.2215,8.3229,8.475,0.0,8.5873,8.5909,8.5909,0.0,0.0,8.5909,8.5909,0.0,0.0,0.0,0.0,0.0,8.4678,8.4497,0.0,0.0,0.0,8.2432,0.0,0.0,0.0,0.0,8.2251,0.0,0.0,0.0,0.0,8.3519,8.3519,8.3483,0.0,0.0,0.0,0.0,0.0,0.0,0.0,0.0,0.0,0.0,0.0,0.0,0.0,0.0,7.967,8.0366,8.0432,7.9703,8.1094,8.1823,8.1823,8.2552,8.2883,8.2883,8.2154,8.1426,8.0697,7.9968,7.9239,7.8544,7.8544,7.8544,7.8511,7.8188,7.7938,7.761,7.7311,7.7853,7.8856,7.8888,7.9795,8.0993,8.2186,8.2186,8.2186,8.2186,8.2186,8.2186,8.2186,8.2663,0.0,0.0,0.0,0.0,0.0,0.0,8.5086,0.0,0.0,8.5747,8.4646,8.4572,0.0,0.0,0.0,8.0608,0.0,7.7892,7.6668,7.526,7.4686,7.4306,7.3986,7.4754,7.5116,7.5225,7.7615,7.8992,0.0,0.0,0.0,0.0,0.0,8.4533,8.5511,0.0,0.0,8.5909,8.5909,8.5909,0.0,8.5909,8.5909,8.5909,8.5909,8.5909,8.5837,8.5583,8.5112,0.0,0.0,0.0,8.341,8.3157,0.0,0.0,0.0,0.0,0.0,0.0,0.0,0.0,0.0,8.3845,8.3301,8.2758,8.2034,0.0,0.0,0.0,0.0,0.0,0.0,0.0,0.0,0.0,0.0,0.0,0.0,0.0,0.0,8.0763,8.1094,8.0366,8.0796,8.1061,8.1061,8.179,8.1923,8.1426,8.1194,8.0697,7.9968,7.9239,7.8776,7.8511,7.8511,7.8511,7.8511,7.8188,7.7938,7.761,7.7311,7.7853,7.8888,7.8888,7.9795,8.1025,8.272,8.2692,8.2627,8.2627,8.2847,8.303,8.303,8.3508,0.0,0.0,8.4278,0.0,8.5013,0.0,8.593,0.0,8.6701,8.6664,8.5857,8.5783,0.0,8.3875,8.3324,0.0,0.0,0.0,7.818,7.6437,7.5926,7.5334,7.4754,7.5297,7.5551,7.5623,7.776,7.9318,8.044,8.2034,8.3338,0.0,0.0,8.5438,0.0,0.0,8.5909,8.5909,0.0,8.5909,8.5909,8.5909,8.5909,8.5909,8.5909,8.5909,8.5909,8.5909,8.5511,8.5112,8.5112,8.475,0.0,8.399,8.3917,0.0,8.3555,0.0,8.4062,0.0,0.0,0.0,0.0,0.0,8.3229,8.2396,8.1635,8.0948,0.0,8.056,0.0,0.0,0.0,0.0,0.0,0.0,0.0,0.0,0.0,0.0,0.0,0.0,8.0399,7.9935,8.0167,8.0299,8.0299,8.1293,8.1426,8.0697,8.0697,8.0299,7.9604,7.8875,7.8511,7.8511,7.8511,7.8403,7.8296,7.8079,7.7719,7.7422,7.746,7.808,7.8888,7.8888,7.9795,8.1025,8.3724,8.3603,8.3544,8.3544,8.4132,0.0,0.0,0.0,8.4646,0.0,8.4682,8.5013,8.5783,8.5857,8.6151,8.6921,8.6995,0.0,8.5894,8.5857,0.0,0.0,8.4682,8.3948,8.2406,0.0,0.0,7.8151,7.8041,7.7407,7.6348,7.6311,7.6275,7.6348,7.7977,7.9607,8.1237,8.2794,8.446,8.5945,8.5909,8.5909,8.5945,8.5909,0.0,8.5909,8.5909,8.5909,8.5909,8.5945,8.5945,8.5945,8.5945,8.5945,8.5945,8.5909,8.5909,8.5909,8.5909,8.5909,8.5728,8.4931,0.0,0.0,0.0,0.0,8.4859,0.0,0.0,0.0,0.0,0.0,0.0,8.2468,8.1635,8.0948,0.0,0.0,0.0,0.0,0.0,0.0,0.0,0.0,0.0,0.0,0.0,0.0,0.0,0.0,0.0,7.8511,7.9206,7.9571,7.9571,8.1028,8.1359,8.0598,8.0664,8.0299,7.9537,7.8842,7.8511,7.8511,7.8511,7.8296,7.8079,7.7719,7.7389,7.7265,7.7642,7.8273,7.8953,7.8985,7.9859,8.1025,8.4608,8.4889,8.5159,8.5159,8.4866,8.4609,0.0,0.0,0.0,0.0,8.6004,8.6481,8.6664,8.6701,8.6775,8.6995,8.6995,0.0,0.0,0.0,0.0,8.6407,8.582,8.5306,8.4866,8.3104,0.0,8.074,7.888,7.7698,7.7181,7.6565,7.6275,7.6348,7.7977,7.9607,8.1237,8.2794,8.475,8.667,8.6126,8.6235,0.0,0.0,8.5909,8.5909,8.5909,8.5909,8.5982,8.6525,8.6742,8.6742,8.6742,8.6742,8.6634,8.6054,8.5909,8.5909,8.5909,8.5909,8.5837,8.5619,8.6018,8.6235,0.0,0.0,0.0,0.0,0.0,0.0,0.0,0.0,0.0,0.0,8.1779,0.0,0.0,0.0,0.0,0.0,0.0,0.0,0.0,0.0,0.0,0.0,0.0,0.0,0.0,0.0,0.0,7.8544,7.8709,7.8809,7.8809,8.0233,8.0332,7.9107,8.0167,8.0034,7.8809,7.861,7.8511,7.8511,7.8511,7.8296,7.8079,7.7719,7.7389,7.7265,7.7642,7.8596,7.9762,8.028,8.0701,8.0906,8.5805,8.6082,8.647,8.647,0.0,0.0,8.5845,0.0,0.0,8.6568,8.6973,0.0,8.7132,8.7169,8.71,8.7031,8.7325,0.0,0.0,0.0,0.0,8.8059,8.7619,8.7215,8.6848,8.5159,0.0,8.2199,0.0,7.9044,7.8014,7.7543,7.7362,7.7398,7.8666,8.0114,8.178,8.4062,8.5801,8.6996,8.6923,0.0,0.0,8.6561,8.6199,8.5909,8.5909,8.5909,8.6018,8.6778,8.7032,8.7068,8.743,8.7539,8.7467,8.7032,8.667,8.638,8.638,8.6163,8.5909,8.5909,8.6452,8.6887,8.6489,8.7322,8.8082,0.0,0.0,0.0,0.0,0.0,0.0,0.0,0.0,0.0,0.0,0.0,0.0,0.0,0.0,0.0,0.0,0.0,0.0,0.0,0.0,0.0,0.0,0.0,0.0,7.8544,7.8511,7.8676,7.9007,8.0134,8.0134,7.9007,8.0134,7.9935,7.8511,7.8511,7.8511,7.8511,7.8511,7.8296,7.7829,7.7719,7.7389,7.7106,7.7998,7.9147,8.0475,8.0896,8.1025,8.0906,8.7031,8.7184,8.7372,8.7372,0.0,0.0,0.0,8.7821,0.0,8.7924,0.0,8.7895,8.7734,8.7667,8.7531,0.0,0.0,8.8353,8.8353,8.9014,8.9417,8.9417,8.9417,8.9087,8.839,8.7472,0.0,0.0,0.0,8.075,7.8847,7.8738,7.8702,7.8738,7.9535,8.0839,8.265,8.5728,8.7068,8.7249,8.7937,8.7865,8.7322,8.7213,8.6706,8.6054,8.6054,8.5982,8.6018,8.6778,8.7104,8.7285,8.801,8.83,8.8372,8.8263,8.772,8.7177,8.7177,8.6634,8.6054,8.6163,8.6706,8.7177,8.7177,8.7865,8.8517,8.8408,8.8444,8.8263,0.0,0.0,0.0,0.0,0.0,0.0,0.0,0.0,0.0,0.0,0.0,0.0,0.0,0.0,0.0,0.0,0.0,0.0,0.0,0.0,0.0,7.8511,7.861,0.0,7.9604,0.0,8.0465,7.9769,8.0399,7.9968,7.8676,7.8577,7.8511,7.8511,7.8403,7.8188,7.761,7.761,7.7343,7.7074,7.837,7.9698,8.0896,8.0993,8.1025,8.0906,8.7761,8.7655,8.773,8.773,0.0,8.9411,8.9467,8.9845,9.0168,9.0255,9.023,0.0,8.9989,8.9662,8.9498,8.9256,8.9194,0.0,0.0,0.0,0.0,8.9417,8.9417,8.9344,8.9197,8.7766,8.6273,0.0,0.0,8.0972,7.968,7.9028,7.8702,7.8738,7.9535,8.1165,8.3446,8.5945,0.0,8.801,8.8155,8.8517,8.8915,8.8263,8.7503,8.6815,8.6815,8.6416,8.6018,8.6778,8.7467,8.8046,8.8191,8.8662,8.906,8.8408,8.8118,8.801,8.801,8.743,8.6996,8.7648,8.7901,8.801,8.801,8.9133,9.0002,8.9314,8.9712,8.9748,8.8263,0.0,0.0,0.0,0.0,0.0,0.0,0.0,0.0,0.0,0.0,0.0,0.0,0.0,0.0,0.0,0.0,0.0,0.0,0.0,0.0,0.0,0.0,0.0,0.0,0.0,8.1227,8.0498,8.0631,8.0266,7.9405,7.8809,7.8511,7.8511,7.8296,7.7938,7.761,7.7422,7.7446,7.7722,7.8564,7.9406,8.0216,8.0831,8.1025,8.0906,8.8256,8.8171,8.8282,0.0,0.0,0.0,0.0,9.2335,0.0,9.1489,9.1242,9.1066,9.074,9.0424,9.0032,8.973,8.9926,9.0041,9.0041,9.0408,9.0629,9.0629,9.0629,0.0,9.0629,8.9491,8.8067,8.6538,0.0,8.2718,8.1128,8.0332,7.9933,8.0006,8.1201,8.2867,8.4859,0.0,0.0,8.8879,8.9277,8.9422,8.935,8.8988,8.8336,8.7648,8.7648,8.7141,8.6525,8.6887,8.7285,8.7756,8.8553,8.9096,8.9422,8.9459,8.9169,8.8734,8.8336,8.7648,8.7032,8.7032,8.7611,8.8227,8.8227,8.9133,8.9966,9.0002,9.0002,8.9495,8.7901,8.6018,0.0,0.0,0.0,0.0,0.0,0.0,0.0,0.0,0.0,0.0,0.0,0.0,0.0,0.0,0.0,0.0,0.0,0.0,0.0,0.0,0.0,0.0,0.0,0.0,0.0,8.126,8.0863,8.0299,7.9604,7.8875,7.8403,7.8296,7.8188,7.7862,7.7389,7.7088,7.7285,7.7852,7.8208,7.8985,8.0021,8.0345,8.0701,8.0906,8.901,8.8933,0.0,0.0,9.098,0.0,0.0,9.4276,9.4351,9.2692,9.2382,9.2109,9.1708,9.1224,9.0778,9.0384,9.0625,9.0849,9.0849,9.1436,9.1803,9.1803,9.1803,9.1803,9.1803,9.1033,8.9678,0.0,0.0,0.0,8.236,8.1491,8.1201,8.1454,8.3229,0.0,0.0,0.0,8.8843,8.9459,9.0292,9.0219,8.964,8.964,8.9169,8.8481,8.8481,8.7974,8.7285,8.7285,8.7285,8.7503,8.877,8.9386,8.9785,9.04,9.0147,8.9531,8.8879,8.801,8.7177,8.6742,8.7322,8.801,8.8191,8.8698,8.9314,8.9966,8.9603,8.8807,8.772,8.6634,0.0,0.0,0.0,0.0,0.0,0.0,0.0,0.0,0.0,0.0,0.0,0.0,0.0,0.0,0.0,0.0,0.0,0.0,0.0,0.0,0.0,7.9372,8.0664,0.0,8.1128,0.0,8.0962,8.0233,7.9836,7.8941,7.8296,7.8079,7.8079,7.7642,7.7088,7.6896,7.7107,7.7593,7.7754,7.8596,7.9762,7.9924,8.041,8.0786,0.0,0.0,0.0,0.0,0.0,0.0,0.0,9.4744,9.5248,9.4915,9.4668,9.4372,9.4009,9.3312,9.2719,9.2461,9.1944,9.1693,9.1693,9.1767,9.1803,9.1803,9.1803,9.1803,9.1803,9.1033,8.975,0.0,0.0,8.4389,8.2574,8.1562,8.1491,8.2287,8.4605,0.0,0.0,8.83,8.9314,8.9459,9.0292,9.0545,9.0473,9.0473,9.0002,8.9277,8.9277,8.877,8.8118,8.8118,8.8118,8.8118,8.8263,8.9314,9.0509,9.0581,9.0545,9.0473,9.04,8.9277,8.8263,8.8915,8.8082,8.7322,8.8046,8.8263,8.8336,8.8444,8.8372,8.8517,8.906,8.7358,8.5837,0.0,0.0,0.0,0.0,0.0,8.2183,8.2183,0.0,0.0,0.0,0.0,0.0,0.0,7.6905,0.0,0.0,0.0,0.0,7.8511,0.0,7.9902,8.0697,8.0697,0.0,8.2784,8.0697,8.0034,8.0531,7.914,7.8296,7.8079,7.7719,7.7311,7.6783,7.6783,7.6848,7.6945,7.756,7.8305,7.9082,7.973,8.0173,8.0545,0.0,0.0,0.0,0.0,0.0,0.0,0.0,9.5142,9.5417,9.5463,9.5191,9.4857,9.4454,9.368,9.3099,9.2751,9.2162,9.1803,9.1803,9.1803,9.1803,9.1803,9.1803,9.1803,9.1803,9.1473,9.0703,0.0,0.0,0.0,0.0,8.323,8.3229,8.4497,0.0,8.7104,8.8046,8.8988,8.9676,9.0147,9.0473,9.0581,9.0581,9.0581,9.04,9.011,9.011,8.9603,8.8915,8.8915,8.8626,8.83,8.877,8.935,8.9966,9.0473,9.0581,9.0473,9.0002,8.9422,8.877,8.8118,8.7865,8.7684,8.7539,8.7503,8.7648,8.8118,8.8589,8.8879,8.8734,8.7937,8.7064,0.0,0.0,0.0,0.0,0.0,0.0,8.3646,0.0,8.2369,0.0,0.0,0.0,0.0,0.0,0.0,0.0,0.0,0.0,7.8511,0.0,7.9537,8.0664,8.0266,8.0995,8.2883,8.0664,8.0001,8.0631,7.9173,7.8296,7.7719,7.7311,7.7008,7.6783,7.6783,7.6783,7.6815,7.7107,7.7884,7.892,7.9212,7.9785,8.0424,9.2975,0.0,9.3231,0.0,9.4258,9.4544,9.5341,9.5463,9.5509,9.5598,9.5371,9.5045,9.4613,9.3856,9.3125,9.2781,9.2162,9.1803,9.1803,9.1803,9.1803,9.1803,9.1803,0.0,9.1803,9.1803,9.1327,9.0411,8.8911,0.0,0.0,8.5189,0.0,0.0,8.7285,8.8336,8.9422,8.964,9.0074,9.0581,9.0581,9.0581,9.0581,9.0581,9.0581,9.0581,9.0581,9.0219,8.9748,8.9748,8.9386,8.8988,8.9314,8.9567,8.9857,9.0436,9.0581,9.0473,8.9893,8.9567,8.9133,8.801,8.7793,8.772,8.7141,8.6851,8.6923,8.772,8.83,8.8662,8.8589,8.8294,8.789,8.7155,0.0,0.0,0.0,8.4773,0.0,8.461,8.411,8.3187,8.186,0.0,0.0,0.0,0.0,0.0,0.0,0.0,0.0,0.0,0.0,0.0,0.0,7.9769,8.0531,8.2883,8.0664,8.0101,8.0962,7.9287,7.8168,7.7499,7.7008,7.6783,7.6783,7.6783,7.6783,7.6783,7.6783,7.7657,7.8888,7.8772,7.9441,8.0303,9.4006,9.4067,9.4287,9.5219,9.5379,9.5463,9.5598,9.5598,9.5598,9.5598,9.5371,9.5094,9.4844,9.3914,9.3189,9.2914,9.2196,9.1803,9.1803,9.1803,9.1803,0.0,0.0,9.1803,9.1803,9.1803,9.14,9.0629,0.0,0.0,8.7559,8.7112,8.6996,8.7068,8.8662,8.9386,8.9459,9.0255,9.0581,9.0581,9.0581,9.0581,9.0581,9.0581,9.0581,9.0581,9.0581,9.0581,9.0581,9.0581,9.0581,9.0436,8.964,8.9929,9.0581,9.0581,9.0581,9.0581,9.0581,9.0002,8.9386,8.9386,8.8191,8.7032,8.7032,8.6452,8.6126,8.6887,8.7032,8.7539,8.9096,8.8577,8.7877,8.7877,0.0,0.0,0.0,8.4773,0.0,8.461,8.461,8.4124,8.2926,0.0,0.0,0.0,0.0,0.0,0.0,0.0,0.0,7.8511,7.8511,0.0,8.0664,7.9272,8.0001,8.2883,8.0664,8.0399,8.1724,7.9681,7.8186,7.7199,7.6896,7.6783,7.6783,7.6783,7.6783,7.6783,7.6783,7.7657,7.8888,7.8538,7.9115,8.0123,9.5096,9.5127,9.5203,9.5516,9.5554,9.5554,9.5598,9.5598,9.5598,9.5598,9.5371,9.5143,9.4946,9.4067,9.3352,0.0,9.2373,9.1948,0.0,9.1803,9.1803,9.1803,9.1803,9.1803,9.1803,9.1803,9.1657,9.1436,0.0,0.0,0.0,8.8527,8.8626,8.8698,8.9748,9.0219,9.0219,9.0473,9.0581,9.0581,9.0581,9.0581,9.0581,9.0581,9.0581,9.0581,9.0581,9.0581,9.0581,9.0581,9.0581,9.0545,9.0292,9.04,9.0581,9.0581,9.0581,9.0581,9.0581,9.04,9.0074,8.9531,8.9024,8.8372,8.7249,8.6452,8.5982,8.6199,8.667,8.7177,8.7684,8.7854,8.7653,8.7033,8.6424,0.0,0.0,0.0,8.461,8.461,8.461,8.4041,0.0,8.1839,0.0,0.0,0.0,0.0,0.0,0.0,0.0,0.0,7.8511,0.0,7.9968,7.9007,7.9736,8.2121,8.0432,7.9991,8.0662,7.9866,7.8939,7.7949,7.7609,7.7236,7.6783,7.6783,7.6783,7.6783,7.6783,7.7657,7.8888,7.8538,7.9083,7.9969,9.5598,9.5598,9.5598,9.5598,9.5598,9.5598,9.5598,9.5598,9.5598,9.5598,9.5417,9.5191,9.5094,9.4438,0.0,9.3173,9.2579,9.2091,9.1948,9.1876,9.1803,9.1803,9.1803,9.1803,9.1803,0.0,0.0,9.1803,9.1107,9.0222,8.9407,8.9682,8.9857,8.9857,9.0364,9.0581,9.0581,9.0581,9.0581,9.0581,9.0581,9.0581,9.0581,9.0581,9.0581,9.0581,9.0581,9.0581,9.0581,9.0581,9.0581,9.0581,9.0581,9.0581,9.0581,9.0581,9.0581,9.0581,9.0581,9.0581,9.0473,8.9966,8.9603,8.906,8.7756,8.7104,8.667,8.638,8.6706,8.7032,8.6919,8.7119,8.7141,8.6397,8.6082,8.5667,8.4717,0.0,8.461,0.0,0.0,0.0,0.0,8.2348,0.0,0.0,0.0,0.0,0.0,0.0,0.0,7.8511,7.8511,0.0,7.9604,7.8875,7.9637,8.179,8.105,8.0596,8.0391,8.0198,7.9464,7.8437,7.8031,7.756,7.7172,7.6912,7.6783,7.6783,7.6783,7.7381,7.8268,7.7917,7.8419,7.9048,9.5598,9.5598,0.0,0.0,9.5598,0.0,9.5598,9.5598,9.5598,9.5598,9.5509,9.5371,9.5191,9.4844,9.4311,9.355,0.0,0.0,0.0,9.1948,9.1803,9.1803,9.1803,9.1803,9.1803,9.1803,9.1803,9.1803,9.1433,9.113,9.0897,9.0661,9.0581,9.0581,9.0581,9.0581,9.0581,9.0581,9.0581,9.0581,9.0581,9.0581,9.0581,9.0581,9.0581,9.0581,9.0581,9.0581,9.0581,9.0581,9.0581,9.0581,9.0581,9.0581,9.0581,9.0581,9.0581,9.0581,9.0581,9.0581,9.0581,9.0581,9.0002,8.9205,8.8481,8.8263,8.801,8.7249,8.7104,8.6991,8.68,8.66,8.6361,8.6091,8.5918,8.5538,8.4717,8.461,8.461,0.0,0.0,0.0,0.0,8.3472,8.2447,0.0,0.0,0.0,0.0,0.0,7.7815,7.8511,7.8511,7.8842,7.9537,7.8875,7.9604,8.1724,8.2147,8.1951,8.0951,8.0605,7.9983,7.892,7.824,7.7916,7.7754,7.7139,7.6848,7.6783,7.6783,7.7008,7.739,7.7041,7.7102,7.7347,0.0,0.0,9.5598,9.5598,9.5598,9.5598,9.5598,9.5598,9.5598,9.5598,9.5509,9.5417,9.5371,9.5094,9.4741,9.4366,9.355,9.2818,9.2373,9.2162,9.1948,9.1803,9.1803,9.1803,9.1803,9.1803,9.173,9.1583,9.1358,9.113,9.0897,9.0661,9.0581,9.0581,9.0581,9.0581,9.0581,9.0581,9.0581,9.0581,9.0581,9.0581,9.0581,9.0581,9.0581,9.0581,9.0581,9.0581,9.0581,9.0581,9.0581,9.0581,9.0581,9.0581,9.0581,9.0581,9.0581,9.0581,9.0581,9.0581,9.0581,9.0581,9.0002,8.935,8.9169,8.8662,8.8155,8.7974,8.7937,8.7679,8.6872,8.7069,8.6828,8.5446,8.556,8.5538,8.4717,8.461,8.461,0.0,8.461,8.4326,8.3697,8.335,8.2565,0.0,0.0,0.0,0.0,7.8669,7.8525,7.8511,7.8511,7.861,7.8776,7.861,7.9339,8.0962,8.1916,8.2215,8.1705,8.1356,8.0731,7.9698,7.9536,7.8823,7.7787,7.7625,7.7269,7.6783,7.6783,7.7008,7.739,7.7041,7.6983,7.6983,9.5598,9.5598,9.5598,9.5598,9.5598,9.5598,9.5598,9.5598,9.5598,9.5598,9.5554,9.5509,9.5509,9.5324,9.5235,9.5362,9.4215,9.3263,9.2647,9.2373,9.2091,9.1803,9.1803,9.1803,9.1803,9.1803,9.1657,9.1358,9.1206,9.0975,9.074,9.0661,9.0581,9.0581,9.0581,9.0581,9.0581,9.0581,9.0581,9.0581,9.0581,9.0581,9.0581,9.0581,9.0581,9.0581,9.0581,9.0581,9.0581,9.0581,9.0581,9.0581,9.0581,9.0581,9.0581,9.0581,9.0581,9.0581,9.0581,9.0581,9.0581,9.0581,9.0255,8.9929,8.9929,8.9603,8.9205,8.8843,8.8692,8.8281,8.7328,8.7016,8.6522,8.5535,8.5299,8.5109,8.4681,8.461,0.0,8.461,8.461,8.4445,8.3904,8.3646,8.2996,8.1672,0.0,0.0,7.9355,7.9146,7.8936,7.8511,7.8511,7.8511,7.8511,7.9173,7.9793,8.0476,8.159,8.2083,8.1734,8.1381,8.0917,8.0442,8.0119,7.9341,7.8273,7.7949,7.7398,7.6783,7.667,7.6668,7.6644,7.6326,7.6077,7.5672,9.5598,9.5598,9.5598,9.5598,9.5598,9.5598,9.5598,9.5598,9.5598,9.5598,9.5598,9.5598,9.5598,9.5509,9.5667,9.6261,9.5004,9.3882,9.3379,9.3017,9.2565,9.206,9.1987,9.1913,9.1803,9.1803,9.1583,9.1206,9.1053,9.0819,9.0581,9.0581,9.0581,9.0581,9.0581,9.0581,9.0581,9.0581,9.0581,9.0581,9.0581,9.0581,9.0581,9.0581,9.0581,9.0581,9.0581,9.0581,9.0581,9.0581,9.0581,9.0581,9.0581,9.0581,9.0581,9.0581,9.0581,9.0581,9.0581,9.0581,9.0581,9.0581,9.0509,9.04,9.04,9.0328,9.0074,8.9531,8.9264,8.8807,8.7915,8.707,8.6286,8.5823,8.5252,8.4753,8.4646,0.0,8.461,8.461,8.461,8.4527,8.4278,8.4074,8.3524,8.2509,8.1955,8.1097,0.0,7.9492,7.9008,7.8378,7.8444,7.8511,7.8511,7.9836,8.0454,8.0221,8.1263,8.1752,8.1467,8.1144,8.1025,8.0993,8.041,7.973,7.8985,7.8273,7.756,7.6945,7.6442,7.6066,7.5803,7.5401,7.4897,7.4178,9.5598,9.5598,9.5598,9.5598,9.5598,9.5598,9.5598,9.5598,9.5598,9.5598,9.5598,9.5598,9.5598,9.5598,9.5807,9.6447,9.5944,9.5593,9.5443,9.4994,9.4216,9.3196,9.2978,9.2537,9.1803,9.1803,9.1583,9.1206,9.1206,9.0975,9.0581,9.0581,9.0581,9.0581,9.0581,9.0581,9.0581,9.0581,9.0581,9.0581,9.0581,9.0581,9.0581,9.0581,9.0581,9.0581,9.0581,9.0581,9.0581,9.0581,9.0581,9.0581,9.0581,9.0581,9.0581,9.0581,9.0581,9.0581,9.0581,9.0581,9.0581,9.0581,9.0074,8.9567,8.9567,8.906,8.8734,8.9277,8.9264,8.8987,8.8634,8.8362,8.7574,8.6002,8.5716,8.5395,8.4717,0.0,8.461,8.461,8.461,8.4527,8.4278,8.4074,8.3524,8.2509,8.1955,8.1097,7.9904,7.9492,7.8879,7.7616,7.8212,7.8511,7.8511,7.9372,7.9958,8.0221,8.0738,8.1262,8.1467,8.1144,8.1025,8.1025,8.0928,8.0475,7.973,7.9017,7.8305,7.7593,7.6636,7.6066,7.5687,7.5134,7.4388,7.3478,9.5598,9.5598,9.5598,9.5598,9.5598,9.5598,9.5598,9.5598,9.5598,9.5598,9.5598,9.5598,9.5598,9.5598,9.6043,9.7056,9.6882,9.6931,9.7317,9.605,9.4837,9.4043,9.3897,9.3565,9.3161,9.2647,9.2167,9.1863,9.1348,9.0897,9.0581,9.0581,9.0581,9.0581,9.0581,9.0581,9.0581,9.0581,9.0581,9.0581,9.0581,9.0581,9.0581,9.0581,9.0581,9.0581,9.0581,9.0581,9.0581,9.0581,9.0581,9.0509,9.0074,9.0255,9.0509,9.0074,9.0255,9.0509,9.0074,8.9929,8.9857,8.9422,8.9024,8.877,8.877,8.8481,8.8258,8.8541,8.8815,8.886,8.8732,8.8088,8.7383,8.6501,8.5716,0.0,8.4646,8.461,8.461,8.461,8.461,8.4527,8.4445,8.4278,8.3733,8.2691,8.2014,8.1097,7.9904,7.9355,7.8802,7.8014,7.7947,7.8113,7.8511,7.9131,7.9529,8.003,8.0411,8.0783,8.1263,8.1025,8.1025,8.1025,8.1025,8.0637,7.9957,7.96,7.8707,7.7589,7.6856,7.6155,7.5486,7.4897,7.4147,7.3324,9.5598,9.5598,9.5598,9.5598,9.5598,9.5598,9.5598,9.5598,9.5598,9.5598,9.5598,9.5598,9.5598,9.5598,9.6081,9.7285,9.7148,9.7271,9.7967,9.6452,9.5351,9.489,9.4484,9.4299,9.4299,9.3526,9.2896,9.241,9.1635,9.1,9.0581,9.0581,9.0581,9.0581,9.0581,9.0581,9.0581,9.0581,9.0581,9.0581,9.0581,9.0581,9.0581,9.0581,9.0581,9.0581,9.0581,9.0581,9.0581,9.0581,9.0581,9.0473,8.964,8.9821,9.0183,8.9567,8.9821,9.0183,8.9567,8.9241,8.8988,8.8372,8.8082,8.7937,8.7937,8.7793,8.7643,8.7667,8.7969,8.8229,8.8243,8.7491,8.6858,8.668,0.0,8.4824,8.4646,8.461,8.461,8.461,8.461,8.461,8.461,8.4278,8.3733,8.2906,8.192,8.0966,7.9904,7.9251,7.883,7.8511,7.798,7.7947,7.8403,7.8749,7.9077,7.9495,7.992,8.0405,8.0799,8.0961,8.1025,8.1025,8.1025,8.0734,8.0216,8.0021,7.9224,7.7841,7.7137,7.6337,7.5387,7.4602,7.3783,7.3046,9.5598,9.5598,9.5598,9.5598,9.5598,9.5598,9.5598,9.5598,9.5598,9.5598,9.5598,9.5598,9.5598,9.5598,9.5891,9.6523,9.6312,9.6138,9.6281,9.6377,9.624,9.57,9.4853,9.4299,9.4299,9.4226,9.3597,9.241,9.2337,9.1703,9.0581,9.0581,9.0581,9.0581,9.0581,9.0581,9.0581,9.0581,9.0581,9.0581,9.0581,9.0581,9.0581,9.0581,9.0581,9.0581,9.0581,9.0581,9.0581,9.0581,9.0581,9.0473,8.964,8.9422,8.9459,8.9422,8.9422,8.9459,8.9422,8.8879,8.83,8.8227,8.7648,8.7104,8.7104,8.6561,8.6195,8.6728,8.6708,8.672,8.7311,8.7133,8.668,8.6002,0.0,0.0,8.4717,8.461,8.461,8.461,8.461,8.461,8.461,8.3954,8.3314,8.2816,8.1672,8.0641,7.9801,7.9251,7.883,7.8511,7.8477,7.837,7.8188,7.8112,7.8322,7.8372,7.9056,7.9657,8.0086,8.0734,8.1025,8.1025,8.1025,8.0993,8.0896,8.0248,7.9774,7.9193,7.7521,7.6505,7.5662,7.4397,7.3293,7.2357,9.5713,9.5598,9.5598,9.5598,9.5598,9.5598,9.5598,9.5598,9.5598,9.5598,9.5598,9.5598,9.5598,9.5598,9.5852,9.6447,9.6199,9.5969,9.5932,9.5827,9.5981,9.636,9.6027,9.5804,9.5804,9.5138,9.4582,9.3905,9.2727,9.1951,9.1342,9.0835,9.0581,9.0581,9.0581,9.0581,9.0581,9.0581,9.0581,9.0581,9.0581,9.0581,9.0581,9.0581,9.0581,9.0581,9.0581,9.0581,9.0581,9.0581,9.0255,8.9712,8.8915,8.8662,8.877,8.9241,8.906,8.8662,8.8662,8.8082,8.7358,8.6887,8.6561,8.6308,8.6308,8.5978,8.568,8.5736,8.5966,8.6271,8.6347,8.6299,8.6144,8.5859,0.0,8.4967,8.4646,8.461,8.461,8.461,8.461,8.461,8.461,8.4074,8.3437,8.26,8.1578,8.0542,7.9596,7.9369,7.9115,7.8544,7.8974,7.8866,7.8079,7.7829,7.8003,7.8307,7.8307,7.8939,7.9989,8.0248,8.0604,8.1025,8.1025,8.1025,8.0993,8.0734,8.0021,7.918,7.8515,7.7182,7.5546,7.4807,7.3664,7.2326,9.6133,9.5789,9.5598,9.5598,9.5598,9.5598,9.5598,9.5598,9.5598,9.5598,9.5598,9.5598,9.5598,9.5598,9.5738,9.6029,9.5819,9.544,9.5021,9.4771,9.5143,9.6245,9.6575,9.6685,9.6685,9.594,9.5345,9.4817,9.3449,9.2526,9.1776,9.1233,9.0835,9.0581,9.0581,9.0581,9.0581,9.0581,9.0762,9.098,9.098,9.098,9.098,9.098,9.0835,9.0581,9.0581,9.0581,9.0581,9.0581,9.0074,8.9241,8.8481,8.8227,8.8336,8.8879,8.8626,8.8227,8.8227,8.7467,8.6525,8.6018,8.5909,8.5909,8.5909,8.5685,8.5417,8.5218,8.549,8.5642,8.5431,8.5431,8.5431,8.5431,8.4967,8.461,8.461,8.461,8.4717,8.4967,8.4753,8.4717,8.4967,8.4216,8.3402,8.2509,8.1352,8.0308,7.9179,7.9222,7.9041,7.8544,7.89,7.8716,7.7971,7.7719,7.765,7.7868,7.7836,7.8337,7.9309,7.9762,8.0248,8.0701,8.0928,8.1025,8.1025,8.0906,8.0256,7.9323,7.8946,7.7543,7.5616,7.5182,7.3787,7.217,9.6898,9.621,9.5598,9.5598,9.5598,9.5598,9.5598,9.5598,9.5598,9.5598,9.5598,9.5598,9.5598,9.5598,9.5509,9.5191,9.4946,9.4346,9.3339,9.3181,9.3822,9.5437,9.6282,9.6685,9.6685,9.6453,9.5894,9.4817,9.4576,9.3615,9.1813,9.1813,9.1378,9.0618,9.0581,9.0581,9.0581,9.0618,9.1088,9.1813,9.1813,9.1813,9.1813,9.1813,9.1306,9.0618,9.0581,9.0581,9.0581,9.0581,9.0038,8.9241,8.8444,8.8227,8.8227,8.8227,8.8227,8.8227,8.8227,8.7068,8.5909,8.5909,8.5909,8.5909,8.5909,8.5685,8.5417,8.5218,8.506,8.4819,8.461,8.461,8.461,8.461,8.461,8.461,8.461,8.461,8.4895,8.5716,8.5109,8.4931,8.5716,8.4415,8.3227,8.2509,8.1194,7.9938,7.8511,7.8544,7.8544,7.8511,7.8188,7.7938,7.761,7.761,7.7311,7.6815,7.7463,7.7819,7.7852,7.9309,7.9957,8.0021,8.0734,8.1025,8.1025,8.0666,8.0303,8.0027,7.8926,7.746,7.5901,7.5246,7.3693,7.185,9.7127,9.6706,9.6324,9.5713,9.5598,9.5598,9.5598,9.5598,9.5598,9.5598,9.5598,9.5598,9.5598,9.5598,9.5509,9.5191,9.4807,9.4123,9.2942,9.3044,9.3565,9.4593,9.5437,9.6098,9.6685,9.6296,9.5991,9.5655,9.4704,9.4032,9.3479,9.232,9.1668,9.1414,9.0835,9.0581,9.0654,9.1197,9.1595,9.1849,9.2428,9.2646,9.2573,9.203,9.1668,9.1378,9.0799,9.0581,9.0509,8.9929,8.9241,8.8444,8.7611,8.7756,8.8336,8.8879,8.8662,8.8227,8.8227,8.7068,8.5909,8.5909,8.5909,8.5909,8.5909,8.5531,8.5297,8.5218,8.49,8.4692,8.461,8.461,8.461,8.461,8.461,8.461,8.461,8.461,8.4895,8.5716,8.5573,8.5454,8.5464,8.4825,8.3735,8.2303,8.0641,7.9355,7.8511,7.9007,7.9041,7.8544,7.8188,7.7708,7.6889,7.716,7.7088,7.6783,7.701,7.7333,7.7852,7.8791,7.9503,8.0021,8.0734,8.1025,8.1025,8.0666,8.0303,8.0091,7.9221,7.7746,7.5933,7.5496,7.3968,7.185,9.7662,9.7127,9.663,9.5751,9.5598,9.5598,9.5598,9.5598,9.5598,9.5598,9.5598,9.5598,9.5598,9.5598,9.5509,9.5191,9.447,9.362,9.2751,9.2607,9.3088,9.4226,9.4777,9.5547,9.6685,9.6259,9.602,9.602,9.514,9.4529,9.4203,9.3225,9.2573,9.2247,9.1776,9.1559,9.1595,9.2066,9.2465,9.2791,9.3298,9.3479,9.3443,9.2935,9.2356,9.174,9.1233,9.0871,9.0545,9.0038,8.9133,8.8082,8.7285,8.7575,8.8372,8.9169,8.8843,8.8227,8.8227,8.7068,8.5909,8.5909,8.5909,8.5873,8.5797,8.5453,8.5218,8.5139,8.4819,8.461,8.461,8.461,8.461,8.461,8.461,8.461,8.461,8.461,8.4895,8.5716,8.5538,8.549,8.5806,8.5075,8.376,8.1868,8.0209,7.8969,7.8511,7.8941,7.8734,7.7899,7.7651,7.7129,7.6344,7.6581,7.6586,7.6362,7.6653,7.701,7.7431,7.8143,7.8694,7.9179,8.0183,8.0604,8.0637,8.0449,8.0213,7.9969,7.9194,7.7873,7.6338,7.5554,7.4022,7.1926,9.8311,9.7509,9.6706,9.5751,9.5598,9.5598,9.5598,9.5598,9.5598,9.5598,9.5598,9.5598,9.5598,9.5598,9.5509,9.5191,9.4029,9.3163,9.2684,9.2091,9.2537,9.4226,9.4299,9.5034,9.6685,9.618,9.602,9.5939,9.5612,9.5036,9.4312,9.4239,9.3841,9.3117,9.3044,9.3008,9.3008,9.308,9.3551,9.4239,9.4276,9.4312,9.4312,9.4239,9.3298,9.1994,9.1849,9.1342,9.069,9.0545,8.9495,8.8118,8.743,8.772,8.8481,8.9277,8.8879,8.8227,8.8227,8.7068,8.5909,8.5873,8.5873,8.5797,8.5572,8.5339,8.5139,8.498,8.4773,8.461,8.461,8.461,8.461,8.461,8.461,8.461,8.461,8.461,8.4895,8.5716,8.5145,8.5086,8.6289,8.4952,8.3147,8.1224,7.969,7.883,7.8511,7.8511,7.7998,7.7091,7.6702,7.6453,7.6124,7.5826,7.5747,7.5811,7.6491,7.6783,7.6815,7.7495,7.7819,7.7884,7.9341,7.9957,7.9903,8.0046,8.0091,7.9969,7.8943,7.7872,7.6773,7.5455,7.3883,7.2179,9.8388,9.7967,9.7356,9.5866,9.5598,9.5598,9.5598,9.5598,9.5598,9.5598,9.5598,9.5598,9.5598,9.5598,9.5509,9.5191,9.4029,9.3062,9.251,9.202,9.2537,9.4226,9.4299,9.4958,9.6416,9.618,9.5939,9.5777,9.5529,9.529,9.5109,9.4493,9.4131,9.3913,9.3298,9.3008,9.3044,9.3696,9.4058,9.4276,9.4891,9.5145,9.5072,9.4457,9.3986,9.3515,9.2247,9.1704,9.1342,9.0074,8.9024,8.83,8.8734,8.8988,8.9314,9.011,8.9314,8.8227,8.8227,8.7068,8.5873,8.5608,8.5608,8.5572,8.5495,8.5182,8.498,8.49,8.4773,8.461,8.461,8.461,8.461,8.461,8.461,8.461,8.461,8.461,8.4895,8.5716,8.5442,8.5188,8.511,8.3021,8.1175,8.0208,7.9317,7.883,7.8511,7.8296,7.8122,7.7849,7.6747,7.6124,7.6124,7.5826,7.6006,7.6556,7.6718,7.6783,7.6815,7.7495,7.7819,7.7884,7.9341,7.9839,7.9666,7.9925,8.0001,7.9599,7.8596,7.7745,7.6773,7.523,7.3624,7.2109,9.8961,9.8388,9.77,9.6439,9.5866,9.5598,9.5598,9.5598,9.5598,9.5598,9.5598,9.5598,9.5598,9.5554,9.5286,9.4703,9.3739,9.3156,9.2996,9.2646,9.3161,9.4813,9.4887,9.5285,9.618,9.61,9.5939,9.5695,9.5482,9.5398,9.5362,9.4964,9.4783,9.4746,9.4312,9.4131,9.4167,9.4602,9.4783,9.4819,9.5217,9.5398,9.5326,9.4927,9.4529,9.4094,9.3261,9.2465,9.1595,9.04,8.9459,8.8843,8.9277,8.9386,8.9567,9.0364,8.9459,8.8227,8.8227,8.7068,8.5797,8.5572,8.5417,8.5339,8.5261,8.506,8.49,8.4738,8.4692,8.461,8.461,8.461,8.461,8.461,8.461,8.461,8.461,8.461,8.4788,8.5181,8.505,8.4561,8.3774,8.2143,8.0784,7.9995,7.9135,7.8617,7.8511,7.8296,7.7915,7.7369,7.654,7.6014,7.5904,7.5826,7.607,7.6783,7.6783,7.6783,7.6815,7.7172,7.7333,7.7398,7.8823,7.9321,7.9064,7.9765,7.9846,7.935,7.8469,7.7707,7.6984,7.4966,7.2762,7.0474,9.9572,9.8693,9.7853,9.705,9.6172,9.5598,9.5598,9.5598,9.5598,9.5598,9.5598,9.5598,9.5598,9.5578,9.5262,9.4575,9.3887,9.3582,9.3776,9.3492,9.3969,9.5437,9.5511,9.5647,9.5984,9.602,9.5858,9.5612,9.5446,9.5398,9.5398,9.5398,9.5398,9.5398,9.5398,9.5398,9.5398,9.5398,9.5398,9.5398,9.5398,9.5398,9.5398,9.5398,9.5,9.4384,9.4276,9.3189,9.1704,9.1016,9.0255,8.9603,8.9603,8.9603,8.9748,9.04,8.9459,8.8227,8.8227,8.7068,8.5797,8.5495,8.5261,8.5139,8.49,8.4819,8.4819,8.461,8.461,8.461,8.461,8.461,8.461,8.461,8.461,8.461,8.461,8.461,8.461,8.461,8.4278,8.3596,8.25,8.1526,8.0746,7.9975,7.9089,7.8511,7.8403,7.8188,7.7566,7.6791,7.643,7.6099,7.5909,7.5909,7.62,7.6783,7.6783,7.6783,7.6783,7.6783,7.6848,7.7042,7.8337,7.872,7.8592,7.9668,7.9722,7.8943,7.831,7.7797,7.7222,7.482,7.1867,6.8953,9.9572,9.8693,9.7853,9.705,9.6172,9.5598,9.5598,9.5598,9.5598,9.5598,9.5598,9.5598,9.5598,9.5886,9.6067,9.5998,9.5582,9.5001,9.441,9.4264,9.4556,9.5474,9.5511,9.5647,9.5984,9.602,9.5777,9.5482,9.5362,9.5398,9.5398,9.5398,9.5398,9.5398,9.5398,9.5398,9.5398,9.5398,9.5398,9.5398,9.5398,9.5398,9.5398,9.5398,9.5326,9.5145,9.4457,9.3189,9.1776,9.1668,9.1088,9.0436,9.0436,9.0436,9.0473,9.0581,8.9459,8.8227,8.8227,8.6878,8.5495,8.5297,8.506,8.49,8.4692,8.461,8.461,8.461,8.461,8.461,8.461,8.461,8.461,8.461,8.461,8.461,8.461,8.461,8.461,8.461,8.3611,8.2453,8.1234,8.0411,7.973,7.9069,7.8684,7.8403,7.8188,7.7829,7.7467,7.718,7.6846,7.6653,7.6653,7.6653,7.6718,7.6783,7.6783,7.6783,7.6783,7.6783,7.7107,7.7722,7.8532,7.8893,7.9028,7.9771,7.9599,7.8564,7.8213,7.7797,7.7154,7.4777,7.2412,7.0286,10.0107,9.9381,9.8693,9.8349,9.7203,9.6324,9.6324,9.5904,9.5598,9.5598,9.6019,9.6324,9.6324,9.6539,9.6478,9.6253,9.5661,9.5277,9.5184,9.5035,9.5327,9.6135,9.6171,9.6087,9.602,9.602,9.5777,9.5398,9.5398,9.5398,9.5398,9.5398,9.5398,9.5398,9.5398,9.5398,9.5398,9.5398,9.5398,9.5398,9.5398,9.5398,9.5398,9.5398,9.5398,9.5326,9.5,9.4131,9.3153,9.3153,9.261,9.1849,9.1414,9.1269,9.1197,9.0726,8.9785,8.877,8.8179,8.7125,8.5994,8.5247,8.498,8.4819,8.461,8.461,8.461,8.461,8.461,8.461,8.461,8.461,8.4753,8.5216,8.5288,8.5431,8.5823,8.5894,8.5549,8.4783,8.3716,8.2439,8.0872,7.9972,7.9388,7.8724,7.8908,7.8833,7.8112,7.8223,7.7925,7.7199,7.6896,7.6783,7.6783,7.6783,7.6783,7.6783,7.6783,7.6783,7.6783,7.6783,7.7172,7.7852,7.8564,7.8925,7.9035,7.9803,7.935,7.8341,7.8213,7.745,7.627,7.4747,7.2862,7.0934]},{"header":{"parameterUnit":"m.s-1","parameterCategory":1,"la1":30.6,"la2":28.766,"lo1":-90.7593,"lo2":-88.6598,"dx":0.0162,"dy":0.0183,"nx":116,"ny":114,"refTime":"2022-11-13T18:00:00:Z","depth":0,"parameterNumber":3,"parameterNumberName":"V-component_of_WINDS"},"data":[0.0,0.0,0.0,0.0,0.0,0.0,0.0,0.0,0.0,0.0,0.0,0.0,0.0,0.0,0.0,0.0,0.0,0.0,0.0,0.0,0.0,0.0,0.0,0.0,0.0,0.0,0.0,0.0,0.0,0.0,0.0,0.0,0.0,0.0,0.0,0.0,0.0,0.0,0.0,0.0,0.0,0.0,0.0,0.0,0.0,0.0,0.0,0.0,0.0,0.0,0.0,0.0,0.0,0.0,0.0,0.0,0.0,0.0,0.0,0.0,0.0,0.0,0.0,0.0,0.0,0.0,0.0,0.0,0.0,0.0,0.0,0.0,0.0,0.0,0.0,0.0,0.0,0.0,0.0,0.0,0.0,0.0,0.0,0.0,0.0,0.0,0.0,0.0,0.0,0.0,0.0,0.0,0.0,0.0,0.0,0.0,0.0,0.0,0.0,0.0,0.0,0.0,0.0,0.0,0.0,0.0,0.0,0.0,0.0,0.0,0.0,0.0,0.0,0.0,0.0,0.0,0.0,0.0,0.0,0.0,0.0,0.0,0.0,0.0,0.0,0.0,0.0,0.0,0.0,0.0,0.0,0.0,0.0,0.0,0.0,0.0,0.0,0.0,0.0,0.0,0.0,0.0,0.0,0.0,0.0,0.0,0.0,0.0,0.0,0.0,0.0,0.0,0.0,0.0,0.0,0.0,0.0,0.0,0.0,0.0,0.0,0.0,0.0,0.0,0.0,0.0,0.0,0.0,0.0,0.0,0.0,0.0,0.0,0.0,0.0,0.0,0.0,0.0,0.0,0.0,0.0,0.0,0.0,0.0,0.0,0.0,0.0,0.0,0.0,0.0,0.0,0.0,0.0,0.0,0.0,0.0,0.0,0.0,0.0,0.0,0.0,0.0,0.0,0.0,0.0,0.0,0.0,0.0,0.0,0.0,0.0,0.0,0.0,0.0,0.0,0.0,0.0,0.0,0.0,0.0,0.0,0.0,0.0,0.0,0.0,0.0,0.0,0.0,0.0,0.0,0.0,0.0,0.0,0.0,0.0,0.0,0.0,0.0,0.0,0.0,0.0,0.0,0.0,0.0,0.0,0.0,0.0,0.0,0.0,0.0,0.0,0.0,0.0,0.0,0.0,0.0,0.0,0.0,0.0,0.0,0.0,0.0,0.0,0.0,0.0,0.0,0.0,0.0,0.0,0.0,0.0,0.0,0.0,0.0,0.0,0.0,0.0,0.0,0.0,0.0,0.0,0.0,0.0,0.0,0.0,0.0,0.0,0.0,0.0,0.0,0.0,0.0,0.0,0.0,0.0,0.0,0.0,0.0,0.0,0.0,0.0,0.0,0.0,0.0,0.0,0.0,0.0,0.0,0.0,0.0,0.0,0.0,0.0,0.0,0.0,0.0,0.0,0.0,0.0,0.0,0.0,0.0,0.0,0.0,0.0,0.0,0.0,0.0,0.0,0.0,0.0,0.0,0.0,0.0,0.0,0.0,0.0,0.0,0.0,0.0,0.0,0.0,0.0,0.0,0.0,0.0,0.0,0.0,0.0,0.0,0.0,0.0,0.0,0.0,0.0,0.0,0.0,0.0,0.0,0.0,0.0,0.0,0.0,0.0,0.0,0.0,0.0,0.0,0.0,0.0,0.0,0.0,0.0,0.0,0.0,0.0,0.0,0.0,0.0,0.0,0.0,0.0,0.0,0.0,0.0,0.0,0.0,0.0,0.0,0.0,0.0,0.0,0.0,0.0,0.0,0.0,0.0,0.0,0.0,0.0,0.0,0.0,0.0,0.0,0.0,0.0,0.0,0.0,0.0,0.0,0.0,0.0,0.0,0.0,0.0,0.0,0.0,0.0,0.0,0.0,0.0,0.0,0.0,0.0,0.0,0.0,0.0,0.0,0.0,0.0,0.0,0.0,0.0,0.0,0.0,0.0,0.0,0.0,0.0,0.0,0.0,0.0,0.0,0.0,0.0,0.0,0.0,0.0,0.0,0.0,0.0,0.0,0.0,0.0,0.0,0.0,0.0,0.0,0.0,0.0,0.0,0.0,0.0,0.0,0.0,0.0,0.0,0.0,0.0,0.0,0.0,0.0,0.0,0.0,0.0,0.0,0.0,0.0,0.0,0.0,0.0,0.0,0.0,0.0,0.0,0.0,0.0,0.0,0.0,0.0,0.0,0.0,0.0,0.0,0.0,0.0,0.0,0.0,0.0,0.0,0.0,0.0,0.0,0.0,0.0,0.0,0.0,0.0,0.0,0.0,0.0,0.0,0.0,0.0,0.0,0.0,0.0,0.0,0.0,0.0,0.0,0.0,0.0,0.0,0.0,0.0,0.0,0.0,0.0,0.0,0.0,0.0,0.0,0.0,0.0,0.0,0.0,0.0,0.0,0.0,0.0,0.0,0.0,0.0,0.0,0.0,0.0,0.0,0.0,0.0,0.0,0.0,0.0,0.0,0.0,0.0,0.0,0.0,0.0,0.0,0.0,0.0,0.0,0.0,0.0,0.0,0.0,0.0,0.0,0.0,0.0,0.0,0.0,0.0,0.0,0.0,0.0,0.0,0.0,0.0,0.0,0.0,0.0,0.0,0.0,0.0,0.0,0.0,0.0,0.0,0.0,0.0,0.0,0.0,0.0,0.0,0.0,0.0,0.0,0.0,0.0,0.0,0.0,0.0,0.0,0.0,0.0,0.0,0.0,0.0,0.0,0.0,0.0,0.0,0.0,0.0,0.0,0.0,0.0,0.0,0.0,0.0,0.0,0.0,0.0,0.0,0.0,0.0,0.0,0.0,0.0,0.0,0.0,0.0,0.0,0.0,0.0,0.0,0.0,0.0,0.0,0.0,0.0,0.0,0.0,0.0,0.0,0.0,0.0,0.0,0.0,0.0,0.0,0.0,0.0,0.0,0.0,0.0,0.0,0.0,0.0,0.0,0.0,0.0,0.0,0.0,0.0,0.0,0.0,0.0,0.0,0.0,0.0,0.0,0.0,0.0,0.0,0.0,0.0,0.0,0.0,0.0,0.0,0.0,0.0,0.0,0.0,0.0,0.0,0.0,0.0,0.0,0.0,0.0,0.0,0.0,0.0,0.0,0.0,0.0,0.0,0.0,0.0,0.0,0.0,0.0,0.0,0.0,0.0,0.0,0.0,0.0,0.0,0.0,0.0,0.0,0.0,0.0,0.0,0.0,0.0,0.0,0.0,0.0,0.0,0.0,0.0,0.0,0.0,0.0,0.0,0.0,0.0,0.0,0.0,0.0,0.0,0.0,0.0,0.0,0.0,0.0,0.0,0.0,0.0,0.0,0.0,0.0,0.0,0.0,0.0,0.0,0.0,0.0,0.0,0.0,0.0,0.0,0.0,0.0,0.0,0.0,0.0,0.0,0.0,0.0,0.0,0.0,0.0,0.0,0.0,0.0,0.0,0.0,0.0,0.0,0.0,0.0,0.0,0.0,0.0,0.0,0.0,0.0,0.0,0.0,0.0,0.0,0.0,0.0,0.0,0.0,0.0,0.0,0.0,0.0,0.0,0.0,0.0,0.0,0.0,0.0,0.0,0.0,0.0,0.0,0.0,0.0,0.0,0.0,0.0,0.0,0.0,0.0,0.0,0.0,0.0,0.0,0.0,0.0,0.0,0.0,0.0,0.0,0.0,0.0,0.0,0.0,0.0,0.0,0.0,0.0,0.0,0.0,0.0,0.0,0.0,0.0,0.0,0.0,0.0,0.0,0.0,0.0,0.0,0.0,0.0,0.0,0.0,0.0,0.0,0.0,0.0,0.0,0.0,0.0,0.0,0.0,0.0,0.0,0.0,0.0,0.0,0.0,0.0,0.0,0.0,0.0,0.0,0.0,0.0,0.0,0.0,0.0,0.0,0.0,0.0,0.0,0.0,0.0,0.0,0.0,0.0,0.0,0.0,0.0,0.0,0.0,0.0,0.0,0.0,0.0,0.0,0.0,0.0,0.0,0.0,0.0,0.0,0.0,0.0,0.0,0.0,0.0,0.0,0.0,0.0,0.0,0.0,0.0,0.0,0.0,0.0,0.0,0.0,0.0,0.0,0.0,0.0,0.0,0.0,0.0,0.0,0.0,0.0,0.0,0.0,0.0,0.0,0.0,0.0,0.0,0.0,0.0,0.0,0.0,0.0,0.0,0.0,0.0,0.0,0.0,0.0,0.0,0.0,0.0,0.0,0.0,0.0,0.0,0.0,0.0,0.0,0.0,0.0,0.0,0.0,0.0,0.0,0.0,0.0,0.0,0.0,0.0,0.0,0.0,0.0,0.0,0.0,0.0,0.0,0.0,0.0,0.0,0.0,0.0,0.0,0.0,0.0,0.0,0.0,0.0,0.0,0.0,0.0,0.0,0.0,0.0,0.0,0.0,0.0,0.0,0.0,0.0,0.0,0.0,0.0,0.0,0.0,0.0,0.0,0.0,0.0,0.0,0.0,0.0,0.0,0.0,0.0,0.0,0.0,0.0,0.0,0.0,0.0,0.0,0.0,0.0,0.0,0.0,0.0,0.0,0.0,0.0,0.0,0.0,0.0,0.0,0.0,0.0,0.0,0.0,0.0,0.0,0.0,0.0,0.0,0.0,0.0,0.0,0.0,0.0,0.0,0.0,0.0,0.0,0.0,0.0,0.0,0.0,0.0,0.0,0.0,0.0,0.0,0.0,0.0,0.0,0.0,0.0,0.0,0.0,0.0,0.0,0.0,0.0,0.0,0.0,0.0,0.0,0.0,0.0,0.0,0.0,0.0,0.0,0.0,0.0,0.0,0.0,0.0,0.0,0.0,0.0,0.0,0.0,0.0,0.0,0.0,0.0,0.0,0.0,0.0,0.0,0.0,0.0,0.0,0.0,0.0,0.0,0.0,0.0,0.0,0.0,0.0,0.0,0.0,0.0,0.0,0.0,0.0,0.0,0.0,0.0,0.0,0.0,0.0,0.0,0.0,0.0,0.0,0.0,0.0,0.0,0.0,0.0,0.0,0.0,0.0,0.0,0.0,0.0,0.0,0.0,0.0,0.0,0.0,0.0,0.0,0.0,0.0,0.0,0.0,0.0,0.0,0.0,0.0,0.0,0.0,0.0,0.0,0.0,0.0,0.0,0.0,0.0,0.0,0.0,0.0,0.0,0.0,0.0,0.0,0.0,0.0,0.0,0.0,0.0,0.0,0.0,0.0,0.0,0.0,0.0,0.0,0.0,0.0,0.0,0.0,0.0,0.0,0.0,0.0,0.0,0.0,0.0,0.0,0.0,0.0,0.0,0.0,0.0,0.0,0.0,0.0,0.0,0.0,0.0,0.0,0.0,0.0,0.0,0.0,0.0,0.0,0.0,0.0,0.0,0.0,0.0,0.0,0.0,0.0,0.0,0.0,0.0,0.0,0.0,0.0,0.0,0.0,0.0,0.0,0.0,0.0,0.0,0.0,0.0,0.0,0.0,0.0,0.0,0.0,0.0,0.0,0.0,0.0,0.0,0.0,0.0,0.0,0.0,0.0,0.0,0.0,0.0,0.0,0.0,0.0,0.0,0.0,0.0,0.0,0.0,0.0,0.0,0.0,0.0,0.0,0.0,0.0,0.0,0.0,0.0,0.0,0.0,0.0,0.0,0.0,0.0,0.0,0.0,0.0,0.0,0.0,0.0,0.0,0.0,0.0,0.0,0.0,0.0,0.0,0.0,0.0,0.0,0.0,0.0,0.0,0.0,0.0,0.0,0.0,0.0,0.0,0.0,0.0,0.0,0.0,0.0,0.0,0.0,0.0,0.0,0.0,0.0,0.0,0.0,0.0,0.0,0.0,0.0,0.0,0.0,0.0,0.0,0.0,0.0,0.0,0.0,0.0,0.0,0.0,0.0,0.0,0.0,0.0,0.0,0.0,0.0,0.0,0.0,0.0,0.0,0.0,0.0,0.0,0.0,0.0,0.0,0.0,0.0,0.0,0.0,0.0,0.0,0.0,0.0,0.0,0.0,0.0,0.0,0.0,0.0,0.0,0.0,0.0,0.0,0.0,0.0,0.0,0.0,0.0,0.0,0.0,0.0,0.0,0.0,0.0,0.0,0.0,0.0,0.0,0.0,0.0,0.0,0.0,0.0,0.0,0.0,-2.4649,0.0,0.0,0.0,0.0,0.0,0.0,0.0,0.0,0.0,0.0,0.0,0.0,0.0,0.0,0.0,0.0,0.0,0.0,0.0,0.0,0.0,0.0,0.0,0.0,-1.9092,-1.9479,-1.976,-2.0054,0.0,0.0,0.0,0.0,0.0,0.0,0.0,-2.0227,-2.0374,-2.0441,-2.0441,-2.0882,-2.1323,-2.1737,-2.1577,-2.1349,-2.1069,0.0,0.0,0.0,0.0,0.0,0.0,0.0,0.0,0.0,0.0,0.0,0.0,0.0,0.0,0.0,0.0,0.0,0.0,0.0,0.0,0.0,0.0,0.0,0.0,0.0,0.0,0.0,0.0,0.0,0.0,0.0,0.0,0.0,0.0,0.0,0.0,0.0,0.0,0.0,0.0,0.0,0.0,0.0,0.0,0.0,0.0,0.0,0.0,0.0,0.0,0.0,0.0,0.0,0.0,0.0,0.0,0.0,0.0,0.0,0.0,0.0,0.0,0.0,0.0,0.0,0.0,0.0,0.0,0.0,0.0,0.0,-2.497,0.0,0.0,0.0,0.0,0.0,0.0,0.0,0.0,0.0,0.0,0.0,0.0,0.0,0.0,0.0,0.0,0.0,0.0,0.0,0.0,0.0,-1.8557,-1.9292,-1.9546,-1.9867,-2.0347,-2.0481,-2.0535,-2.0535,-2.0535,0.0,0.0,0.0,0.0,-2.0535,-2.0775,-2.0935,-2.0975,-2.1577,-2.2138,-2.2659,-2.2899,-2.2766,-2.2298,-2.2124,0.0,0.0,0.0,0.0,0.0,0.0,0.0,0.0,0.0,0.0,0.0,0.0,0.0,0.0,0.0,0.0,0.0,0.0,0.0,0.0,0.0,0.0,0.0,0.0,0.0,0.0,0.0,0.0,0.0,0.0,0.0,0.0,0.0,0.0,0.0,0.0,0.0,0.0,0.0,0.0,0.0,0.0,0.0,0.0,0.0,0.0,0.0,0.0,0.0,0.0,0.0,0.0,0.0,0.0,0.0,0.0,0.0,0.0,0.0,0.0,0.0,0.0,0.0,0.0,0.0,-2.6613,-2.6667,-2.6827,-2.7014,-2.6279,-2.5879,-2.5745,0.0,0.0,0.0,0.0,0.0,0.0,0.0,0.0,0.0,0.0,0.0,0.0,0.0,0.0,0.0,0.0,0.0,0.0,0.0,0.0,-1.9239,-1.9359,-2.0267,-2.0909,-2.0989,-2.1456,-2.175,-2.175,-2.175,0.0,0.0,0.0,-2.175,-2.175,-2.179,-2.1937,-2.2191,-2.2792,-2.326,-2.3594,-2.3634,-2.3607,-2.35,-2.2712,-2.2178,-2.1857,0.0,0.0,0.0,0.0,0.0,0.0,0.0,0.0,0.0,0.0,0.0,0.0,0.0,0.0,0.0,0.0,0.0,0.0,0.0,0.0,0.0,0.0,0.0,0.0,0.0,0.0,0.0,0.0,0.0,0.0,0.0,0.0,0.0,0.0,0.0,0.0,0.0,0.0,0.0,0.0,0.0,-2.391,-2.4102,0.0,0.0,0.0,0.0,0.0,0.0,0.0,0.0,0.0,0.0,0.0,0.0,0.0,0.0,-2.6653,-2.6947,-2.7094,-2.7094,-2.7388,-2.7522,-2.7535,-2.7789,-2.7936,-2.7963,-2.7843,0.0,-2.6653,-2.6653,0.0,0.0,0.0,0.0,0.0,0.0,0.0,0.0,0.0,0.0,0.0,0.0,0.0,0.0,0.0,0.0,0.0,0.0,0.0,0.0,0.0,-2.0708,-2.1309,-2.1804,-2.1924,-2.2058,-2.2218,-2.2071,0.0,0.0,-2.1991,-2.1991,-2.1991,-2.2311,-2.2792,-2.342,-2.3848,-2.4209,-2.4502,-2.4676,-2.4663,-2.4489,-2.3915,-2.322,-2.2472,-2.2338,0.0,0.0,0.0,0.0,0.0,0.0,0.0,0.0,0.0,0.0,0.0,0.0,0.0,0.0,0.0,0.0,0.0,0.0,0.0,0.0,0.0,0.0,0.0,0.0,0.0,0.0,0.0,0.0,0.0,0.0,0.0,0.0,0.0,0.0,0.0,0.0,0.0,0.0,0.0,-2.4603,-2.4422,-2.489,-2.505,-2.5184,0.0,0.0,0.0,0.0,0.0,0.0,0.0,0.0,0.0,-2.6934,-2.7348,-2.7562,-2.7562,-2.7869,-2.8016,-2.803,-2.831,-2.8457,-2.8457,-2.8591,-2.8644,-2.8644,-2.8644,-2.843,-2.8043,-2.7709,-2.7388,-2.7094,0.0,0.0,0.0,0.0,0.0,-2.8619,0.0,0.0,0.0,0.0,0.0,0.0,0.0,0.0,0.0,0.0,0.0,0.0,-2.0708,-2.1256,-2.1817,-2.2472,-2.2472,-2.2539,-2.2752,-2.2485,-2.2365,-2.2432,-2.2365,-2.2365,-2.2445,-2.302,-2.3688,-2.4422,-2.4716,-2.501,-2.5304,-2.5531,-2.5518,-2.5291,-2.5077,-2.4315,-2.3193,-2.3046,-2.2565,-2.1857,0.0,0.0,0.0,0.0,0.0,0.0,0.0,0.0,0.0,0.0,0.0,0.0,0.0,0.0,0.0,0.0,0.0,0.0,0.0,0.0,0.0,0.0,0.0,0.0,0.0,0.0,0.0,0.0,0.0,0.0,0.0,0.0,0.0,0.0,0.0,0.0,0.0,-2.5349,-2.52,-2.5571,-2.5692,-2.5758,0.0,0.0,0.0,0.0,0.0,0.0,-2.7161,-2.7655,-2.7936,-2.7936,-2.8217,-2.8377,-2.8377,-2.8684,-2.8831,-2.8831,-2.9205,-2.9379,-2.9379,-2.9459,-2.9486,-2.9486,-2.9486,-2.9486,-2.9595,-2.8684,-2.8413,-2.8171,-2.822,-2.8304,0.0,-2.873,-2.9281,-2.992,0.0,0.0,0.0,0.0,0.0,0.0,0.0,0.0,0.0,0.0,0.0,-2.0735,-2.1056,-2.2098,-2.2792,-2.2832,-2.3354,-2.3688,-2.3701,-2.342,-2.338,-2.3674,-2.3407,-2.3394,-2.3674,-2.4249,-2.4703,-2.5037,-2.5331,-2.5625,-2.5919,-2.5932,-2.5932,-2.5919,-2.5892,-2.5237,-2.4102,-2.3541,-2.3113,-2.2766,-2.2472,0.0,0.0,0.0,0.0,0.0,0.0,0.0,0.0,0.0,0.0,0.0,0.0,0.0,0.0,0.0,0.0,0.0,0.0,0.0,0.0,0.0,0.0,0.0,0.0,0.0,0.0,0.0,0.0,0.0,0.0,0.0,0.0,0.0,0.0,0.0,0.0,0.0,0.0,-2.6047,-2.6172,0.0,0.0,0.0,0.0,-2.7589,-2.7642,-2.7776,-2.8056,-2.839,-2.8564,-2.8564,-2.8845,-2.8991,-2.8991,-2.9285,-2.9446,-2.9446,-3.002,-3.0301,-3.0301,-3.0581,-3.0702,-3.0702,-3.0702,-3.0886,-3.1341,-2.9636,-2.9152,-2.9617,-2.933,-2.9717,-3.0339,-3.0193,-3.0614,-3.1242,0.0,0.0,0.0,-1.8651,-1.8544,-1.8517,-1.8597,-1.8945,-1.9319,-1.9613,-2.0414,-2.1136,-2.1617,-2.2378,-2.31,-2.3674,-2.3754,-2.3848,-2.4035,-2.3781,-2.3661,-2.3768,-2.3674,-2.3834,-2.4315,-2.4903,-2.5438,-2.5919,-2.6213,-2.6507,-2.68,-2.68,-2.68,-2.6787,-2.66,-2.6279,-2.5825,-2.4863,-2.4168,-2.3701,-2.3407,-2.3113,0.0,0.0,0.0,0.0,0.0,0.0,0.0,0.0,0.0,0.0,0.0,0.0,0.0,0.0,0.0,0.0,0.0,0.0,0.0,0.0,0.0,0.0,0.0,0.0,0.0,0.0,0.0,0.0,0.0,0.0,0.0,0.0,0.0,0.0,0.0,0.0,0.0,-2.6747,-2.7054,0.0,0.0,-2.7843,-2.8177,-2.827,-2.8631,-2.8898,-2.9005,-2.9472,-2.974,-2.974,-3.002,-3.0167,-3.0167,-3.0274,-3.0327,-3.0327,-3.0541,-3.0635,-3.0635,-3.0742,-3.098,-3.1335,-3.1335,-3.1519,-3.2028,-3.1416,-3.1014,-3.0817,-3.0895,-3.0963,-3.0938,-3.1164,-3.1495,-3.1929,0.0,0.0,0.0,-1.8945,-1.8851,-1.8824,-1.8905,-1.9252,-1.9653,-2.004,-2.0855,-2.163,-2.2218,-2.2899,-2.3554,-2.4155,-2.4115,-2.4142,-2.4342,-2.4075,-2.4008,-2.4209,-2.4396,-2.473,-2.5211,-2.5705,-2.6239,-2.6827,-2.7028,-2.7321,-2.7722,-2.7722,-2.7722,-2.7709,-2.7509,-2.7362,-2.7215,-2.6333,-2.5451,-2.4623,-2.4436,-2.4062,-2.3581,0.0,0.0,0.0,0.0,0.0,0.0,0.0,0.0,0.0,0.0,0.0,0.0,0.0,0.0,0.0,0.0,0.0,0.0,0.0,0.0,0.0,0.0,0.0,0.0,0.0,0.0,0.0,0.0,0.0,0.0,0.0,0.0,0.0,0.0,0.0,-2.7499,-2.7673,-2.7829,-2.8043,-2.8136,-2.8604,-2.8938,-2.9045,-2.9499,-2.982,-2.9913,-3.0301,-3.0501,-3.0501,-3.0872,-3.098,-3.098,-3.1259,-3.1484,-3.1498,-3.1593,-3.1647,-3.1647,-3.1647,-3.182,-3.2005,-3.2005,-3.2376,-3.2931,-3.2931,-3.2619,-3.2332,-3.2412,-3.2112,-3.193,-3.2281,-3.2588,-3.2763,0.0,0.0,-1.9279,-1.8985,-1.9172,-1.9279,-1.8998,-1.9439,-2.0027,-2.0615,-2.1456,-2.2218,-2.2806,-2.3674,-2.4209,-2.4222,-2.4476,-2.4636,-2.4636,-2.4382,-2.4489,-2.5077,-2.5665,-2.6106,-2.6413,-2.6707,-2.7148,-2.7722,-2.7736,-2.8043,-2.8617,-2.8617,-2.8617,-2.8617,-2.8617,-2.8457,-2.815,-2.7869,-2.6907,-2.5598,-2.5558,-2.5024,-2.4249,0.0,0.0,0.0,0.0,0.0,0.0,0.0,0.0,0.0,0.0,0.0,0.0,0.0,0.0,0.0,0.0,0.0,0.0,0.0,0.0,0.0,0.0,0.0,0.0,0.0,0.0,0.0,0.0,0.0,0.0,0.0,0.0,0.0,-2.7689,-2.7987,-2.8329,-2.8305,-2.8457,-2.8764,-2.9045,-2.9339,-2.9646,-2.9927,-3.0221,-3.0515,-3.0795,-3.0808,-3.0822,-3.0822,-3.1362,-3.1546,-3.1546,-3.239,-3.2715,-3.2729,-3.3023,-3.3177,-3.3177,-3.3177,-3.3177,-3.3163,-3.3163,-3.354,-3.3916,-3.3916,-3.4117,-3.4197,-3.3297,-3.3365,-3.3729,-3.3729,-3.3729,-3.3729,-1.9372,-1.9372,-1.9345,-1.9265,-1.9319,-1.9412,-1.9533,-1.988,-2.0321,-2.0909,-2.175,-2.2525,-2.3126,-2.3794,-2.4289,-2.4502,-2.4596,-2.4636,-2.4636,-2.477,-2.5104,-2.5692,-2.6066,-2.6507,-2.7014,-2.7522,-2.7976,-2.835,-2.8564,-2.8751,-2.8925,-2.8925,-2.8925,-2.8925,-2.8925,-2.8871,-2.8791,-2.8711,-2.819,-2.7348,-2.6493,-2.5879,-2.5424,0.0,0.0,0.0,0.0,0.0,0.0,0.0,0.0,0.0,0.0,0.0,0.0,0.0,0.0,0.0,0.0,0.0,0.0,0.0,0.0,0.0,0.0,0.0,0.0,0.0,0.0,0.0,0.0,0.0,0.0,0.0,0.0,-2.9485,-2.8977,-2.8869,-2.8723,-2.8738,-2.9596,-3.0124,-3.0206,-3.1028,-3.1372,-3.109,-3.1375,-3.1394,-3.1102,-3.1316,-3.1611,-3.1987,-3.2175,-3.2349,-3.2724,-3.2995,-3.3037,-3.3037,-3.3135,-3.3177,-3.3177,-3.3177,-3.3351,-3.3728,-3.3728,-3.393,-3.4508,-3.4508,-3.4449,-3.4534,-3.4013,-3.3751,-3.3729,-3.3729,-3.3729,-3.3729,-1.9372,-1.9372,-1.9372,-1.9372,-1.9372,-1.9466,-1.976,-2.004,-2.0494,-2.1203,-2.2058,-2.2832,-2.3447,-2.4035,-2.4449,-2.4623,-2.4636,-2.469,-2.481,-2.5331,-2.5892,-2.648,-2.6907,-2.7348,-2.7816,-2.8283,-2.8671,-2.8978,-2.9138,-2.9285,-2.9406,-2.9406,-2.9406,-2.9406,-2.9406,-2.9406,-2.9392,-2.9285,-2.9018,-2.8617,-2.7696,-2.6921,-2.6266,-2.5798,-2.5558,-2.5384,-2.4917,-2.4756,-2.4676,-2.4222,0.0,0.0,0.0,0.0,0.0,0.0,0.0,0.0,0.0,0.0,0.0,0.0,0.0,0.0,0.0,0.0,0.0,0.0,0.0,0.0,0.0,0.0,0.0,0.0,-3.0122,-3.0339,-3.0552,-3.0093,-2.9886,-3.0069,-3.0808,-3.136,-3.136,-3.1972,-3.2251,-3.2066,-3.2357,-3.2349,-3.1974,-3.2137,-3.2421,-3.28,-3.2974,-3.3163,-3.354,-3.3742,-3.3742,-3.3742,-3.3742,-3.3742,-3.3742,-3.3742,-3.393,0.0,-3.4305,-3.4508,-3.471,-3.471,-3.471,0.0,0.0,0.0,0.0,0.0,-3.4139,-3.4139,-1.9372,-1.9372,-1.9372,-1.9372,-1.9372,-1.9479,-1.98,-2.0094,-2.0601,-2.1483,-2.2365,-2.314,-2.3714,-2.4289,-2.4636,-2.4636,-2.4636,-2.4796,-2.5157,-2.5972,-2.672,-2.7335,-2.7896,-2.835,-2.8698,-2.8951,-2.9232,-2.9539,-2.9539,-2.9659,-2.9913,-2.9913,-2.9913,-2.9913,-2.9913,-2.9913,-2.99,-2.9646,-2.9513,-2.9446,-2.8911,-2.8016,-2.6934,-2.664,-2.636,-2.6066,-2.5772,-2.5665,-2.5611,-2.5291,0.0,0.0,0.0,0.0,0.0,0.0,0.0,0.0,0.0,0.0,0.0,0.0,0.0,0.0,0.0,0.0,0.0,0.0,0.0,0.0,0.0,0.0,0.0,0.0,-3.0875,-3.1095,-3.194,-3.1784,-3.1662,-3.1441,-3.2127,-3.2493,-3.2493,-3.276,-3.2943,-3.2757,-3.3196,-3.3177,-3.3177,0.0,0.0,0.0,0.0,-3.3916,-3.3916,-3.4537,-3.4753,-3.4753,-3.4797,-3.4812,-3.4812,-3.4812,-3.4812,-3.4812,-3.4812,-3.4812,-3.4812,-3.4812,-3.4812,-3.4797,-3.4739,-3.471,-3.471,-3.471,-3.471,0.0,-1.9412,-1.9372,-1.9372,-1.9372,-1.9372,-1.9546,-2.0067,-2.0401,-2.0909,-2.179,-2.2686,-2.338,-2.3728,-2.4289,-2.4636,-2.4636,-2.4636,-2.4957,-2.5732,-2.6386,-2.7108,-2.7936,-2.8323,-2.8764,-2.9299,-2.9366,-2.9539,-2.9833,-2.9833,-2.986,-2.9913,-2.9913,-2.9913,-2.9913,-2.9913,-2.9913,-2.9913,-2.986,-2.97,-2.9472,-2.9366,-2.8738,-2.7856,-2.7562,-2.7268,-2.6974,-2.668,-2.6573,-2.6493,-2.5959,-2.5785,-2.5732,-2.5371,-2.5264,0.0,0.0,0.0,0.0,0.0,0.0,0.0,0.0,0.0,0.0,0.0,0.0,0.0,0.0,0.0,0.0,0.0,0.0,0.0,-3.1139,-3.1929,-3.2383,-3.2572,-3.3256,-3.3283,-3.2281,-3.2761,-3.3357,-3.3357,-3.3844,-3.4219,-3.3642,-3.3699,-3.354,-3.3163,-3.3177,0.0,-3.3728,-3.3916,-3.4118,-3.4508,-3.4944,-3.5075,-3.5075,0.0,0.0,-3.547,-3.547,-3.547,-3.547,-3.547,-3.547,-3.547,-3.547,-3.547,-3.5412,-3.49,-3.471,-3.471,-3.471,-3.471,-3.471,-1.9826,-1.98,-1.98,-1.98,-1.98,-1.9947,-2.0388,-2.0575,-2.0989,-2.1871,-2.2498,-2.3046,-2.35,-2.4075,-2.4422,-2.4422,-2.4957,-2.5611,-2.6346,-2.7068,-2.7816,-2.8564,-2.8885,-2.9245,-2.9686,-2.97,-2.9766,-2.9913,-2.9913,-2.9913,-2.9913,-2.9913,-2.9913,-2.9913,-2.9913,-2.9913,-2.9913,-2.9913,-2.9833,-2.97,-2.97,-2.9339,-2.8751,-2.815,-2.7829,-2.7642,-2.7201,-2.7041,-2.7001,-2.6707,-2.6613,-2.656,-2.6266,-2.6172,-2.6289,0.0,0.0,0.0,0.0,0.0,0.0,0.0,0.0,0.0,0.0,0.0,0.0,0.0,0.0,-3.0203,0.0,0.0,-3.1666,-3.1988,-3.2719,-3.3305,-3.3466,-3.3905,-3.3969,-3.3257,-3.37,-3.4074,-3.4074,-3.442,-3.4508,-3.4305,-3.4305,-3.4118,-3.393,-3.3944,-3.4118,-3.4305,-3.445,-3.4726,-3.4929,-3.5251,-3.5397,-3.5397,-3.5573,-3.5646,-3.5646,-3.5646,-3.5646,-3.5646,-3.5646,-3.5646,-3.5646,-3.5646,-3.5646,-3.5617,-3.5295,-3.5075,-3.4914,-3.4768,-3.471,-3.471,-2.0388,-2.0401,-2.0374,-2.0254,-2.0227,-2.0334,-2.0628,-2.0722,-2.1056,-2.1871,-2.2285,-2.2712,-2.326,-2.3808,-2.4142,-2.4195,-2.5224,-2.6119,-2.6694,-2.7562,-2.835,-2.9005,-2.9325,-2.9619,-2.9913,-2.9913,-2.9913,-2.9913,-2.9913,-2.9913,-2.9913,-2.9913,-2.9913,-2.9913,-2.9913,-2.9913,-2.9913,-2.9913,-2.9913,-2.9913,-2.9913,-2.978,-2.9486,-2.8698,-2.8337,-2.8163,-2.7696,-2.7482,-2.7428,-2.7375,-2.7348,-2.7295,-2.7001,-2.6907,-2.7189,-2.7637,-2.7913,0.0,0.0,0.0,0.0,0.0,0.0,0.0,0.0,0.0,-3.0612,-3.0554,-3.0846,-3.1212,-3.1534,-3.2076,-3.2573,-3.291,-3.3451,-3.3919,-3.4183,-3.4271,-3.4314,-3.4314,-3.4549,-3.471,-3.471,-3.471,-3.471,-3.471,-3.471,-3.4724,-3.4797,-3.4797,-3.4827,-3.4885,-3.5119,-3.5251,-3.5251,-3.5573,-3.5734,-3.5734,-3.5792,-3.5836,-3.5836,-3.5836,-3.5836,-3.5836,-3.5836,-3.5836,-3.5836,-3.5836,-3.5836,-3.5822,-3.5763,-3.5573,-3.531,-3.5002,-3.4885,-3.4885,-2.0962,-2.1015,-2.0842,-2.0321,-2.0227,-2.0334,-2.0628,-2.0895,-2.1283,-2.1911,-2.2472,-2.2939,-2.3287,-2.3621,-2.3928,-2.4182,-2.5037,-2.5812,-2.64,-2.7255,-2.8136,-2.9005,-2.9325,-2.9619,-2.9913,-2.9913,-2.9913,-2.9913,-2.9913,-2.9913,-2.9913,-2.9913,-2.9913,-2.9913,-2.9913,-2.9913,-2.9913,-2.9913,-2.9913,-2.9913,-2.9913,-2.99,-2.9833,-2.9472,-2.9005,-2.8551,-2.8484,-2.8283,-2.8003,-2.7736,-2.7655,-2.7602,-2.7308,-2.7541,-2.7921,-2.8646,-2.9207,-2.9606,-3.0374,-3.0612,-3.0612,-3.0656,-3.0876,-3.1022,0.0,0.0,-3.1549,-3.1256,-3.1695,-3.2222,-3.2544,-3.2895,-3.3246,-3.3568,-3.3934,-3.4183,-3.4212,-3.4475,-3.4651,-3.4651,-3.468,-3.471,-3.471,-3.471,-3.471,-3.471,-3.471,-3.4827,-3.509,-3.5105,-3.5236,-3.5529,-3.5573,-3.5588,-3.5588,-3.5909,-3.607,-3.607,-3.6363,-3.6495,-3.6495,-3.6495,-3.6495,-3.6495,-3.6495,-3.6495,-3.6495,-3.6495,-3.6495,-3.6466,-3.6173,-3.6041,-3.5968,-3.5661,-3.5544,-3.5544,-2.1082,-2.1109,-2.1029,-2.0788,-2.0748,-2.0788,-2.0909,-2.1029,-2.1256,-2.1683,-2.1951,-2.2285,-2.2752,-2.322,-2.3768,-2.4396,-2.5104,-2.5838,-2.6587,-2.7468,-2.8283,-2.9005,-2.9325,-2.9619,-2.9913,-2.9913,-2.9913,-2.9913,-2.9913,-2.9913,-2.9913,-2.9913,-2.9913,-2.9913,-2.9913,-2.9913,-2.9913,-2.9913,-2.9913,-2.9913,-2.9913,-2.9913,-2.9887,-2.9593,-2.9394,-2.9177,-2.8671,-2.8574,0.0,-2.8171,-2.8284,-2.8605,-2.8315,-2.8441,-2.8994,-2.9816,-3.0083,-3.0322,-3.1131,-3.1388,-3.1388,0.0,-3.149,-3.1563,-3.1417,-3.1754,-3.2105,-3.2149,-3.2529,-3.2939,-3.3276,-3.3597,-3.3861,0.0,-3.4285,-3.4505,-3.4505,-3.4622,-3.471,-3.471,-3.471,-3.471,-3.471,-3.471,-3.4783,-3.4958,-3.4973,-3.5105,-3.5427,-3.5441,-3.55,-3.5646,-3.5822,-3.5924,-3.5924,-3.6246,-3.6407,-3.6407,-3.6539,-3.6597,-3.6597,-3.6597,-3.6597,-3.6597,-3.6597,-3.6597,-3.6597,-3.6597,-3.6597,-3.6597,-3.6451,-3.6407,-3.6334,-3.5836,-3.5646,-3.5646,-2.1109,-2.1109,-2.1109,-2.1109,-2.1109,-2.1109,-2.1109,-2.1109,-2.1216,-2.151,-2.155,-2.1777,-2.2352,-2.2886,-2.3527,-2.4329,-2.493,-2.5638,-2.652,-2.7335,-2.8083,-2.8764,-2.9152,-2.9499,-2.9793,-2.9873,-2.9913,-2.9913,-2.9913,-2.9913,-2.9913,-2.9913,-2.9913,-2.9913,-2.9913,-2.9913,-2.9913,-2.9913,-2.9913,-2.9913,-2.9833,-2.9793,-2.9766,-2.9472,-2.9515,-2.9576,-2.9014,-2.8914,-2.8992,-2.8642,-2.8978,-2.9481,-2.916,-2.9328,-2.9901,-3.0482,-3.0895,-3.1253,-3.2002,-3.2134,-3.2193,-3.2193,-3.2266,-3.2324,-3.2324,-3.2515,-3.2749,-3.2983,-3.329,-3.3583,-3.3817,-3.4139,-3.4358,-3.4358,-3.4549,-3.471,-3.471,-3.471,-3.471,-3.471,-3.4783,-3.4827,-3.4827,-3.4827,-3.4914,-3.5134,-3.5236,-3.5427,-3.5763,-3.5778,-3.5822,-3.5909,-3.6129,-3.6246,-3.6246,-3.648,-3.6597,-3.6597,-3.6597,-3.6597,-3.6597,-3.6597,-3.6597,-3.6597,-3.6597,-3.6597,-3.6597,-3.6597,-3.6597,-3.6597,-3.6597,-3.6597,-3.6553,-3.6085,-3.5909,-3.5909,-2.1109,-2.1109,-2.1109,-2.1109,-2.1109,-2.1109,-2.1109,-2.1109,-2.1216,-2.151,-2.155,-2.1777,-2.2352,-2.2699,-2.3126,-2.3741,-2.4329,-2.5037,-2.5919,-2.6533,-2.7255,-2.8136,-2.8738,-2.9192,-2.9486,-2.9766,-2.9913,-2.9913,-2.9913,-2.9913,-2.9913,-2.9913,-2.9913,-2.9913,-2.9913,-2.9913,-2.9913,-2.9913,-2.9913,-2.9887,-2.9606,-2.9499,-2.9459,-2.9165,-2.9217,-2.9289,-2.9289,-2.9409,-2.9481,-2.9481,-2.9481,-2.9481,-2.9481,-2.983,-3.0294,-3.0923,-3.1888,-3.2734,-3.2734,-3.2968,-3.3202,-3.3202,-3.3436,-3.3671,-3.3671,-3.3685,-3.3685,-3.37,-3.3963,-3.4183,-3.4197,-3.4475,-3.4695,-3.4695,-3.4695,-3.471,-3.471,-3.471,-3.471,-3.471,-3.4958,-3.5149,0.0,-3.5149,-3.5149,-3.5163,-3.5456,-3.5763,-3.6085,-3.61,-3.6246,-3.6568,-3.6583,-3.6583,-3.6583,-3.6597,-3.6597,-3.6597,-3.6597,-3.6597,-3.6597,-3.6597,-3.6597,-3.6597,-3.6597,-3.6597,-3.6597,-3.6597,-3.6597,-3.6597,-3.6597,-3.6597,-3.6597,-3.6583,-3.6583,-3.6583,-2.1109,-2.1109,-2.1109,-2.1109,-2.1109,-2.1109,-2.1109,-2.1109,-2.1149,-2.1243,-2.143,0.0,0.0,0.0,0.0,0.0,-2.3888,-2.4636,-2.5331,-2.6106,-2.6841,-2.7535,-2.8123,-2.8591,-2.8898,-2.9192,-2.9432,-2.9633,-2.9633,-2.9726,-2.9913,-2.9913,-2.9913,-2.9913,-2.9913,-2.9913,-2.9913,-2.9913,-2.9806,-2.9619,-2.9526,-2.9542,-2.9675,-2.9376,-2.9542,-3.0071,0.0,-2.9618,-2.9519,-2.9339,-2.9505,-3.0044,-2.9941,-3.0476,-3.1116,-3.1757,-3.2397,-3.3085,-3.3085,-3.3319,-3.3568,-3.3568,-3.3656,-3.3729,-3.3729,-3.3729,-3.3788,-3.4007,-3.4139,-3.4285,-3.4505,-3.4636,-3.471,-3.471,-3.471,-3.471,-3.471,-3.471,-3.4783,-3.4988,-3.509,0.0,0.0,0.0,0.0,-3.5778,-3.5895,-3.61,-3.6422,-3.6436,-3.6392,-3.629,-3.6275,-3.6187,-3.5968,-3.6173,-3.6275,-3.629,-3.6495,-3.6597,-3.6597,-3.6597,-3.6597,-3.6597,-3.6597,-3.6597,-3.6597,-3.6597,-3.6597,-3.6597,-3.6597,-3.6597,-3.6597,-3.6597,-3.6597,-3.6597,-2.1109,-2.1109,-2.1109,-2.1109,-2.1109,0.0,0.0,0.0,0.0,0.0,0.0,0.0,0.0,0.0,0.0,0.0,0.0,-2.4062,-2.4877,-2.5545,-2.6186,-2.6774,-2.7455,-2.7923,-2.8123,-2.8524,-2.8871,-2.9165,-2.9165,-2.9312,-2.9606,-2.9606,-2.9606,-2.9606,-2.9606,-2.9606,-2.9606,-2.9606,-2.9499,-2.9488,-2.9555,-2.9567,-2.9694,-2.9391,-2.9789,0.0,-2.9878,-2.9857,-2.9857,-2.9514,-2.9929,-3.0583,-3.0571,-3.1131,-3.1768,-3.2295,-3.2837,-3.3276,-3.3393,-3.3656,-3.3905,-3.3905,-3.3993,-3.408,-3.408,-3.408,-3.4139,-3.4344,-3.4388,-3.4461,-3.4666,-3.471,-3.471,-3.471,-3.4797,-3.4871,-3.4871,-3.4973,-3.5119,-3.531,-3.5427,-3.5588,0.0,0.0,0.0,-3.6114,-3.6231,-3.6334,-3.6422,-3.6436,-3.6275,-3.5953,-3.5953,-3.5909,-3.5807,-3.6012,-3.6173,-3.629,-3.6509,-3.6597,-3.6597,-3.6597,-3.667,-3.6773,-3.6773,-3.6773,-3.6773,-3.6773,-3.6714,-3.6597,-3.6597,-3.6597,-3.6597,-3.6597,-3.6597,-3.6597,-2.1109,-2.1109,-2.1109,0.0,0.0,0.0,0.0,0.0,0.0,0.0,0.0,0.0,0.0,0.0,0.0,0.0,0.0,0.0,-2.4476,-2.485,-2.5291,-2.5865,-2.688,-2.7351,-2.7364,-2.7929,-2.8386,-2.8537,-2.8537,-2.8698,-2.8991,-2.8991,-2.8991,-2.8991,-2.8991,-2.8991,-2.8991,-2.8991,-2.9325,-2.9631,-2.9343,-2.9547,-2.9831,-2.9551,-2.9788,-3.0107,-2.9792,-3.0021,-3.0378,-3.0349,-3.0568,-3.092,-3.1271,-3.1812,-3.2383,-3.2719,-3.3041,-3.3363,-3.3671,-3.3993,-3.4241,-3.4241,-3.4475,-3.471,-3.471,-3.471,-3.471,-3.471,-3.471,-3.471,0.0,0.0,-3.471,-3.4724,-3.4973,-3.5163,-3.5178,-3.5456,-3.5646,0.0,0.0,0.0,0.0,0.0,0.0,-3.6144,0.0,-3.6436,-3.6114,-3.61,-3.5953,-3.5631,-3.5631,-3.5778,-3.607,-3.61,-3.6275,-3.6597,-3.6597,-3.6597,-3.6597,-3.6597,-3.6787,-3.7095,-3.7095,-3.7095,-3.7109,-3.7109,-3.6934,-3.6656,-3.6656,-3.6641,-3.6626,-3.6626,-3.6626,-3.6597,0.0,0.0,0.0,0.0,0.0,0.0,0.0,0.0,0.0,0.0,0.0,0.0,0.0,0.0,0.0,0.0,0.0,0.0,-2.3287,-2.4296,-2.5024,-2.5405,-2.6224,-2.6845,-2.7079,-2.761,-2.8066,-2.8606,-2.8606,-2.8717,-2.9226,-2.9056,-2.8887,-2.8887,-2.8547,-2.8547,-2.8887,-2.8887,-2.8933,-2.923,-2.9147,-2.9131,-2.9414,-2.9328,-2.977,-3.0272,-2.9938,-3.0127,-3.0671,-3.0437,-3.0715,-3.1329,-3.2149,-3.2515,-3.2763,-3.3319,-3.3715,-3.3993,-3.4066,-3.4329,-3.4578,-3.4578,-3.4651,-3.471,-3.471,-3.471,-3.471,-3.471,-3.471,-3.471,-3.471,0.0,0.0,-3.5002,-3.5105,0.0,-3.5485,-3.5588,0.0,-3.5968,0.0,-3.6217,-3.6451,-3.6334,0.0,0.0,-3.6187,-3.61,-3.5778,-3.5763,-3.5617,-3.5295,-3.5514,-3.5558,-3.5412,-3.588,-3.6275,-3.6597,-3.6597,-3.6597,-3.6597,-3.6597,-3.6787,-3.7095,-3.7095,-3.7226,-3.7446,-3.7446,-3.7402,-3.7329,-3.7329,-3.7183,-3.6963,-3.6963,-3.6817,-3.6597,0.0,0.0,0.0,0.0,0.0,0.0,0.0,0.0,0.0,0.0,0.0,0.0,0.0,0.0,0.0,0.0,0.0,0.0,0.0,-2.3682,-2.4242,-2.4829,-2.5428,-2.5977,-2.6584,-2.6892,-2.7212,-2.7824,-2.7824,-2.8061,-2.8534,-2.8371,-2.8207,-2.8207,-2.803,-2.803,-2.8207,-2.8207,-2.8423,0.0,0.0,-2.8802,-2.9138,-2.9283,-2.9603,-2.9939,-3.0042,-3.0495,-3.1037,-3.0993,-3.1315,-3.1856,-3.2559,-3.2866,-3.31,-3.3758,-3.408,-3.4256,-3.4388,-3.4563,-3.471,-3.471,-3.471,-3.471,-3.471,-3.471,-3.471,-3.471,-3.471,-3.471,-3.471,-3.471,-3.4768,0.0,0.0,0.0,-3.5617,-3.5895,-3.6129,0.0,-3.6334,0.0,-3.6583,-3.6436,-3.6275,0.0,-3.5983,-3.5763,-3.5456,-3.5573,-3.55,-3.5178,-3.5485,-3.5617,-3.5573,-3.6085,-3.6422,-3.6597,-3.6597,-3.6597,-3.6597,-3.6597,-3.6861,-3.73,0.0,-3.749,-3.7797,-3.7797,-3.7709,-3.7578,-3.7578,-3.7373,-3.7095,-3.7095,-3.689,-3.6597,0.0,0.0,0.0,0.0,0.0,0.0,0.0,0.0,0.0,-2.1162,-2.1162,-2.1189,0.0,0.0,0.0,0.0,0.0,0.0,0.0,0.0,-2.3674,-2.4255,-2.4657,-2.5077,-2.5819,-2.6101,-2.6374,-2.6962,-2.6962,-2.7116,-2.7579,-2.7423,-2.7423,-2.7423,-2.7423,-2.7423,-2.7423,-2.7465,-2.7792,-2.8089,-2.8132,-2.8458,-2.8798,0.0,-2.9281,-2.9398,-3.01,-3.0759,-3.1359,-3.1695,-3.2017,-3.2354,-3.2763,-3.3085,-3.3436,-3.4095,-3.4285,-3.4344,-3.4622,-3.471,-3.471,-3.471,-3.471,-3.471,-3.471,-3.471,-3.471,-3.471,-3.471,-3.471,-3.471,-3.471,-3.471,-3.4753,0.0,-3.5661,-3.5705,-3.6217,-3.6597,-3.6597,-3.6597,-3.6597,-3.6597,-3.6568,-3.6422,-3.6144,-3.5822,-3.5529,-3.5236,-3.5485,-3.5544,-3.5324,-3.5573,-3.5866,-3.6173,-3.6466,-3.6597,-3.6597,-3.6597,-3.6597,-3.6597,-3.6597,-3.6934,-3.7519,0.0,0.0,-3.8002,-3.8046,-3.79,-3.7636,-3.7636,-3.7446,-3.7153,-3.7153,-3.6919,-3.6597,0.0,0.0,0.0,0.0,0.0,0.0,0.0,0.0,0.0,0.0,-2.147,-2.1563,0.0,0.0,0.0,0.0,0.0,0.0,0.0,0.0,0.0,-2.4345,-2.4972,-2.5577,-2.5896,-2.5953,-2.6171,-2.6547,-2.6547,-2.6706,-2.7025,-2.6729,-2.6566,-2.6581,-2.6136,-2.6284,-2.6595,-2.6851,-2.7265,-2.7594,-2.7856,-2.7958,-2.8154,-2.8476,0.0,0.0,-3.0012,-3.0759,-3.1359,-3.1695,-3.2017,-3.2427,-3.329,-3.3597,-3.3773,-3.4432,-3.4622,-3.4636,-3.4695,-3.471,-3.471,-3.471,-3.471,-3.471,-3.471,-3.471,-3.471,-3.471,-3.471,-3.471,-3.471,-3.471,-3.4783,-3.5031,-3.5397,-3.5734,-3.5997,-3.6363,-3.6597,-3.6597,-3.6597,-3.6597,-3.6597,-3.6363,0.0,0.0,0.0,0.0,-3.5558,-3.5617,-3.5734,-3.5953,-3.6012,-3.6187,-3.6509,-3.6583,-3.6597,-3.6597,-3.6597,-3.6597,-3.6597,-3.6597,-3.6817,-3.7197,0.0,0.0,-3.768,-3.7958,-3.8031,-3.7973,-3.7973,-3.7782,-3.749,-3.749,-3.7109,-3.6597,0.0,0.0,0.0,0.0,0.0,0.0,0.0,-2.1456,-2.1657,-2.1964,-2.2004,-2.2004,-2.1991,-2.1991,-2.2044,0.0,0.0,0.0,0.0,0.0,0.0,-2.4162,-2.4587,-2.502,-2.5754,-2.5769,-2.593,-2.6252,0.0,-2.6325,-2.6486,-2.6343,-2.6185,-2.6185,-2.5913,-2.6056,-2.62,-2.6359,-2.6663,-2.6983,-2.713,-2.7305,-2.7495,-2.7993,0.0,0.0,-2.9866,-3.051,-3.1139,-3.1637,-3.2017,-3.2456,-3.3422,-3.3729,-3.3861,-3.4519,-3.471,-3.471,-3.471,-3.471,-3.471,-3.471,-3.471,-3.471,-3.471,-3.471,-3.471,-3.471,-3.471,-3.471,-3.471,-3.4827,-3.4988,-3.5134,-3.5573,-3.5939,-3.61,-3.6392,-3.6597,-3.6597,-3.6597,-3.6597,-3.6597,-3.6466,-3.6363,0.0,0.0,0.0,-3.5661,-3.5807,-3.6041,-3.6363,-3.6363,-3.6451,-3.6597,-3.6597,-3.6597,-3.6597,-3.6597,-3.6597,-3.6597,-3.6597,-3.6787,-3.7095,-3.7256,0.0,-3.7592,-3.7753,-3.7812,-3.7812,-3.7812,-3.7607,-3.7329,-3.7329,-3.7022,-3.6583,0.0,0.0,0.0,0.0,0.0,0.0,0.0,-2.1603,-2.183,-2.2352,-2.2472,-2.2432,-2.2191,-2.2178,-2.2271,0.0,0.0,0.0,0.0,0.0,0.0,0.0,0.0,0.0,-2.5418,0.0,0.0,-2.5813,-2.5813,0.0,0.0,0.0,0.0,0.0,-2.5813,-2.5813,-2.5813,-2.5886,-2.6105,0.0,0.0,-2.6705,-2.7056,0.0,0.0,0.0,0.0,-3.0232,-3.0832,-3.1549,-3.2017,-3.2441,-3.3349,-3.3671,-3.3846,-3.4432,-3.4651,-3.471,-3.471,-3.471,-3.471,-3.471,-3.471,-3.471,-3.471,-3.471,-3.471,-3.471,-3.471,-3.471,-3.471,-3.4958,-3.5163,-3.5163,-3.5705,-3.6114,-3.6114,-3.6392,-3.6597,-3.6597,-3.6597,-3.6597,-3.6597,-3.6597,0.0,0.0,0.0,0.0,-3.588,-3.6085,-3.6334,-3.6597,-3.6597,-3.6597,-3.6597,-3.6597,-3.6597,-3.6597,-3.6597,-3.6597,-3.6597,-3.6597,-3.6744,-3.6992,-3.7065,0.0,0.0,-3.7446,-3.7475,-3.7475,-3.7475,-3.7314,-3.7095,-3.7295,-3.7089,-3.6765,0.0,0.0,0.0,0.0,0.0,0.0,-2.151,-2.1777,-2.2058,-2.2378,-2.2659,-2.2806,-2.2779,-2.2779,-2.2792,0.0,0.0,0.0,0.0,0.0,0.0,0.0,0.0,0.0,0.0,0.0,0.0,-2.514,-2.514,0.0,0.0,0.0,0.0,0.0,0.0,-2.514,-2.5169,-2.5447,0.0,0.0,0.0,0.0,0.0,0.0,0.0,0.0,0.0,-3.0086,-3.0539,-3.1476,-3.2017,-3.2398,-3.3071,-3.3495,-3.3802,-3.4154,-3.4475,-3.471,-3.471,-3.471,-3.471,-3.471,-3.471,-3.471,-3.471,-3.471,-3.471,-3.471,-3.471,-3.471,-3.471,-3.4958,-3.5163,-3.5163,-3.5705,-3.6114,-3.6114,-3.6392,-3.6597,-3.6597,-3.6597,-3.6597,-3.6597,-3.6597,0.0,0.0,0.0,0.0,0.0,-3.6539,-3.6568,-3.6597,-3.6597,-3.6597,-3.6597,-3.6597,-3.6597,-3.6597,-3.6597,-3.6597,-3.6597,-3.6597,-3.6626,-3.667,0.0,0.0,0.0,-3.7007,-3.7139,-3.7139,-3.7139,-3.7124,-3.7095,-3.7695,-3.7685,-3.7401,0.0,0.0,0.0,0.0,0.0,0.0,-2.1737,-2.1911,-2.2151,-2.2619,-2.2792,-2.2859,-2.2859,-2.2859,-2.2859,-2.2859,0.0,0.0,0.0,0.0,0.0,0.0,0.0,0.0,0.0,0.0,-2.5052,-2.5052,-2.5052,0.0,0.0,0.0,0.0,0.0,0.0,-2.5052,-2.5066,-2.5183,0.0,0.0,0.0,0.0,0.0,0.0,0.0,0.0,0.0,0.0,-3.0232,-3.1402,-3.1885,-3.2105,-3.2749,-3.3173,-3.3539,-3.4066,-3.4314,-3.4446,-3.4651,-3.471,-3.471,-3.471,-3.471,-3.471,-3.471,-3.471,-3.471,-3.471,-3.471,-3.471,-3.471,-3.5119,-3.5456,-3.5456,-3.5983,-3.6407,-3.6407,-3.6524,-3.6597,-3.6597,-3.6597,-3.6597,0.0,0.0,0.0,0.0,0.0,0.0,0.0,-3.6597,-3.6597,-3.6597,-3.6597,-3.6597,-3.6597,-3.6597,-3.6597,-3.6597,-3.6597,-3.6597,-3.6597,-3.6597,-3.6597,-3.6612,0.0,0.0,0.0,-3.6744,-3.6802,-3.6802,-3.7199,-3.7199,-3.7397,-3.8189,-3.8688,-3.8909,0.0,0.0,0.0,0.0,0.0,-2.1283,-2.1777,-2.1937,-2.2164,-2.2672,-2.2806,-2.2859,-2.2859,-2.2859,-2.2859,-2.2859,-2.2859,0.0,0.0,0.0,0.0,0.0,0.0,0.0,0.0,0.0,-2.5052,-2.5052,-2.5052,-2.5052,0.0,0.0,0.0,-2.5052,0.0,0.0,0.0,0.0,0.0,0.0,0.0,0.0,0.0,0.0,0.0,0.0,0.0,0.0,0.0,0.0,0.0,-3.1915,-3.2559,-3.2924,-3.3232,-3.3875,-3.4139,-3.4285,-3.4622,-3.471,-3.471,-3.471,-3.471,-3.471,-3.471,-3.471,-3.471,-3.471,-3.471,-3.471,-3.471,-3.5222,-3.5646,-3.5646,-3.6187,-3.6597,-3.6597,-3.6597,-3.6597,-3.6597,-3.6597,-3.6597,0.0,0.0,0.0,0.0,0.0,0.0,0.0,-3.6597,-3.6597,-3.6597,-3.6597,-3.6597,-3.6597,-3.6597,-3.6597,-3.6597,-3.6597,-3.6597,-3.6597,-3.6597,-3.6597,-3.6597,0.0,0.0,0.0,-3.6597,-3.6597,-3.6597,-3.7204,-3.7598,-3.7795,-3.9151,-3.9915,-4.0449,0.0,0.0,0.0,0.0,0.0,0.0,-2.151,-2.1804,-2.2084,-2.2392,-2.2686,-2.2859,-2.2859,-2.2859,-2.2859,-2.2859,-2.2859,0.0,0.0,0.0,0.0,0.0,0.0,0.0,0.0,0.0,-2.5052,-2.5052,-2.5052,-2.5052,-2.5052,-2.5052,-2.5052,-2.5052,0.0,0.0,0.0,0.0,0.0,0.0,0.0,0.0,0.0,0.0,0.0,0.0,0.0,0.0,0.0,0.0,0.0,0.0,0.0,-3.2778,-3.291,-3.3554,-3.3963,-3.4285,-3.4622,-3.471,-3.471,-3.471,-3.471,-3.471,-3.471,-3.471,-3.471,-3.471,-3.471,-3.471,-3.471,-3.5222,-3.5646,-3.5646,-3.6187,-3.6597,-3.6597,-3.6597,-3.6597,-3.6597,-3.6597,-3.6597,-3.6597,0.0,0.0,0.0,0.0,0.0,0.0,-3.6597,-3.6597,-3.6597,-3.6597,-3.6597,-3.6597,-3.6597,-3.6597,-3.6597,-3.6597,-3.6597,-3.6597,-3.6597,-3.6597,0.0,0.0,0.0,0.0,-3.6597,-3.6597,-3.6597,-3.7204,-3.778,-3.8353,-4.0497,-4.164,-4.2392,0.0,0.0,0.0,0.0,0.0,0.0,-2.151,-2.1804,-2.2084,-2.2378,-2.2672,-2.2859,-2.2859,-2.2859,-2.2859,-2.2859,-2.2859,0.0,0.0,0.0,0.0,0.0,0.0,0.0,0.0,-2.4916,-2.5052,-2.5052,-2.5052,-2.5052,-2.5052,-2.5052,-2.5052,-2.5052,-2.5052,-2.5052,0.0,0.0,0.0,0.0,0.0,0.0,0.0,0.0,0.0,0.0,0.0,0.0,0.0,0.0,0.0,0.0,0.0,0.0,0.0,-3.3539,-3.3802,-3.4007,-3.4549,-3.471,-3.471,-3.471,-3.471,-3.471,-3.471,-3.471,-3.471,-3.471,-3.471,-3.471,-3.471,-3.5222,-3.5646,-3.5646,-3.6187,-3.6597,-3.6597,-3.6597,-3.6597,-3.6597,-3.6597,-3.6597,0.0,0.0,0.0,0.0,0.0,0.0,0.0,-3.6597,-3.6597,-3.6597,-3.6597,-3.6597,-3.6597,-3.6597,-3.6597,-3.6597,-3.6597,-3.6597,-3.6597,-3.6597,0.0,0.0,0.0,0.0,0.0,-3.6597,-3.6809,-3.7204,-3.8549,-3.9526,-4.0691,-4.2984,-4.4507,-4.5452,0.0,0.0,0.0,0.0,0.0,0.0,-2.1363,-2.1724,-2.2044,-2.2231,-2.2605,-2.2859,-2.2859,-2.2859,-2.2859,-2.2859,-2.2859,0.0,0.0,0.0,0.0,0.0,0.0,0.0,-2.4088,-2.4645,-2.4916,-2.4916,-2.5052,-2.5052,-2.5052,-2.5052,-2.5052,-2.5052,-2.5052,-2.5052,0.0,0.0,0.0,0.0,0.0,0.0,-2.7788,0.0,0.0,0.0,0.0,0.0,0.0,0.0,0.0,0.0,0.0,0.0,0.0,0.0,-3.3817,-3.4036,-3.4563,-3.471,-3.471,-3.471,-3.471,-3.471,-3.471,-3.471,-3.471,-3.471,-3.471,-3.471,-3.471,-3.5222,-3.5646,-3.5646,-3.6187,-3.6597,-3.6597,-3.6597,-3.6597,-3.6597,0.0,0.0,0.0,0.0,0.0,0.0,0.0,0.0,0.0,0.0,-3.6597,-3.6597,-3.6597,-3.6597,-3.6597,-3.6597,-3.6597,-3.6597,-3.6597,-3.6597,-3.6597,-3.6597,0.0,0.0,0.0,0.0,0.0,-3.6809,-3.7401,-3.8188,-3.972,-4.1062,-4.2409,-4.5074,-4.6579,-4.7531,0.0,0.0,0.0,0.0,0.0,0.0,0.0,-2.159,-2.1964,-2.1977,-2.2472,-2.2846,-2.2859,-2.2859,-2.2859,-2.2859,-2.2859,0.0,0.0,0.0,0.0,0.0,0.0,0.0,-2.3406,-2.4088,-2.4495,-2.4495,-2.4916,-2.5052,-2.5052,-2.5052,-2.5052,-2.5052,-2.5052,-2.5052,0.0,0.0,0.0,0.0,0.0,0.0,0.0,0.0,0.0,0.0,0.0,0.0,0.0,0.0,0.0,0.0,0.0,0.0,0.0,0.0,0.0,0.0,0.0,-3.471,-3.471,-3.471,-3.471,-3.471,-3.471,-3.471,0.0,-3.471,-3.471,-3.471,-3.471,-3.5222,-3.5646,-3.5646,-3.6187,-3.6597,-3.6597,-3.6597,-3.6597,-3.6597,-3.6597,0.0,0.0,0.0,0.0,0.0,0.0,0.0,0.0,0.0,-3.6597,-3.6597,-3.6597,-3.6597,-3.6597,-3.6597,-3.6597,-3.6597,-3.6597,-3.6597,-3.6597,-3.6597,0.0,0.0,0.0,0.0,0.0,-3.7401,-3.8188,-3.9346,-4.0885,-4.2409,-4.4092,-4.656,-4.8088,-4.9197,0.0,0.0,0.0,0.0,0.0,0.0,0.0,0.0,0.0,0.0,-2.2298,-2.2605,-2.2832,-2.2859,-2.2859,0.0,0.0,0.0,0.0,0.0,0.0,0.0,0.0,0.0,-2.3406,-2.4088,-2.4495,-2.4495,-2.4916,-2.5052,-2.5052,-2.5052,-2.5052,-2.5052,-2.5052,-2.5052,0.0,0.0,0.0,0.0,0.0,0.0,0.0,0.0,0.0,0.0,-2.9237,-2.9647,0.0,0.0,0.0,0.0,0.0,0.0,0.0,0.0,-3.3963,-3.4285,-3.4622,0.0,-3.471,-3.471,-3.471,-3.471,0.0,-3.471,-3.471,-3.471,-3.471,-3.471,-3.471,-3.5222,-3.5646,-3.5646,-3.6187,-3.6597,-3.6597,-3.6597,-3.6597,-3.6597,-3.6597,0.0,0.0,0.0,0.0,0.0,0.0,0.0,0.0,0.0,-3.6597,-3.6597,-3.6597,-3.6597,-3.6597,-3.6597,-3.6597,-3.6597,-3.6597,-3.6597,-3.6597,-3.6597,0.0,0.0,0.0,0.0,-3.7401,-3.8384,-3.9541,-4.0885,-4.2775,-4.4678,-4.6747,-4.8808,-4.9931,-5.0682,0.0,0.0,0.0,0.0,0.0,0.0,0.0,0.0,0.0,0.0,-2.2231,-2.2539,-2.2832,-2.2859,-2.2859,0.0,0.0,0.0,0.0,0.0,0.0,0.0,0.0,-2.3133,-2.3133,-2.3952,-2.4224,-2.4224,-2.4781,-2.5052,-2.5052,-2.5052,-2.5052,-2.5052,-2.5052,-2.5052,0.0,0.0,0.0,0.0,-2.672,0.0,0.0,0.0,0.0,0.0,-2.9266,-2.972,0.0,-3.1183,-3.1666,-3.1885,0.0,0.0,0.0,0.0,-3.3963,-3.4285,-3.4622,-3.471,-3.471,-3.471,-3.471,-3.471,-3.471,-3.471,-3.471,-3.471,-3.471,-3.4753,-3.4885,-3.531,-3.569,-3.5836,-3.6275,-3.6597,-3.6597,-3.6597,-3.6597,-3.6597,-3.6597,0.0,0.0,0.0,0.0,0.0,0.0,0.0,0.0,0.0,-3.6597,-3.6597,-3.6597,-3.6597,-3.6597,-3.6597,-3.6597,-3.6597,-3.6597,-3.6597,-3.6597,-3.6597,0.0,0.0,0.0,0.0,-3.858,-3.9541,-4.1078,-4.2792,-4.4868,-4.6747,-4.8624,-5.0114,-5.1046,-5.1429,0.0,0.0,0.0,0.0,0.0,0.0,0.0,0.0,0.0,0.0,0.0,0.0,0.0,0.0,0.0,0.0,0.0,0.0,0.0,0.0,0.0,0.0,-2.2859,-2.2859,-2.2859,-2.3679,-2.3966,-2.3966,-2.4781,-2.5052,-2.5052,-2.5052,-2.5052,-2.5052,-2.5052,-2.5081,-2.5169,0.0,0.0,0.0,-2.6749,0.0,0.0,0.0,0.0,0.0,0.0,0.0,0.0,-3.092,-3.149,-3.1856,-3.2178,0.0,0.0,0.0,0.0,0.0,-3.4622,-3.471,-3.471,-3.471,-3.471,-3.471,-3.471,-3.471,-3.471,-3.471,-3.471,-3.4797,-3.5105,-3.5427,-3.5749,-3.607,-3.6392,-3.6597,-3.6597,-3.6597,-3.6597,-3.6597,0.0,0.0,0.0,0.0,0.0,0.0,0.0,0.0,0.0,0.0,0.0,-3.6597,-3.6597,-3.6597,-3.6597,-3.6597,-3.6597,-3.6597,-3.6597,-3.6597,-3.6597,-3.6597,-3.6809,0.0,0.0,0.0,-3.9931,-4.1078,-4.2792,-4.4885,-4.6766,-4.8439,-4.9931,-5.0864,-5.1429,-5.1791,0.0,0.0,0.0,0.0,0.0,0.0,0.0,0.0,0.0,0.0,0.0,0.0,0.0,0.0,0.0,0.0,0.0,0.0,0.0,0.0,0.0,-2.2859,-2.2859,-2.2859,-2.2859,-2.3679,-2.3966,-2.3966,-2.4781,-2.5052,-2.5052,-2.5052,-2.5052,-2.5052,-2.5052,-2.5213,-2.5476,-2.5857,0.0,0.0,0.0,0.0,0.0,0.0,0.0,0.0,0.0,0.0,0.0,-3.0671,-3.13,-3.1856,-3.2178,0.0,0.0,0.0,0.0,0.0,-3.4622,-3.471,-3.471,-3.471,-3.471,-3.471,-3.471,-3.471,-3.471,-3.471,-3.471,-3.4797,-3.5105,-3.5427,-3.5749,-3.607,-3.6392,-3.6597,0.0,0.0,-3.6597,0.0,0.0,0.0,0.0,0.0,0.0,0.0,0.0,0.0,0.0,0.0,0.0,-3.6597,-3.6597,-3.6597,-3.6597,-3.6597,-3.6597,-3.6597,-3.6597,-3.6597,-3.6597,-3.6597,-3.6809,0.0,0.0,-3.9346,-4.0513,-4.2426,-4.4507,-4.6392,-4.7903,-4.9564,-5.0884,-5.1429,-5.1812,-5.1791,0.0,0.0,0.0,0.0,0.0,0.0,0.0,0.0,0.0,0.0,0.0,0.0,0.0,0.0,0.0,0.0,0.0,0.0,0.0,0.0,-2.2859,-2.2859,-2.2859,-2.2859,-2.2859,-2.3679,-2.4036,-2.4204,-2.489,-2.5403,-2.5579,-2.5388,-2.5315,-2.5315,-2.5315,-2.5388,-2.5564,-2.6061,-2.6369,-2.653,0.0,0.0,0.0,0.0,0.0,0.0,0.0,0.0,0.0,0.0,-3.1139,-3.1593,-3.1915,0.0,0.0,0.0,0.0,0.0,-3.4358,-3.4578,-3.471,-3.471,-3.471,-3.471,-3.471,-3.471,-3.471,-3.471,-3.471,-3.4856,-3.5324,-3.5544,-3.5807,-3.6305,-3.6363,-3.6407,-3.6583,0.0,0.0,0.0,0.0,0.0,0.0,0.0,0.0,0.0,0.0,0.0,0.0,0.0,0.0,0.0,-3.6597,-3.6597,-3.6597,-3.6597,-3.6597,-3.6597,-3.6597,-3.6795,-3.7007,-3.7007,-3.7401,-3.8384,0.0,-4.0319,-4.185,-4.3937,-4.6016,-4.7903,-4.938,-5.0682,-5.1409,-5.1522,-5.1439,-5.1439,0.0,0.0,0.0,0.0,0.0,0.0,0.0,0.0,0.0,0.0,0.0,0.0,0.0,0.0,0.0,0.0,0.0,0.0,0.0,-2.2859,-2.2859,-2.2859,-2.2859,-2.2859,-2.2859,-2.3679,-2.4106,-2.4414,-2.5106,-2.5696,-2.6018,-2.5754,-2.5637,-2.5637,-2.5637,-2.5681,-2.5783,-2.6296,-2.6544,-2.6647,0.0,0.0,0.0,0.0,0.0,0.0,0.0,0.0,0.0,0.0,0.0,0.0,0.0,0.0,0.0,-3.3056,-3.348,-3.3802,-3.4124,-3.4461,-3.471,-3.471,-3.471,-3.471,-3.471,-3.471,-3.4724,-3.4797,-3.4812,-3.4988,-3.5544,-3.5646,-3.5807,-3.6305,-3.6173,-3.6114,0.0,0.0,0.0,0.0,0.0,0.0,0.0,0.0,0.0,0.0,0.0,0.0,0.0,0.0,0.0,0.0,-3.6597,-3.6597,-3.6597,-3.6795,-3.6809,-3.6809,-3.6809,-3.7007,-3.7598,-3.7795,-3.8188,-3.9167,-4.0125,-4.1464,-4.3383,-4.5452,-4.7326,-4.9216,-5.0499,-5.1367,-5.1584,-5.1108,-5.0943,-5.0943,0.0,0.0,0.0,0.0,0.0,0.0,0.0,0.0,0.0,0.0,0.0,0.0,0.0,0.0,0.0,0.0,0.0,0.0,0.0,-2.2859,-2.2859,-2.2859,-2.2859,-2.2859,-2.2859,-2.3679,-2.4106,-2.4414,-2.5106,-2.5696,-2.6018,-2.5988,-2.5974,-2.5974,-2.5974,-2.6149,-2.6442,-2.6486,-2.6676,-2.6983,-2.7305,0.0,0.0,0.0,0.0,0.0,0.0,0.0,0.0,0.0,0.0,0.0,0.0,0.0,-3.2412,-3.3056,-3.348,-3.3802,-3.4124,-3.4461,-3.471,-3.471,-3.471,-3.471,-3.471,-3.471,-3.4783,-3.5061,-3.5134,-3.5251,-3.5588,-3.5646,-3.5661,-3.5705,-3.569,0.0,0.0,0.0,0.0,0.0,0.0,0.0,0.0,0.0,0.0,0.0,0.0,0.0,0.0,0.0,0.0,0.0,0.0,-3.6597,-3.6597,-3.7007,-3.7401,-3.7401,-3.7401,-3.7598,-3.8203,-3.858,-3.9167,-3.9752,-4.164,-4.3175,-4.4317,-4.6953,-4.8663,-4.9604,-5.0702,-5.1162,-5.1108,-5.0632,-5.0466,-5.0466,0.0,0.0,0.0,0.0,0.0,0.0,0.0,0.0,0.0,0.0,0.0,0.0,0.0,0.0,0.0,0.0,0.0,0.0,0.0,-2.2859,-2.2859,-2.2859,-2.2859,-2.2859,-2.2859,-2.3598,-2.4247,-2.4708,-2.5811,-2.65,-2.6617,-2.6413,-2.6325,-2.6325,-2.6325,-2.6383,-2.6515,-2.672,-2.6881,-2.7013,-2.7349,-2.7598,0.0,0.0,0.0,0.0,0.0,0.0,0.0,0.0,-3.0642,-3.1095,-3.1637,-3.1885,-3.2105,-3.2763,-3.3319,-3.3758,-3.3875,-3.43,-3.471,-3.471,-3.471,-3.471,-3.471,-3.471,-3.4797,-3.509,-3.5163,-3.5266,-3.5588,-3.5646,-3.5646,-3.5646,-3.547,0.0,0.0,0.0,0.0,0.0,0.0,0.0,0.0,0.0,0.0,0.0,0.0,0.0,0.0,0.0,0.0,0.0,0.0,-3.6597,-3.6597,-3.7204,-3.7598,-3.781,-3.781,-3.8384,-3.9167,-3.9736,-4.0513,-4.1674,-4.3175,-4.4696,-4.6204,-4.7903,-4.9222,-5.0075,-5.051,-5.0661,-5.0632,-5.0177,-5.0011,-5.0011,0.0,0.0,0.0,0.0,0.0,0.0,0.0,0.0,0.0,0.0,0.0,0.0,0.0,0.0,0.0,0.0,0.0,0.0,-2.2859,-2.2859,-2.2859,-2.2859,-2.2859,-2.2859,-2.2859,-2.3525,-2.4245,-2.4876,-2.6373,-2.6983,-2.6983,-2.6764,-2.6661,-2.6661,-2.6661,-2.6661,-2.6676,-2.6896,-2.7056,-2.7174,-2.7495,-2.7817,0.0,0.0,0.0,0.0,0.0,0.0,0.0,0.0,-3.0642,-3.0934,-3.1593,-3.1798,-3.1929,-3.2573,-3.3232,-3.3729,-3.3729,-3.4212,-3.471,-3.471,-3.471,-3.471,-3.471,-3.471,-3.4827,-3.5222,-3.5397,-3.5529,-3.5749,-3.5631,-3.5485,0.0,0.0,0.0,0.0,0.0,0.0,0.0,0.0,0.0,0.0,0.0,0.0,0.0,0.0,0.0,0.0,0.0,0.0,0.0,0.0,-3.6612,-3.6809,-3.7401,-3.7991,-3.8595,-3.8971,-3.9557,-4.0319,-4.1094,-4.2234,-4.3574,-4.4885,-4.6392,-4.7883,-4.8856,-4.9653,-5.0305,-5.0208,-5.0218,-5.0156,-4.9701,-4.9535,-4.9535,0.0,0.0,0.0,0.0,0.0,0.0,0.0,0.0,0.0,0.0,0.0,0.0,0.0,0.0,0.0,0.0,0.0,0.0,-2.2859,-2.2859,-2.2859,-2.2859,-2.2859,-2.2859,-2.2859,-2.346,-2.4195,-2.489,-2.6373,-2.6983,-2.6983,-2.6983,-2.6983,-2.6983,-2.6983,-2.6983,-2.6983,-2.6983,-2.7174,-2.751,-2.7817,-2.8154,-2.8505,0.0,0.0,0.0,0.0,0.0,0.0,0.0,-3.0817,-3.0934,-3.1593,-3.1798,-3.1929,-3.2588,-3.3232,-3.3729,-3.3729,-3.4212,-3.471,-3.471,-3.471,-3.471,-3.471,-3.471,-3.4885,-3.5514,-3.5895,-3.6114,-3.6114,-3.5588,0.0,0.0,0.0,0.0,0.0,0.0,0.0,0.0,0.0,0.0,0.0,0.0,0.0,0.0,0.0,0.0,0.0,0.0,0.0,0.0,0.0,0.0,-3.7401,-3.8007,-3.8791,-3.9752,-4.0901,-4.1271,-4.1464,-4.3001,-4.4145,-4.5281,-4.7345,-4.8459,-4.8973,-5.0015,-5.0463,-5.0363,-4.9928,-4.9742,-4.9701,-4.9224,-4.9059,-4.9059,0.0,0.0,0.0,0.0,0.0,0.0,0.0,0.0,0.0,0.0,0.0,0.0,0.0,0.0,0.0,0.0,0.0,0.0,-2.2859,-2.2859,-2.2859,-2.2859,-2.2859,-2.2859,-2.2859,-2.4008,-2.4957,-2.552,-2.6459,-2.6983,-2.6983,-2.6983,-2.6983,-2.6983,-2.6983,-2.6983,-2.6983,-2.6983,-2.7174,-2.751,-2.7817,-2.8271,-2.8798,0.0,0.0,0.0,0.0,0.0,0.0,0.0,0.0,0.0,-3.1593,-3.1798,-3.1973,-3.2851,-3.3407,-3.3773,-3.4007,-3.4388,-3.471,-3.471,-3.471,-3.471,-3.471,-3.471,-3.4885,-3.5514,-3.5544,-3.5514,-3.5749,-3.5266,0.0,0.0,0.0,0.0,0.0,0.0,0.0,0.0,0.0,0.0,0.0,0.0,0.0,0.0,0.0,0.0,0.0,0.0,0.0,0.0,0.0,0.0,-3.7401,-3.858,-3.9557,-4.0319,-4.2042,-4.3001,-4.3001,-4.4507,-4.5828,-4.7345,-4.8663,-4.9584,-5.0439,-5.0408,-5.0187,-4.9908,-4.9452,-4.9266,-4.9245,-4.9121,-4.9059,-4.9059,0.0,0.0,0.0,0.0,0.0,0.0,0.0,0.0,0.0,0.0,-2.2859,-2.2859,0.0,0.0,0.0,0.0,0.0,0.0,-2.2859,-2.2859,-2.2859,-2.2859,-2.2859,-2.2979,-2.322,-2.4524,-2.531,-2.58,-2.6546,-2.6983,-2.6983,-2.6983,-2.7056,-2.7188,-2.7188,-2.7188,-2.7188,-2.732,-2.7481,-2.77,-2.8008,-2.852,-2.912,0.0,0.0,0.0,0.0,0.0,0.0,0.0,0.0,0.0,-3.1783,-3.1988,-3.2134,-3.2851,-3.3378,-3.3773,-3.3978,-3.4358,-3.471,-3.471,-3.471,-3.4739,-3.4856,-3.4988,-3.5192,-3.5573,-3.5588,-3.5602,-3.5792,-3.531,0.0,0.0,0.0,0.0,0.0,0.0,0.0,0.0,0.0,0.0,0.0,0.0,0.0,0.0,0.0,0.0,0.0,0.0,0.0,0.0,0.0,0.0,-3.8384,-3.9362,-4.0513,-4.1657,-4.3574,-4.4714,-4.547,-4.6392,-4.7512,-4.9012,-4.9771,-5.0498,-5.0833,-5.029,-4.9887,-4.9452,-4.9183,-4.9059,-4.9059,-4.9059,-4.9059,-4.9059,0.0,0.0,0.0,0.0,0.0,0.0,0.0,0.0,0.0,-2.2859,-2.2859,-2.2859,0.0,0.0,0.0,-2.2859,-2.2859,-2.2859,-2.2859,-2.2859,-2.2859,-2.2859,-2.2886,-2.3193,-2.3794,-2.4781,-2.5492,-2.58,-2.6546,-2.6983,-2.6983,-2.6983,-2.7159,-2.7481,-2.7481,-2.7495,-2.7539,-2.7832,-2.7964,-2.8022,-2.8344,-2.8856,-2.9456,-2.9778,0.0,0.0,0.0,0.0,0.0,0.0,0.0,0.0,-3.2046,-3.2266,-3.2354,-3.2705,-3.3246,-3.3744,-3.3773,-3.4227,-3.471,-3.471,-3.4724,-3.4827,-3.509,-3.5427,-3.569,-3.569,-3.5866,-3.6041,-3.607,0.0,0.0,0.0,0.0,0.0,0.0,0.0,0.0,0.0,0.0,0.0,0.0,0.0,0.0,0.0,0.0,0.0,0.0,0.0,0.0,0.0,0.0,0.0,-3.9752,-4.0513,-4.185,0.0,-4.5263,-4.6766,-4.8273,-4.8273,-4.9012,-5.0459,-5.0936,-5.0839,-5.0384,-4.9949,-4.9494,-4.9059,-4.9059,-4.9059,-4.9059,-4.9059,-4.9059,-4.9059,0.0,0.0,0.0,0.0,0.0,0.0,0.0,0.0,-2.2859,-2.2859,-2.2859,-2.2859,-2.2859,-2.2859,0.0,-2.2859,-2.2859,-2.2859,-2.2859,-2.2859,-2.2859,-2.2859,-2.31,-2.35,-2.4102,-2.4589,-2.5202,-2.58,-2.6546,-2.6983,-2.6983,-2.6983,-2.7159,-2.7481,-2.7481,-2.7613,-2.7847,-2.792,-2.8095,-2.8359,-2.8666,-2.9178,-2.9793,-3.0129,-3.0437,0.0,0.0,0.0,0.0,0.0,0.0,0.0,-3.1783,-3.2076,-3.2398,-3.2968,-3.3422,-3.3788,-3.4036,-3.4402,-3.471,-3.471,-3.4885,-3.5075,-3.5134,-3.5602,-3.6012,-3.6012,-3.5661,-3.5441,0.0,0.0,0.0,0.0,0.0,0.0,0.0,0.0,0.0,0.0,0.0,0.0,0.0,0.0,0.0,0.0,0.0,0.0,0.0,0.0,0.0,0.0,0.0,-3.9151,-4.0319,-4.2042,-4.3764,0.0,-4.6953,-4.8459,-4.9748,-4.9748,-5.0479,-5.1388,-5.1136,-5.0839,-5.0384,-4.9949,-4.9494,-4.9059,-4.9059,-4.9059,-4.9059,-4.9059,-4.9059,-4.9059,0.0,0.0,0.0,0.0,0.0,0.0,0.0,0.0,-2.2859,-2.2859,-2.2859,-2.2859,-2.2859,-2.2859,0.0,0.0,-2.2859,-2.2859,-2.2859,-2.2859,-2.2859,-2.2859,-2.33,-2.3688,-2.3995,-2.4698,-2.5139,-2.5576,-2.6314,-2.6838,-2.6998,-2.7144,-2.7393,-2.7715,-2.7861,-2.8022,-2.8198,-2.8344,-2.8417,-2.8476,-2.893,-2.9427,-2.9895,-3.0217,-3.0554,-3.0817,-3.0817,0.0,0.0,0.0,0.0,0.0,0.0,0.0,-3.2354,-3.269,-3.3232,-3.3773,-3.3934,-3.4329,-3.471,-3.471,-3.4929,-3.5192,-3.5353,-3.5763,-3.6158,-3.6319,-3.5953,0.0,0.0,0.0,0.0,0.0,0.0,0.0,0.0,0.0,0.0,0.0,0.0,0.0,0.0,0.0,0.0,0.0,0.0,0.0,0.0,0.0,0.0,0.0,-3.8971,-4.0319,-4.1674,-4.3556,-4.5452,-4.6953,-4.8459,-4.9748,-5.1046,-5.1046,-5.1227,-5.1771,-5.1087,-5.0653,-5.0363,-4.9701,-4.9287,-4.9059,-4.9059,-4.9059,-4.9059,-4.9059,-4.9059,-4.9059,0.0,0.0,0.0,0.0,0.0,0.0,0.0,0.0,0.0,-2.2859,-2.2859,-2.2859,-2.2859,-2.2859,-2.2859,0.0,0.0,0.0,-2.2859,-2.2859,-2.2886,-2.2939,-2.342,-2.3714,-2.3768,-2.4539,-2.4952,-2.511,-2.5809,-2.6402,-2.691,-2.7247,-2.7598,-2.7964,-2.8227,-2.8417,-2.8534,-2.8783,-2.8739,-2.8578,-2.9208,-2.9617,-2.991,-3.029,-3.0598,-3.0817,-3.0817,-3.0817,-3.0861,-3.1139,0.0,0.0,0.0,0.0,-3.228,-3.228,-3.2968,-3.3729,-3.3729,-3.4212,-3.471,-3.471,-3.4929,-3.5236,-3.5573,-3.5895,-3.6217,-3.6539,0.0,0.0,0.0,0.0,0.0,0.0,0.0,0.0,0.0,0.0,0.0,0.0,0.0,0.0,0.0,0.0,0.0,0.0,0.0,0.0,0.0,0.0,-3.7447,-3.8384,-3.9931,-4.1464,-4.3192,-4.5263,-4.6953,-4.8459,-4.9931,-5.1046,-5.1791,-5.1791,-5.1791,-5.175,-5.0818,-5.0425,-5.0342,-4.9431,-4.9059,-4.9059,-4.9059,-4.9059,-4.9059,-4.9059,-4.9059,-4.9059,0.0,0.0,0.0,0.0,0.0,0.0,0.0,0.0,0.0,0.0,-2.2859,-2.2859,-2.2859,-2.2859,-2.2859,-2.2859,-2.2859,-2.2859,-2.2859,0.0,0.0,-2.3247,-2.334,-2.3514,-2.3768,-2.3991,-2.4147,-2.4364,-2.4832,-2.5427,-2.6143,-2.675,-2.7378,-2.7949,-2.7993,-2.8315,-2.8827,-2.8871,-2.8871,-2.8886,-2.9544,-2.9822,-2.9925,-3.0539,-3.0788,-3.0817,-3.0817,-3.0817,-3.0832,-3.0876,-3.1081,0.0,0.0,0.0,-3.228,-3.228,-3.2968,-3.3729,-3.3729,-3.4212,-3.471,-3.471,-3.4929,-3.5236,-3.5573,-3.5895,-3.6217,0.0,0.0,0.0,0.0,0.0,0.0,0.0,0.0,0.0,0.0,0.0,0.0,0.0,0.0,0.0,0.0,0.0,0.0,0.0,0.0,0.0,0.0,-3.6744,-3.7642,-3.9346,-4.1078,-4.2792,-4.4714,-4.6785,-4.8459,-4.9931,-5.1046,-5.161,-5.1791,-5.1791,-5.1791,-5.175,-5.0818,-5.0425,-5.0342,-4.9431,-4.9059,-4.9059,-4.9059,-4.9059,-4.9059,-4.9059,-4.9059,-4.9059,0.0,0.0,0.0,0.0,0.0,0.0,0.0,0.0,0.0,0.0,0.0,-2.2859,-2.2859,-2.2859,-2.2859,-2.2859,-2.2859,-2.2859,-2.2859,-2.2859,-2.2926,-2.306,-2.3233,-2.3394,-2.3514,-2.3688,-2.3958,-2.433,-2.496,-2.5413,-2.5953,-2.6749,-2.7335,-2.7964,-2.8139,-2.8476,-2.8886,-2.8886,-2.8988,-2.9222,-2.9866,-3.0246,-3.0466,-3.1124,-3.1256,-3.1095,-3.1095,-3.0978,-3.0817,-3.0817,-3.092,-3.1037,-3.1037,0.0,0.0,0.0,-3.2705,-3.3539,-3.3905,-3.4344,-3.471,-3.471,-3.4929,-3.5236,-3.5573,-3.5895,-3.6217,0.0,0.0,0.0,0.0,0.0,0.0,0.0,0.0,0.0,0.0,0.0,0.0,0.0,0.0,0.0,0.0,0.0,0.0,0.0,0.0,0.0,-3.6116,-3.7211,-3.8509,-3.982,-4.2116,-4.4127,-4.5828,-4.7903,-4.9768,-5.1227,-5.161,-5.1791,-5.1791,-5.1791,-5.1791,-5.175,-5.0818,-5.0425,-5.0342,-4.9431,-4.9059,-4.9059,-4.9059,-4.9059,-4.9059,-4.9059,-4.9059,-4.923,0.0,0.0,0.0,0.0,0.0,0.0,0.0,0.0,0.0,0.0,0.0,-2.2859,-2.2859,0.0,0.0,0.0,-2.2859,-2.2859,-2.2859,-2.2859,-2.2859,-2.2859,-2.3086,-2.3207,-2.3207,-2.342,-2.3701,-2.4164,-2.4834,-2.5456,-2.5892,-2.6691,-2.7335,-2.7964,-2.8212,-2.8534,-2.8886,-2.8886,-2.9076,-2.9427,-3.0086,-3.0583,-3.1022,-3.1666,-3.1768,-3.1549,-3.1461,-3.1227,-3.0934,-3.0846,-3.0817,-3.0817,-3.0817,-3.1271,0.0,0.0,0.0,-3.3495,-3.4066,-3.4461,-3.471,-3.471,-3.4871,-3.5149,-3.5544,-3.5822,-3.6114,0.0,0.0,0.0,0.0,0.0,0.0,0.0,0.0,0.0,0.0,0.0,0.0,0.0,0.0,0.0,0.0,0.0,0.0,0.0,0.0,0.0,-3.6269,-3.7741,-3.9227,-4.0536,-4.3158,-4.5452,-4.7139,-4.9216,-5.0702,-5.1791,-5.1791,-5.1791,-5.1791,-5.1688,-5.1626,-5.1584,-5.0777,-5.0425,-5.0342,-4.9431,-4.9059,-4.9059,-4.9059,-4.9059,-4.9059,-4.9059,-4.923,-4.923,0.0,0.0,0.0,0.0,0.0,0.0,0.0,0.0,0.0,0.0,0.0,-2.2859,-2.2859,-2.2859,-2.2859,-2.2859,-2.2859,-2.2859,-2.2859,-2.2859,-2.2859,-2.2859,-2.2873,0.0,-2.2886,-2.2899,-2.3174,-2.3434,-2.4164,-2.4889,-2.561,-2.6546,-2.7335,-2.7949,-2.7964,-2.8315,-2.8886,-2.8886,-2.9076,-2.9427,-3.0086,-3.0729,-3.1359,-3.2002,-3.2251,-3.2193,-3.1885,-3.1563,-3.1242,-3.0934,-3.0817,-3.0817,-3.0817,-3.1271,-3.1798,0.0,0.0,0.0,-3.4124,-3.4461,-3.471,-3.471,-3.471,-3.4885,-3.55,0.0,0.0,0.0,0.0,0.0,0.0,0.0,0.0,0.0,0.0,0.0,0.0,0.0,0.0,0.0,0.0,0.0,0.0,0.0,0.0,0.0,0.0,0.0,-3.7226,-3.8135,-3.9796,-4.2055,-4.45,-4.6766,-4.8643,-5.0682,-5.1791,-5.1791,-5.1791,-5.1791,-5.1791,-5.1357,-5.115,-5.1108,-5.0632,-5.0425,-5.0342,-4.9431,-4.9059,-4.9059,-4.9059,-4.9059,-4.9059,-4.9059,-4.9401,-4.9742,0.0,0.0,0.0,0.0,0.0,0.0,0.0,0.0,0.0,0.0,0.0,0.0,0.0,-2.2859,-2.2859,-2.2859,-2.2859,-2.2859,-2.2859,-2.2859,-2.2859,-2.2859,-2.2859,-2.2859,-2.2859,-2.306,-2.3336,-2.3816,-2.4666,-2.5257,-2.5892,-2.6896,-2.7539,-2.7964,-2.8169,-2.8608,-2.9208,-2.9208,-2.9632,-3.0364,-3.1022,-3.1666,-3.2324,-3.2968,-3.2954,-3.2588,-3.2456,-3.2076,-3.1607,-3.149,-3.1446,-3.1417,-3.1198,-3.1578,-3.2149,-3.2368,-3.2895,-3.3495,-3.3817,-3.4139,-3.4446,-3.4651,-3.471,-3.4871,-3.55,-3.5646,0.0,0.0,0.0,0.0,0.0,0.0,0.0,0.0,0.0,0.0,0.0,0.0,0.0,0.0,0.0,0.0,0.0,0.0,0.0,0.0,0.0,0.0,-3.7087,-3.8723,-4.0561,-4.2411,-4.5038,-4.7615,-5.0317,-5.1248,-5.1791,-5.1791,-5.1791,-5.1791,-5.1791,-5.1315,-5.1108,-5.1067,-5.0322,-4.999,-4.9949,-4.9328,-4.9059,-4.9059,-4.9059,-4.9059,-4.9059,-4.9059,-4.9401,-4.9742,0.0,0.0,0.0,0.0,0.0,0.0,0.0,0.0,-2.3701,-2.35,0.0,0.0,0.0,0.0,-2.2979,-2.2873,-2.2859,-2.2899,-2.3006,-2.2926,-2.2953,-2.3153,-2.3073,-2.306,-2.3166,-2.3367,-2.3787,-2.4274,-2.4988,-2.5669,-2.6208,-2.7174,-2.7744,-2.7978,-2.8505,-2.8988,-2.9383,-2.9383,-2.9881,-3.0715,-3.1373,-3.209,-3.2837,-3.348,-3.3539,-3.3246,0.0,0.0,0.0,-3.2032,-3.1959,-3.1885,-3.1446,-3.1681,-3.2193,-3.2515,-3.291,-3.329,-3.351,-3.389,-3.4271,-3.449,-3.4622,-3.4841,-3.5368,-3.5573,0.0,0.0,0.0,0.0,0.0,0.0,0.0,0.0,0.0,0.0,0.0,0.0,0.0,0.0,0.0,0.0,0.0,0.0,0.0,0.0,0.0,0.0,-3.7823,-4.0008,-4.2092,-4.4433,-4.6568,-4.8946,-5.1248,-5.161,-5.1791,-5.1791,-5.1791,-5.1729,-5.1564,-5.1087,-5.0798,-5.0611,-4.9845,-4.9618,-4.9721,-4.9245,-4.9059,-4.9059,-4.9059,-4.9059,-4.9059,-4.923,-4.9572,-5.0061,0.0,0.0,0.0,0.0,0.0,0.0,0.0,0.0,-2.3821,-2.3808,0.0,0.0,0.0,0.0,0.0,-2.2913,-2.2886,-2.3006,-2.3313,-2.3046,-2.314,-2.3728,-2.3487,-2.3474,-2.3768,-2.3781,-2.4195,-2.4876,-2.5198,-2.5783,-2.653,-2.7495,-2.7949,-2.7993,-2.8944,-2.9369,-2.9398,-2.9398,-2.9778,-3.0437,-3.1081,-3.1915,-3.2851,-3.3495,-3.3934,0.0,-3.3846,-3.3524,0.0,-3.2544,0.0,-3.2193,-3.1549,-3.1563,-3.1871,-3.2193,-3.2734,-3.3232,0.0,0.0,0.0,-3.4212,-3.4461,-3.4783,-3.509,0.0,0.0,0.0,0.0,0.0,0.0,0.0,0.0,0.0,0.0,0.0,0.0,0.0,0.0,0.0,0.0,0.0,0.0,0.0,0.0,0.0,0.0,-3.8926,-3.9822,-4.1639,-4.4398,-4.8164,-4.9131,-5.0437,-5.1791,-5.1791,-5.1791,-5.1791,-5.1791,-5.1543,-5.1087,-5.0611,-5.0156,-4.9721,-4.9266,-4.9328,-4.9701,-4.9245,-4.9059,-4.9059,-4.9059,-4.9059,-4.9059,-4.9572,-5.0061,-5.04,0.0,0.0,0.0,0.0,0.0,-2.5277,-2.5277,-2.513,-2.4957,0.0,0.0,0.0,-2.3995,-2.3781,-2.3607,-2.3527,-2.3514,-2.346,-2.334,-2.3247,-2.3273,-2.3447,-2.3367,-2.3474,-2.3768,-2.3981,-2.4399,-2.4876,-2.5408,-2.5997,-2.653,-2.7495,-2.7949,-2.7978,-2.8695,-2.9281,-2.9749,-2.9983,-3.0451,-3.111,-3.1754,-3.2456,0.0,0.0,0.0,0.0,0.0,-3.3671,-3.3568,0.0,-3.3173,-3.2866,-3.2222,-3.2076,-3.2163,-3.2251,-3.2573,-3.2954,-3.3188,0.0,0.0,0.0,0.0,0.0,0.0,0.0,0.0,0.0,0.0,0.0,0.0,0.0,0.0,0.0,0.0,0.0,0.0,0.0,0.0,0.0,0.0,0.0,0.0,0.0,0.0,0.0,-3.9457,-4.0203,-4.0912,-4.3271,-4.5896,-4.8255,-4.9492,-5.0797,-5.1791,-5.1791,-5.1791,-5.1791,-5.146,-5.1232,-5.1087,-5.0301,-4.9866,-4.9721,-4.9266,-4.9142,-4.9245,-4.9121,-4.9059,-4.9059,-4.9059,-4.9059,-4.9059,-4.9572,-5.0061,-5.04,0.0,0.0,-2.6453,-2.6279,-2.6146,-2.6052,-2.6052,-2.5852,-2.5638,0.0,0.0,0.0,-2.4596,-2.4302,-2.4088,-2.3968,-2.3955,-2.3875,-2.3701,-2.3581,-2.3621,-2.3861,-2.3754,-2.3834,-2.4128,-2.4302,-2.4793,-2.545,-2.5814,-2.641,-2.713,-2.7832,-2.8154,-2.8183,-2.8812,-2.9383,-2.9881,-3.0217,-3.0642,0.0,-3.1812,0.0,0.0,-3.3554,-3.4022,0.0,0.0,0.0,-3.4124,-3.3978,-3.3539,0.0,0.0,-3.228,-3.228,-3.228,-3.2515,-3.2807,-3.2997,-3.329,-3.3612,-3.3934,0.0,0.0,0.0,0.0,0.0,0.0,0.0,0.0,0.0,0.0,0.0,0.0,0.0,0.0,0.0,0.0,0.0,0.0,0.0,0.0,0.0,0.0,0.0,0.0,-4.1092,-4.2532,-4.3623,-4.5268,-4.6914,-4.8791,-4.9587,-5.0592,-5.1791,-5.1791,-5.1791,-5.1791,-5.1522,-5.1294,-5.1087,-5.0363,-4.9928,-4.9721,-4.9266,-4.9059,-4.9059,-4.9059,-4.9059,-4.9059,-4.9059,-4.923,-4.9401,-4.9891,-5.0231,-5.0781,0.0,0.0,-2.7268,-2.7268,-2.7041,-2.6867,-2.6867,-2.644,-2.6106,0.0,-2.5838,-2.5531,-2.5211,-2.4943,-2.4663,-2.4369,-2.4342,-2.4315,-2.4249,-2.4008,-2.4075,-2.4569,-2.4342,-2.4356,-2.4676,-2.469,-2.5269,-2.6304,-2.6304,-2.6908,-2.7964,-2.8286,-2.8461,-2.852,-2.9105,-2.9573,-2.9939,-3.0232,-3.0554,-3.0934,-3.1593,-3.2237,0.0,0.0,-3.4139,0.0,-3.4666,-3.4666,-3.4651,-3.4329,-3.3612,0.0,0.0,-3.2339,-3.2339,-3.2295,-3.2515,-3.2778,-3.2822,-3.3056,-3.3378,-3.37,-3.4036,0.0,0.0,0.0,0.0,0.0,0.0,0.0,0.0,0.0,0.0,0.0,0.0,0.0,0.0,0.0,0.0,0.0,0.0,0.0,0.0,0.0,-3.9839,-4.1166,-4.3143,-4.5102,-4.7026,-4.7181,-4.7909,-4.9678,-4.9698,-5.0504,-5.1791,-5.1791,-5.1791,-5.1791,-5.175,-5.1501,-5.1087,-5.0632,-5.0177,-4.9742,-4.9328,-4.9121,-4.9059,-4.9059,-4.9059,-4.9059,-4.9059,-4.9401,-4.9742,-5.0231,-5.0738,-5.1162,-2.7268,-2.7268,-2.7268,-2.7268,-2.7215,-2.7175,-2.7175,-2.7081,-2.7014,-2.7014,-2.6747,-2.636,-2.5838,-2.5732,-2.5585,-2.5277,-2.5264,-2.5064,-2.4583,-2.4502,-2.4409,-2.4289,-2.4235,-2.4449,-2.4983,-2.4997,-2.5582,-2.6626,-2.6626,-2.7122,-2.7964,-2.8286,-2.8564,-2.8812,-2.9208,-2.9705,-3.0261,-3.032,0.0,-3.1271,-3.1929,0.0,-3.3188,-3.3583,-3.4139,-3.4666,-3.4402,-3.4475,-3.4651,0.0,-3.3919,-3.3436,0.0,0.0,-3.2632,-3.2368,-3.2515,-3.2822,-3.3085,-3.3393,-3.3715,-3.4036,-3.4373,0.0,0.0,0.0,0.0,0.0,0.0,0.0,0.0,0.0,0.0,0.0,0.0,0.0,0.0,0.0,0.0,0.0,0.0,0.0,0.0,0.0,-4.0882,-4.2654,-4.4939,-4.6738,-4.7548,-4.7854,-4.8606,-4.9678,-5.0052,-5.0682,-5.1791,-5.1791,-5.1791,-5.1791,-5.1419,-5.1191,-5.1087,-5.0632,-5.0177,-4.9742,-4.9659,-4.9411,-4.9059,-4.9059,-4.9059,-4.9059,-4.9059,-4.9401,-4.9742,-5.0231,-5.0738,-5.1162,-2.8123,-2.815,-2.815,-2.815,-2.815,-2.815,-2.815,-2.7896,-2.7709,-2.7709,-2.7442,-2.7094,-2.6653,-2.6734,-2.6653,-2.6199,-2.6172,-2.5919,-2.5331,-2.5291,-2.517,-2.4863,-2.4863,-2.4997,-2.5291,-2.5291,-2.5895,-2.6948,-2.6948,-2.7492,-2.8417,-2.8593,-2.8827,-2.9134,-2.931,-2.9734,-3.0349,-3.0349,-3.0817,-3.1578,-3.1915,0.0,-3.3276,-3.3612,-3.4139,-3.468,-3.4519,-3.4563,-3.4651,-3.4329,-3.411,0.0,0.0,-3.3246,-3.3217,-3.3056,-3.3012,-3.3041,-3.3202,-3.3246,-3.3334,-3.3656,-3.3861,0.0,0.0,0.0,0.0,0.0,0.0,0.0,0.0,0.0,0.0,0.0,0.0,0.0,0.0,0.0,0.0,0.0,0.0,0.0,0.0,0.0,-4.2372,-4.5512,-4.7344,-4.8466,-4.8739,-4.9097,-4.96,-5.0052,-5.0455,-5.1108,-5.1791,-5.1791,-5.1791,-5.1791,-5.1564,-5.146,-5.1439,-5.0963,-5.0508,-5.0073,-4.9845,-4.9494,-4.9059,-4.9059,-4.923,-4.9401,-4.9401,-4.9742,-5.0103,-5.0847,-5.1442,-5.1889,-2.9005,-2.9045,-2.9045,-2.9045,-2.9045,-2.9045,-2.9045,-2.8631,-2.831,-2.831,-2.811,-2.7843,-2.7562,-2.7736,-2.7655,-2.7121,-2.7081,-2.6827,-2.6253,-2.6213,-2.6052,-2.5692,-2.5678,-2.5678,-2.5678,-2.5678,-2.6107,-2.7114,-2.7269,-2.7862,-2.8744,-2.8959,-2.9164,-2.9471,-2.9603,-2.9939,-3.0451,-3.051,0.0,-3.1798,0.0,-3.2412,-3.3378,-3.37,-3.4183,-3.471,-3.471,-3.471,-3.4666,-3.4402,-3.4271,-3.4168,-3.3905,-3.3773,0.0,-3.3656,-3.3451,-3.3246,-3.3246,-3.3056,-3.2939,-3.3261,-3.3334,-3.3407,0.0,0.0,0.0,0.0,0.0,0.0,0.0,0.0,0.0,0.0,0.0,0.0,0.0,0.0,0.0,0.0,0.0,0.0,0.0,0.0,-4.416,-4.7958,-4.9126,-4.9691,-4.9783,-5.0177,-5.0425,-5.0425,-5.088,-5.1336,-5.1791,-5.1791,-5.1791,-5.1791,-5.1791,-5.175,-5.1646,-5.1274,-5.0818,-5.028,-4.9908,-4.9494,-4.9059,-4.9059,-4.9401,-4.9742,-4.9742,-5.0125,-5.0762,-5.1487,-5.2215,-5.2752,-2.9085,-2.9045,-2.9045,-2.9045,-2.9045,-2.9045,-2.9045,-2.8978,-2.8938,-2.8938,-2.8911,-2.8778,-2.8484,-2.8484,-2.8364,-2.8016,-2.7989,0.0,-2.7161,0.0,-2.6867,-2.6306,-2.6293,-2.6293,-2.6293,-2.6293,-2.6464,-2.6977,-2.7435,-2.7933,-2.8446,-2.9035,-2.95,-2.9837,-3.0407,-3.07,-3.0788,0.0,-3.1432,0.0,-3.1798,-3.2544,0.0,-3.4036,-3.4388,-3.471,-3.471,-3.471,-3.4695,0.0,-3.4461,-3.4212,0.0,-3.3963,-3.3671,-3.3393,-3.3276,-3.3246,-3.3246,-3.3217,-3.3276,-3.3597,-3.3671,-3.3685,0.0,0.0,-3.3744,0.0,0.0,0.0,0.0,0.0,0.0,0.0,0.0,0.0,0.0,0.0,0.0,0.0,0.0,0.0,0.0,0.0,0.0,-4.7701,-4.8965,-4.9711,-4.9783,-5.0177,-5.0425,-5.0425,-5.088,-5.1336,-5.1791,-5.1791,-5.1791,-5.1791,-5.1791,-5.1584,-5.1191,-5.1129,-5.0632,-4.9825,-4.9783,-4.9494,-4.9059,-4.9059,-4.9401,-4.9742,-4.9742,-5.0506,-5.1573,-5.1787,-5.2432,-5.3211,-2.9579,-2.9553,-2.9553,-2.9553,-2.9553,-2.9553,-2.9553,-2.9406,-2.9232,-2.9058,-2.9192,-2.9179,-2.8885,-2.9165,-2.9245,-2.8951,0.0,0.0,0.0,0.0,-2.7949,-2.7188,-2.7148,-2.6987,-2.6653,-2.664,-2.6878,-2.7333,-2.7647,-2.7961,-2.8588,-2.9222,-2.9544,-2.9895,-3.0539,-3.0934,-3.1124,0.0,-3.1783,0.0,0.0,0.0,0.0,-3.389,-3.4256,-3.471,-3.471,-3.471,-3.471,0.0,-3.4622,0.0,0.0,0.0,-3.4271,-3.4139,-3.3817,-3.3524,-3.3524,-3.3246,-3.2997,-3.3144,-3.3173,-3.3173,-3.3173,0.0,-3.3276,0.0,0.0,0.0,0.0,0.0,0.0,0.0,-3.4139,0.0,0.0,0.0,0.0,0.0,0.0,0.0,0.0,0.0,0.0,0.0,0.0,-5.0455,-5.0177,-5.0818,-5.1108,-5.0818,-5.1274,-5.1605,-5.1791,-5.1791,-5.1791,-5.1791,-5.1522,-5.1294,-5.1108,-5.0839,-5.0363,-4.9763,-4.9763,-4.9494,-4.9059,-4.9059,-4.9572,-5.0061,-5.0061,-5.0868,-5.1852,-5.2475,-5.3038,-5.3713,-2.9913,-2.9913,-2.9913,-2.9913,-2.9913,-2.9913,-2.9913,-2.974,-2.9526,-2.9312,-2.9472,-2.9553,-2.9419,-2.978,-2.998,-2.986,-3.0034,-2.99,0.0,0.0,-2.8911,-2.8096,-2.807,0.0,-2.7201,-2.7188,-2.7324,-2.7727,-2.7899,-2.8375,-2.9006,-2.9486,-2.9764,-3.0027,-3.0759,-3.1227,-3.1476,0.0,-3.2251,-3.2573,-3.2807,-3.329,-3.3875,-3.3963,-3.4285,-3.471,-3.471,-3.471,-3.471,-3.471,-3.471,0.0,-3.471,-3.471,-3.4695,-3.4592,-3.4241,-3.3846,-3.3758,-3.3393,-3.3012,-3.2924,0.0,0.0,0.0,0.0,0.0,0.0,0.0,0.0,0.0,0.0,0.0,0.0,0.0,-3.3808,0.0,0.0,0.0,0.0,0.0,0.0,0.0,0.0,0.0,0.0,0.0,0.0,-5.0259,-5.0984,-5.1212,-5.0756,-5.1315,-5.1605,-5.1605,-5.1729,-5.1791,-5.1791,-5.1336,-5.1046,-5.0901,-5.0446,-4.999,-4.9576,-4.9576,-4.9369,-4.9059,-4.923,-4.9742,-5.04,-5.0569,-5.1294,-5.2217,-5.2908,-5.3604,-5.4194,-2.9913,-2.9913,-2.9913,-2.9913,-2.9913,-2.9913,-2.9913,-2.9913,-2.99,-2.9887,0.0,0.0,0.0,0.0,0.0,0.0,0.0,-3.0515,-2.9927,0.0,-2.9619,0.0,0.0,-2.8711,0.0,-2.8096,-2.8149,-2.7893,-2.8381,-2.8706,-2.9205,-3.001,-3.032,-3.0378,-3.1344,-3.1768,-3.1827,-3.2471,-3.2924,-3.3217,-3.3217,-3.3627,-3.4241,0.0,-3.4695,-3.471,-3.471,0.0,0.0,-3.471,-3.471,0.0,0.0,0.0,0.0,0.0,-3.4212,-3.4139,0.0,0.0,0.0,-3.3305,0.0,0.0,0.0,0.0,-3.3232,0.0,0.0,0.0,0.0,-3.3744,-3.3744,-3.3729,0.0,0.0,0.0,0.0,0.0,0.0,0.0,0.0,0.0,0.0,0.0,0.0,0.0,0.0,-4.9783,-5.0218,-5.0259,-4.9804,-5.0673,-5.1129,-5.1129,-5.1584,-5.1791,-5.1791,-5.1336,-5.088,-5.0425,-4.997,-4.9514,-4.908,-4.908,-4.908,-4.9059,-4.9572,-4.9891,-5.04,-5.0929,-5.2019,-5.3189,-5.3211,-5.3822,-5.463,-2.9913,-2.9913,-2.9913,-2.9913,-2.9913,-2.9913,-2.9913,-3.0087,0.0,0.0,0.0,0.0,0.0,0.0,-3.0969,0.0,0.0,-3.1209,-3.0808,-3.0782,0.0,0.0,0.0,-2.9339,0.0,-2.835,-2.8284,-2.8701,-2.8669,-2.8896,-2.9705,-3.0203,-3.0349,-3.0393,-3.1359,-3.1915,0.0,0.0,0.0,0.0,0.0,-3.4154,-3.4549,0.0,0.0,-3.471,-3.471,-3.471,0.0,-3.471,-3.471,-3.471,-3.471,-3.471,-3.468,-3.4578,-3.4388,0.0,0.0,0.0,-3.37,-3.3597,0.0,0.0,0.0,0.0,0.0,0.0,0.0,0.0,0.0,-3.3875,-3.3656,-3.3436,-3.3144,0.0,0.0,0.0,0.0,0.0,0.0,0.0,0.0,0.0,0.0,0.0,0.0,0.0,0.0,-5.0466,-5.0673,-5.0218,-5.0487,-5.0653,-5.0653,-5.1108,-5.1191,-5.088,-5.0736,-5.0425,-4.997,-4.9514,-4.9224,-4.9059,-4.9059,-4.9059,-4.9059,-4.9572,-4.9891,-5.04,-5.0929,-5.2019,-5.3211,-5.3211,-5.3822,-5.4652,-2.97,-2.9893,-3.0074,-3.0074,-3.0154,-3.0221,-3.0221,-3.0394,0.0,0.0,-3.0675,0.0,-3.0942,0.0,-3.1276,0.0,-3.1557,-3.1543,-3.1249,-3.1223,0.0,-3.0528,-3.0327,0.0,0.0,0.0,-2.9036,-2.9341,-2.9145,-2.9485,-3.0203,-3.0422,-3.0525,-3.0554,-3.1417,-3.2046,-3.25,-3.3144,-3.3671,0.0,0.0,-3.4519,0.0,0.0,-3.471,-3.471,0.0,-3.471,-3.471,-3.471,-3.471,-3.471,-3.471,-3.471,-3.471,-3.471,-3.4549,-3.4388,-3.4388,-3.4241,0.0,-3.3934,-3.3905,0.0,-3.3758,0.0,-3.3963,0.0,0.0,0.0,0.0,0.0,-3.3627,-3.329,-3.2983,-3.3117,0.0,-3.5238,0.0,0.0,0.0,0.0,0.0,0.0,0.0,0.0,0.0,0.0,0.0,0.0,-5.0239,-4.9949,-5.0094,-5.0177,-5.0177,-5.0798,-5.088,-5.0425,-5.0425,-5.0177,-4.9742,-4.9287,-4.9059,-4.9059,-4.9059,-4.923,-4.9401,-4.9742,-5.0231,-5.076,-5.127,-5.2171,-5.3211,-5.3211,-5.3822,-5.4652,-2.9443,-3.0016,-3.0408,-3.0408,-3.0621,0.0,0.0,0.0,-3.0808,0.0,-3.0822,-3.0942,-3.1223,-3.1249,-3.1356,-3.1637,-3.1664,0.0,-3.1263,-3.1249,0.0,0.0,-3.0822,-3.0555,-2.9993,0.0,0.0,-2.9999,-2.9957,-3.0297,-3.0846,-3.0832,-3.0817,-3.0846,-3.1505,-3.2163,-3.2822,-3.3451,-3.4124,-3.4724,-3.471,-3.471,-3.4724,-3.471,0.0,-3.471,-3.471,-3.471,-3.471,-3.4724,-3.4724,-3.4724,-3.4724,-3.4724,-3.4724,-3.471,-3.471,-3.471,-3.471,-3.471,-3.4636,-3.4314,0.0,0.0,0.0,0.0,-3.4285,0.0,0.0,0.0,0.0,0.0,0.0,-3.3319,-3.2983,-3.3117,0.0,0.0,0.0,0.0,0.0,0.0,0.0,0.0,0.0,0.0,0.0,0.0,0.0,0.0,0.0,-4.9059,-4.9494,-4.9721,-4.9721,-5.0632,-5.0839,-5.0363,-5.0404,-5.0177,-4.9701,-4.9266,-4.9059,-4.9059,-4.9059,-4.9401,-4.9742,-5.0231,-5.0738,-5.114,-5.2124,-5.2796,-5.3254,-5.3276,-5.3866,-5.4652,-2.9754,-3.0478,-3.0996,-3.0996,-3.0889,-3.0795,0.0,0.0,0.0,0.0,-3.1303,-3.1476,-3.1543,-3.1557,-3.1583,-3.1664,-3.1664,0.0,0.0,0.0,0.0,-3.145,-3.1236,-3.1049,-3.0889,-3.0247,0.0,-3.0993,-3.0279,-3.041,-3.1183,-3.0934,-3.0817,-3.0846,-3.1505,-3.2163,-3.2822,-3.3451,-3.4241,-3.5017,-3.4797,-3.4841,0.0,0.0,-3.471,-3.471,-3.471,-3.471,-3.4739,-3.4958,-3.5046,-3.5046,-3.5046,-3.5046,-3.5002,-3.4768,-3.471,-3.471,-3.471,-3.471,-3.468,-3.4592,-3.4753,-3.4841,0.0,0.0,0.0,0.0,0.0,0.0,0.0,0.0,0.0,0.0,-3.3665,0.0,0.0,0.0,0.0,0.0,0.0,0.0,0.0,0.0,0.0,0.0,0.0,0.0,0.0,0.0,0.0,-4.908,-4.9183,-4.9245,-4.9245,-5.0135,-5.0197,-4.9431,-5.0094,-5.0011,-4.9245,-4.9121,-4.9059,-4.9059,-4.9059,-4.9401,-4.9742,-5.0231,-5.0738,-5.114,-5.2124,-5.3014,-5.38,-5.415,-5.4434,-5.4829,-2.8918,-3.0272,-3.1046,-3.1046,0.0,0.0,-3.0822,0.0,0.0,-3.0655,-3.0799,0.0,-3.1284,-3.1297,-3.1487,-3.1677,-3.1784,0.0,0.0,0.0,0.0,-3.2051,-3.1891,-3.1744,-3.161,-3.0996,0.0,-3.1553,0.0,-3.0937,-3.152,-3.1329,-3.1256,-3.1271,-3.1783,-3.2368,-3.3041,-3.3963,-3.4666,-3.5149,-3.5119,0.0,0.0,-3.4973,-3.4827,-3.471,-3.471,-3.471,-3.4753,-3.5061,-3.5163,-3.5178,-3.5324,-3.5368,-3.5339,-3.5163,-3.5017,-3.49,-3.49,-3.4812,-3.471,-3.471,-3.4929,-3.5105,-3.4944,-3.528,-3.5588,0.0,0.0,0.0,0.0,0.0,0.0,0.0,0.0,0.0,0.0,0.0,0.0,0.0,0.0,0.0,0.0,0.0,0.0,0.0,0.0,0.0,0.0,0.0,0.0,-4.908,-4.9059,-4.9162,-4.9369,-5.0073,-5.0073,-4.9369,-5.0073,-4.9949,-4.9059,-4.9059,-4.9059,-4.9059,-4.9059,-4.9401,-5.0061,-5.0231,-5.0738,-5.152,-5.2363,-5.3385,-5.4281,-5.4565,-5.4652,-5.4829,-2.8068,-2.9595,-3.0726,-3.0726,0.0,0.0,0.0,-3.0025,0.0,-2.9846,0.0,-3.005,-3.0638,-3.0829,-3.1212,0.0,0.0,-3.2158,-3.2158,-3.2398,-3.2545,-3.2545,-3.2545,-3.2425,-3.2171,-3.1837,0.0,0.0,0.0,-3.1402,-3.1856,-3.1812,-3.1798,-3.1812,-3.2134,-3.2661,-3.3393,-3.4636,-3.5178,-3.5251,-3.5529,-3.55,-3.528,-3.5236,-3.5031,-3.4768,-3.4768,-3.4739,-3.4753,-3.5061,-3.5192,-3.5266,-3.5558,-3.5675,-3.5705,-3.5661,-3.5441,-3.5222,-3.5222,-3.5002,-3.4768,-3.4812,-3.5031,-3.5222,-3.5222,-3.55,-3.5763,-3.5719,-3.5734,-3.5661,0.0,0.0,0.0,0.0,0.0,0.0,0.0,0.0,0.0,0.0,0.0,0.0,0.0,0.0,0.0,0.0,0.0,0.0,0.0,0.0,0.0,-4.9059,-4.9121,0.0,-4.9742,0.0,-5.028,-4.9845,-5.0239,-4.997,-4.9162,-4.91,-4.9059,-4.9059,-4.923,-4.9572,-5.04,-5.04,-5.095,-5.1987,-5.2861,-5.3757,-5.4565,-5.463,-5.4652,-5.4829,-2.8727,-2.9542,-2.9567,-2.9567,0.0,-2.8191,-2.7353,-2.8113,-2.8646,-2.8241,-2.845,0.0,-2.9456,-3.0436,-3.1035,-3.1607,-3.2244,0.0,0.0,0.0,0.0,-3.2545,-3.2545,-3.2519,-3.2465,-3.1944,-3.2042,0.0,0.0,-3.1692,-3.2193,-3.1929,-3.1798,-3.1812,-3.2134,-3.2793,-3.3715,-3.4724,0.0,-3.5558,-3.5617,-3.5763,-3.5924,-3.5661,-3.5353,-3.5075,-3.5075,-3.4914,-3.4753,-3.5061,-3.5339,-3.5573,-3.5631,-3.5822,-3.5983,-3.5719,-3.5602,-3.5558,-3.5558,-3.5324,-3.5149,-3.5412,-3.5514,-3.5558,-3.5558,-3.6012,-3.6363,-3.6085,-3.6246,-3.6261,-3.5661,0.0,0.0,0.0,0.0,0.0,0.0,0.0,0.0,0.0,0.0,0.0,0.0,0.0,0.0,0.0,0.0,0.0,0.0,0.0,0.0,0.0,0.0,0.0,0.0,0.0,-5.0756,-5.0301,-5.0384,-5.0156,-4.9618,-4.9245,-4.9059,-4.9059,-4.9401,-4.9891,-5.04,-5.076,-5.1503,-5.2424,-5.2992,-5.356,-5.4106,-5.4521,-5.4652,-5.4829,-2.7827,-2.8224,-2.8259,0.0,0.0,0.0,0.0,-2.5607,0.0,-2.6018,-2.6595,-2.7191,-2.8393,-2.9381,-3.0562,-3.1555,-3.2287,-3.2772,-3.2772,-3.2906,-3.2986,-3.2986,-3.2986,0.0,-3.2986,-3.2572,-3.2708,-3.3219,0.0,-3.2375,-3.2778,-3.2456,-3.2295,-3.2324,-3.2807,-3.348,-3.4285,0.0,0.0,-3.5909,-3.607,-3.6129,-3.61,-3.5953,-3.569,-3.5412,-3.5412,-3.5207,-3.4958,-3.5105,-3.5266,-3.5456,-3.5778,-3.5997,-3.6129,-3.6144,-3.6027,-3.5851,-3.569,-3.5412,-3.5163,-3.5163,-3.5397,-3.5646,-3.5646,-3.6012,-3.6348,-3.6363,-3.6363,-3.6158,-3.5514,-3.4753,0.0,0.0,0.0,0.0,0.0,0.0,0.0,0.0,0.0,0.0,0.0,0.0,0.0,0.0,0.0,0.0,0.0,0.0,0.0,0.0,0.0,0.0,0.0,0.0,0.0,-5.0777,-5.0529,-5.0177,-4.9742,-4.9287,-4.923,-4.9401,-4.9572,-5.0082,-5.0738,-5.1265,-5.1884,-5.2512,-5.2752,-5.3276,-5.3975,-5.4194,-5.4434,-5.4829,-2.6155,-2.6554,0.0,0.0,-2.6518,0.0,0.0,-2.3287,-2.3306,-2.3972,-2.4538,-2.5544,-2.6948,-2.8544,-2.9934,-3.1342,-3.2538,-3.3066,-3.3066,-3.328,-3.3414,-3.3414,-3.3414,-3.3414,-3.3414,-3.3133,-3.3084,0.0,0.0,0.0,-3.3067,-3.2924,-3.2807,-3.291,-3.3627,0.0,0.0,0.0,-3.5895,-3.6144,-3.648,-3.6451,-3.6217,-3.6217,-3.6027,-3.5749,-3.5749,-3.5544,-3.5266,-3.5266,-3.5266,-3.5353,-3.5866,-3.6114,-3.6275,-3.6524,-3.6422,-3.6173,-3.5909,-3.5558,-3.5222,-3.5046,-3.528,-3.5558,-3.5631,-3.5836,-3.6085,-3.6348,-3.6202,-3.588,-3.5441,-3.5002,0.0,0.0,0.0,0.0,0.0,0.0,0.0,0.0,0.0,0.0,0.0,0.0,0.0,0.0,0.0,0.0,0.0,0.0,0.0,0.0,0.0,-4.9597,-5.0404,0.0,-5.0694,0.0,-5.0591,-5.0135,-4.9887,-4.9328,-4.9401,-4.9742,-4.9742,-5.0422,-5.1265,-5.1623,-5.2009,-5.2337,-5.2446,-5.3014,-5.38,-5.391,-5.4237,-5.5005,0.0,0.0,0.0,0.0,0.0,0.0,0.0,-2.1656,-2.1552,-2.2131,-2.3165,-2.4187,-2.541,-2.7862,-2.9903,-3.0937,-3.2559,-3.3374,-3.3374,-3.34,-3.3414,-3.3414,-3.3414,-3.3414,-3.3414,-3.3133,-3.2888,0.0,0.0,-3.2605,-3.2527,-3.2746,-3.2924,-3.3246,-3.4183,0.0,0.0,-3.5675,-3.6085,-3.6144,-3.648,-3.6583,-3.6553,-3.6553,-3.6363,-3.607,-3.607,-3.5866,-3.5602,-3.5602,-3.5602,-3.5602,-3.5661,-3.6085,-3.6568,-3.6597,-3.6583,-3.6553,-3.6524,-3.607,-3.5661,-3.5924,-3.5588,-3.528,-3.5573,-3.5661,-3.569,-3.5734,-3.5705,-3.5763,-3.5983,-3.5295,-3.468,0.0,0.0,0.0,0.0,0.0,-3.659,-3.659,0.0,0.0,0.0,0.0,0.0,0.0,-4.5075,0.0,0.0,0.0,0.0,-4.9059,0.0,-4.9928,-5.0425,-5.0425,0.0,-5.1729,-5.0425,-5.0011,-5.0322,-4.9452,-4.9401,-4.9742,-5.0231,-5.0929,-5.1791,-5.1791,-5.1834,-5.19,-5.2315,-5.2817,-5.3342,-5.3779,-5.4588,-5.5357,0.0,0.0,0.0,0.0,0.0,0.0,0.0,-2.131,-2.1154,-2.0945,-2.1977,-2.3211,-2.4647,-2.7305,-2.9354,-3.0809,-3.241,-3.3414,-3.3414,-3.3414,-3.3414,-3.3414,-3.3414,-3.3414,-3.3414,-3.3293,-3.3238,0.0,0.0,0.0,0.0,-3.3416,-3.3627,-3.4139,0.0,-3.5192,-3.5573,-3.5953,-3.6231,-3.6422,-3.6553,-3.6597,-3.6597,-3.6597,-3.6524,-3.6407,-3.6407,-3.6202,-3.5924,-3.5924,-3.5807,-3.5675,-3.5866,-3.61,-3.6348,-3.6553,-3.6597,-3.6553,-3.6363,-3.6129,-3.5866,-3.5602,-3.55,-3.5427,-3.5368,-3.5353,-3.5412,-3.5602,-3.5792,-3.5909,-3.5851,-3.5529,-3.5397,0.0,0.0,0.0,0.0,0.0,0.0,-3.7242,0.0,-3.7321,0.0,0.0,0.0,0.0,0.0,0.0,0.0,0.0,0.0,-4.9059,0.0,-4.9701,-5.0404,-5.0156,-5.0611,-5.1791,-5.0404,-4.999,-5.0384,-4.9473,-4.9401,-5.0231,-5.0929,-5.1455,-5.1791,-5.1791,-5.1791,-5.1813,-5.2009,-5.2533,-5.3232,-5.3429,-5.4324,-5.5533,-2.1679,0.0,-2.1953,0.0,-2.2195,-2.1827,-2.1137,-2.0945,-2.0737,-2.032,-2.1362,-2.2599,-2.4029,-2.6691,-2.9139,-3.0595,-3.241,-3.3414,-3.3414,-3.3414,-3.3414,-3.3414,-3.3414,0.0,-3.3414,-3.3414,-3.3466,-3.3579,-3.3464,0.0,0.0,-3.3987,0.0,0.0,-3.5266,-3.569,-3.6129,-3.6217,-3.6392,-3.6597,-3.6597,-3.6597,-3.6597,-3.6597,-3.6597,-3.6597,-3.6597,-3.6451,-3.6261,-3.6261,-3.6114,-3.5953,-3.6085,-3.6187,-3.6305,-3.6539,-3.6597,-3.6553,-3.6319,-3.6187,-3.6012,-3.5558,-3.547,-3.5441,-3.5207,-3.509,-3.5119,-3.5441,-3.5675,-3.5822,-3.5792,-3.5897,-3.5957,-3.6101,0.0,0.0,0.0,-3.7301,0.0,-3.7671,-3.7448,-3.7692,-3.8608,0.0,0.0,0.0,0.0,0.0,0.0,0.0,0.0,0.0,0.0,0.0,0.0,-4.9845,-5.0322,-5.1791,-5.0404,-5.0052,-5.0591,-5.0026,-5.0039,-5.0569,-5.1455,-5.1791,-5.1791,-5.1791,-5.1791,-5.1791,-5.1791,-5.2381,-5.3211,-5.3383,-5.4343,-5.5708,-2.0841,-2.1285,-2.1551,-2.1328,-2.1145,-2.0945,-2.032,-2.032,-2.032,-2.032,-2.1362,-2.2392,-2.3428,-2.6487,-2.8936,-3.0189,-3.2196,-3.3414,-3.3414,-3.3414,-3.3414,0.0,0.0,-3.3414,-3.3414,-3.3414,-3.3267,-3.2986,0.0,0.0,-3.3611,-3.4754,-3.5149,-3.5178,-3.5822,-3.6114,-3.6144,-3.6466,-3.6597,-3.6597,-3.6597,-3.6597,-3.6597,-3.6597,-3.6597,-3.6597,-3.6597,-3.6597,-3.6597,-3.6597,-3.6597,-3.6539,-3.6217,-3.6334,-3.6597,-3.6597,-3.6597,-3.6597,-3.6597,-3.6363,-3.6114,-3.6114,-3.5631,-3.5163,-3.5163,-3.4929,-3.4797,-3.5105,-3.5163,-3.5368,-3.5997,-3.6238,-3.64,-3.64,0.0,0.0,0.0,-3.7301,0.0,-3.7671,-3.7671,-3.7895,-3.8449,0.0,0.0,0.0,0.0,0.0,0.0,0.0,0.0,-4.9059,-4.9059,0.0,-5.0404,-4.9535,-4.999,-5.1791,-5.0404,-5.0239,-5.1067,-5.1007,-5.1018,-5.1097,-5.1623,-5.1791,-5.1791,-5.1791,-5.1791,-5.1791,-5.1791,-5.2381,-5.3211,-5.3726,-5.4884,-5.6103,-2.043,-2.0654,-2.0671,-2.052,-2.0529,-2.0529,-2.032,-2.032,-2.032,-2.032,-2.1362,-2.2184,-2.3014,-2.6087,-2.854,0.0,-3.1806,-3.3013,0.0,-3.3414,-3.3414,-3.3414,-3.3414,-3.3414,-3.3414,-3.3414,-3.336,-3.328,0.0,0.0,0.0,-3.5319,-3.5807,-3.5836,-3.6261,-3.6451,-3.6451,-3.6553,-3.6597,-3.6597,-3.6597,-3.6597,-3.6597,-3.6597,-3.6597,-3.6597,-3.6597,-3.6597,-3.6597,-3.6597,-3.6597,-3.6583,-3.648,-3.6524,-3.6597,-3.6597,-3.6597,-3.6597,-3.6597,-3.6524,-3.6392,-3.6173,-3.5968,-3.5705,-3.5251,-3.4929,-3.4739,-3.4827,-3.5017,-3.5222,-3.5427,-3.5942,-3.6531,-3.6496,-3.7131,0.0,0.0,0.0,-3.7671,-3.7671,-3.7671,-3.8079,0.0,-4.0359,0.0,0.0,0.0,0.0,0.0,0.0,0.0,0.0,-4.9059,0.0,-4.997,-4.9369,-4.9825,-5.1315,-5.0259,-5.0227,-5.114,-5.1371,-5.1509,-5.1593,-5.2102,-5.2097,-5.1791,-5.1791,-5.1791,-5.1791,-5.1791,-5.2381,-5.3211,-5.3726,-5.4862,-5.6255,-2.032,-2.032,-2.032,-2.032,-2.032,-2.032,-2.032,-2.032,-2.032,-2.032,-2.1154,-2.1977,-2.2392,-2.4863,0.0,-2.9377,-3.1201,-3.2611,-3.3013,-3.3213,-3.3414,-3.3414,-3.3414,-3.3414,-3.3414,0.0,0.0,-3.3414,-3.3837,-3.4633,-3.5218,-3.6007,-3.6305,-3.6305,-3.6509,-3.6597,-3.6597,-3.6597,-3.6597,-3.6597,-3.6597,-3.6597,-3.6597,-3.6597,-3.6597,-3.6597,-3.6597,-3.6597,-3.6597,-3.6597,-3.6597,-3.6597,-3.6597,-3.6597,-3.6597,-3.6597,-3.6597,-3.6597,-3.6597,-3.6597,-3.6553,-3.6348,-3.6202,-3.5983,-3.5456,-3.5192,-3.5017,-3.49,-3.5031,-3.5163,-3.5338,-3.6086,-3.6541,-3.6896,-3.7429,-3.7694,-3.7718,0.0,-3.7671,0.0,0.0,0.0,0.0,-4.0387,0.0,0.0,0.0,0.0,0.0,0.0,0.0,-4.9059,-4.9059,0.0,-4.9742,-4.9287,-4.9763,-5.1108,-5.0892,-5.1099,-5.1709,-5.2081,-5.2347,-5.241,-5.2385,-5.2315,-5.2053,-5.1878,-5.1791,-5.1791,-5.1791,-5.244,-5.329,-5.3802,-5.4655,-5.5866,-2.032,-2.032,0.0,0.0,-2.032,0.0,-2.032,-2.032,-2.032,-2.032,-2.0737,-2.1362,-2.1977,-2.3428,-2.5491,-2.8155,0.0,0.0,0.0,-3.3013,-3.3414,-3.3414,-3.3414,-3.3414,-3.3414,-3.3414,-3.3414,-3.3414,-3.4413,-3.521,-3.5805,-3.64,-3.6597,-3.6597,-3.6597,-3.6597,-3.6597,-3.6597,-3.6597,-3.6597,-3.6597,-3.6597,-3.6597,-3.6597,-3.6597,-3.6597,-3.6597,-3.6597,-3.6597,-3.6597,-3.6597,-3.6597,-3.6597,-3.6597,-3.6597,-3.6597,-3.6597,-3.6597,-3.6597,-3.6597,-3.6597,-3.6597,-3.6363,-3.6041,-3.5749,-3.5661,-3.5558,-3.5251,-3.5192,-3.5368,-3.5732,-3.6314,-3.6881,-3.721,-3.7805,-3.8084,-3.7718,-3.7671,-3.7671,0.0,0.0,0.0,0.0,-4.0038,-4.1331,0.0,0.0,0.0,0.0,0.0,-4.8624,-4.9059,-4.9059,-4.9266,-4.9701,-4.9287,-4.9742,-5.1067,-5.2082,-5.2461,-5.257,-5.3099,-5.3191,-5.3232,-5.2774,-5.2555,-5.2446,-5.2031,-5.1834,-5.1791,-5.1791,-5.2433,-5.3189,-5.3694,-5.449,-5.5426,0.0,0.0,-2.032,-2.032,-2.032,-2.032,-2.032,-2.032,-2.032,-2.032,-2.0737,-2.1154,-2.1362,-2.2392,-2.3841,-2.5285,-2.8155,-3.0607,-3.1806,-3.241,-3.3013,-3.3414,-3.3414,-3.3414,-3.3414,-3.3414,-3.3614,-3.4014,-3.4612,-3.521,-3.5805,-3.64,-3.6597,-3.6597,-3.6597,-3.6597,-3.6597,-3.6597,-3.6597,-3.6597,-3.6597,-3.6597,-3.6597,-3.6597,-3.6597,-3.6597,-3.6597,-3.6597,-3.6597,-3.6597,-3.6597,-3.6597,-3.6597,-3.6597,-3.6597,-3.6597,-3.6597,-3.6597,-3.6597,-3.6597,-3.6597,-3.6597,-3.6363,-3.61,-3.6027,-3.5822,-3.5617,-3.5544,-3.5529,-3.5647,-3.5762,-3.6511,-3.708,-3.6932,-3.7647,-3.8084,-3.7718,-3.7671,-3.7671,0.0,-3.7671,-3.8208,-3.9474,-4.0203,-4.1616,0.0,0.0,0.0,0.0,-4.8209,-4.8592,-4.9059,-4.9059,-4.9121,-4.9224,-4.9121,-4.9576,-5.0591,-5.1935,-5.2629,-5.306,-5.3593,-5.3688,-5.3757,-5.3647,-5.3167,-5.2468,-5.2359,-5.2118,-5.1791,-5.1791,-5.2433,-5.3189,-5.3694,-5.4659,-5.5931,-2.032,-2.032,-2.032,-2.032,-2.032,-2.032,-2.032,-2.032,-2.032,-2.032,-2.0529,-2.0737,-2.0737,-2.157,-2.2644,-2.3776,-2.6571,-2.8959,-3.0999,-3.1806,-3.2611,-3.3414,-3.3414,-3.3414,-3.3414,-3.3414,-3.3814,-3.4612,-3.5011,-3.5607,-3.6202,-3.64,-3.6597,-3.6597,-3.6597,-3.6597,-3.6597,-3.6597,-3.6597,-3.6597,-3.6597,-3.6597,-3.6597,-3.6597,-3.6597,-3.6597,-3.6597,-3.6597,-3.6597,-3.6597,-3.6597,-3.6597,-3.6597,-3.6597,-3.6597,-3.6597,-3.6597,-3.6597,-3.6597,-3.6597,-3.6597,-3.6597,-3.6466,-3.6334,-3.6334,-3.6202,-3.6041,-3.5895,-3.6059,-3.6342,-3.6396,-3.6936,-3.7396,-3.7414,-3.7755,-3.7893,-3.7702,-3.7671,0.0,-3.7671,-3.7671,-3.804,-3.9125,-3.9673,-4.0929,-4.3426,0.0,0.0,-4.7681,-4.8027,-4.8372,-4.9059,-4.9059,-4.9059,-4.9059,-4.9473,-5.0102,-5.0777,-5.2229,-5.3051,-5.3587,-5.4121,-5.4323,-5.4259,-5.4041,-5.3516,-5.2796,-5.2577,-5.2206,-5.1791,-5.1958,-5.2447,-5.317,-5.3693,-5.4516,-5.5739,-2.032,-2.032,-2.032,-2.032,-2.032,-2.032,-2.032,-2.032,-2.032,-2.032,-2.032,-2.032,-2.032,-2.0737,-2.1647,-2.2888,-2.5013,-2.7587,-2.9891,-3.1123,-3.2325,-3.328,-3.348,-3.3454,-3.3414,-3.3414,-3.4014,-3.5011,-3.5408,-3.6004,-3.6597,-3.6597,-3.6597,-3.6597,-3.6597,-3.6597,-3.6597,-3.6597,-3.6597,-3.6597,-3.6597,-3.6597,-3.6597,-3.6597,-3.6597,-3.6597,-3.6597,-3.6597,-3.6597,-3.6597,-3.6597,-3.6597,-3.6597,-3.6597,-3.6597,-3.6597,-3.6597,-3.6597,-3.6597,-3.6597,-3.6597,-3.6597,-3.6568,-3.6524,-3.6524,-3.6495,-3.6392,-3.6173,-3.6519,-3.7012,-3.7318,-3.7408,-3.7742,-3.8211,-3.7957,-3.7734,-3.7687,0.0,-3.7671,-3.7671,-3.7671,-3.7855,-3.8408,-3.8759,-3.9839,-4.1814,-4.2891,-4.4491,0.0,-4.7528,-4.8179,-4.8976,-4.9017,-4.9059,-4.9059,-4.9887,-5.0518,-5.1106,-5.2521,-5.3344,-5.3922,-5.4475,-5.4652,-5.463,-5.4237,-5.3779,-5.3276,-5.2796,-5.2315,-5.19,-5.2292,-5.2769,-5.3078,-5.3783,-5.4416,-5.5392,-2.032,-2.032,-2.032,-2.032,-2.032,-2.032,-2.032,-2.032,-2.032,-2.032,-2.032,-2.032,-2.032,-2.032,-2.1021,-2.2267,-2.3699,-2.5838,-2.918,-3.0865,-3.2211,-3.3002,-3.3612,-3.3681,-3.3414,-3.3414,-3.4014,-3.5011,-3.5011,-3.5607,-3.6597,-3.6597,-3.6597,-3.6597,-3.6597,-3.6597,-3.6597,-3.6597,-3.6597,-3.6597,-3.6597,-3.6597,-3.6597,-3.6597,-3.6597,-3.6597,-3.6597,-3.6597,-3.6597,-3.6597,-3.6597,-3.6597,-3.6597,-3.6597,-3.6597,-3.6597,-3.6597,-3.6597,-3.6597,-3.6597,-3.6597,-3.6597,-3.6392,-3.6187,-3.6187,-3.5983,-3.5851,-3.607,-3.6519,-3.7087,-3.7623,-3.7963,-3.8306,-3.829,-3.8163,-3.802,-3.7718,0.0,-3.7671,-3.7671,-3.7671,-3.7855,-3.8408,-3.8759,-3.9839,-4.1814,-4.2891,-4.4491,-4.6832,-4.7528,-4.7865,-4.85,-4.8873,-4.9059,-4.9059,-4.9597,-5.0206,-5.1106,-5.2182,-5.3024,-5.3922,-5.4475,-5.4652,-5.4652,-5.4587,-5.4281,-5.3779,-5.3298,-5.2817,-5.2337,-5.2425,-5.2769,-5.3243,-5.4089,-5.5044,-5.6382,-2.032,-2.032,-2.032,-2.032,-2.032,-2.032,-2.032,-2.032,-2.032,-2.032,-2.032,-2.032,-2.032,-2.032,-2.0853,-2.2407,-2.3483,-2.552,-2.9058,-3.0515,-3.1962,-3.3302,-3.3712,-3.4055,-3.3908,-3.395,-3.446,-3.5263,-3.5294,-3.5805,-3.6597,-3.6597,-3.6597,-3.6597,-3.6597,-3.6597,-3.6597,-3.6597,-3.6597,-3.6597,-3.6597,-3.6597,-3.6597,-3.6597,-3.6597,-3.6597,-3.6597,-3.6597,-3.6597,-3.6597,-3.6597,-3.6568,-3.6392,-3.6466,-3.6568,-3.6392,-3.6466,-3.6568,-3.6392,-3.6334,-3.6305,-3.6129,-3.5968,-3.5866,-3.5866,-3.5749,-3.5883,-3.6223,-3.6788,-3.749,-3.7893,-3.8302,-3.845,-3.8513,-3.8163,0.0,-3.7687,-3.7671,-3.7671,-3.7671,-3.7671,-3.7855,-3.804,-3.8408,-3.9491,-4.1454,-4.2694,-4.4491,-4.6832,-4.7681,-4.829,-4.8748,-4.8707,-4.881,-4.9059,-4.9687,-5.0666,-5.1477,-5.2469,-5.3469,-5.4298,-5.4652,-5.4652,-5.4652,-5.4652,-5.439,-5.3931,-5.3691,-5.3339,-5.2829,-5.3069,-5.3325,-5.3596,-5.4416,-5.5368,-5.6518,-2.032,-2.032,-2.032,-2.032,-2.032,-2.032,-2.032,-2.032,-2.032,-2.032,-2.032,-2.032,-2.032,-2.032,-2.0861,-2.246,-2.3547,-2.5609,-2.8787,-3.0411,-3.1904,-3.3602,-3.4156,-3.4322,-3.4322,-3.4503,-3.4963,-3.5473,-3.5635,-3.6076,-3.6597,-3.6597,-3.6597,-3.6597,-3.6597,-3.6597,-3.6597,-3.6597,-3.6597,-3.6597,-3.6597,-3.6597,-3.6597,-3.6597,-3.6597,-3.6597,-3.6597,-3.6597,-3.6597,-3.6597,-3.6597,-3.6553,-3.6217,-3.629,-3.6436,-3.6187,-3.629,-3.6436,-3.6187,-3.6056,-3.5953,-3.5705,-3.5588,-3.5529,-3.5529,-3.547,-3.5633,-3.6089,-3.6889,-3.7678,-3.814,-3.8497,-3.8672,-3.8592,0.0,-3.7766,-3.7687,-3.7671,-3.7671,-3.7671,-3.7671,-3.7671,-3.7671,-3.8408,-3.9491,-4.111,-4.2872,-4.4649,-4.6832,-4.7854,-4.8544,-4.9059,-4.8728,-4.8707,-4.923,-4.9927,-5.0864,-5.1872,-5.2648,-5.3472,-5.4499,-5.4609,-5.4652,-5.4652,-5.4652,-5.4456,-5.4106,-5.3975,-5.3689,-5.3499,-5.3761,-5.3949,-5.4271,-5.4951,-5.5852,-5.6813,-2.032,-2.032,-2.032,-2.032,-2.032,-2.032,-2.032,-2.032,-2.032,-2.032,-2.032,-2.032,-2.032,-2.032,-2.082,-2.2284,-2.3345,-2.5311,-2.8291,-3.0388,-3.2201,-3.3889,-3.4056,-3.4322,-3.4322,-3.4295,-3.4762,-3.5473,-3.5445,-3.5892,-3.6597,-3.6597,-3.6597,-3.6597,-3.6597,-3.6597,-3.6597,-3.6597,-3.6597,-3.6597,-3.6597,-3.6597,-3.6597,-3.6597,-3.6597,-3.6597,-3.6597,-3.6597,-3.6597,-3.6597,-3.6597,-3.6553,-3.6217,-3.6129,-3.6144,-3.6129,-3.6129,-3.6144,-3.6129,-3.5909,-3.5675,-3.5646,-3.5412,-3.5192,-3.5192,-3.4973,-3.5044,-3.5702,-3.636,-3.7034,-3.7737,-3.834,-3.8592,-3.829,0.0,0.0,-3.7718,-3.7671,-3.7671,-3.7671,-3.7671,-3.7671,-3.7671,-3.8926,-4.0186,-4.1291,-4.3426,-4.5392,-4.7007,-4.7854,-4.8544,-4.9059,-4.9038,-4.9209,-4.9572,-4.9763,-5.0378,-5.1873,-5.2326,-5.2974,-5.4019,-5.4456,-5.4652,-5.4652,-5.4652,-5.463,-5.4565,-5.4128,-5.4062,-5.4428,-5.4029,-5.4319,-5.5224,-5.5555,-5.6494,-5.7813,-2.0344,-2.032,-2.032,-2.032,-2.032,-2.032,-2.032,-2.032,-2.032,-2.032,-2.032,-2.032,-2.032,-2.032,-2.0812,-2.2267,-2.3317,-2.5491,-2.8644,-3.0444,-3.2115,-3.4597,-3.4714,-3.487,-3.487,-3.5098,-3.5363,-3.6047,-3.606,-3.6221,-3.6905,-3.67,-3.6597,-3.6597,-3.6597,-3.6597,-3.6597,-3.6597,-3.6597,-3.6597,-3.6597,-3.6597,-3.6597,-3.6597,-3.6597,-3.6597,-3.6597,-3.6597,-3.6597,-3.6597,-3.6466,-3.6246,-3.5924,-3.5822,-3.5866,-3.6056,-3.5983,-3.5822,-3.5822,-3.5588,-3.5295,-3.5105,-3.4973,-3.4871,-3.4871,-3.4956,-3.5271,-3.5952,-3.6712,-3.7288,-3.7993,-3.8197,-3.8354,-3.8227,0.0,-3.783,-3.7687,-3.7671,-3.7671,-3.7671,-3.7671,-3.7671,-3.7671,-3.8759,-4.0021,-4.1634,-4.3604,-4.5568,-4.7354,-4.8637,-4.9197,-4.908,-4.9349,-4.9521,-4.9742,-5.0061,-5.0656,-5.183,-5.2323,-5.2995,-5.3953,-5.4128,-5.4368,-5.4652,-5.4652,-5.4652,-5.463,-5.4456,-5.474,-5.4929,-5.4722,-5.5053,-5.5646,-5.6116,-5.678,-5.7789,-2.0434,-2.0361,-2.032,-2.032,-2.032,-2.032,-2.032,-2.032,-2.032,-2.032,-2.032,-2.032,-2.032,-2.032,-2.0787,-2.217,-2.3225,-2.535,-2.8824,-3.0793,-3.276,-3.503,-3.5151,-3.5191,-3.5191,-3.5632,-3.5885,-3.6397,-3.6575,-3.668,-3.708,-3.6861,-3.67,-3.6597,-3.6597,-3.6597,-3.6597,-3.6597,-3.667,-3.6758,-3.6758,-3.6758,-3.6758,-3.6758,-3.67,-3.6597,-3.6597,-3.6597,-3.6597,-3.6597,-3.6392,-3.6056,-3.5749,-3.5646,-3.569,-3.5909,-3.5807,-3.5646,-3.5646,-3.5339,-3.4958,-3.4753,-3.471,-3.471,-3.471,-3.5054,-3.56,-3.6173,-3.673,-3.7461,-3.8036,-3.8036,-3.8036,-3.8036,-3.783,-3.7671,-3.7671,-3.7671,-3.7718,-3.783,-3.7734,-3.7718,-3.783,-3.8824,-4.0004,-4.1814,-4.3941,-4.59,-4.8047,-4.9024,-4.939,-4.908,-4.9542,-4.9906,-4.9912,-5.0231,-5.091,-5.1785,-5.2255,-5.2839,-5.3495,-5.38,-5.4128,-5.4434,-5.4587,-5.4652,-5.4652,-5.4829,-5.5158,-5.5543,-5.5536,-5.5823,-5.6208,-5.6397,-5.7132,-5.7922,-2.0596,-2.045,-2.032,-2.032,-2.032,-2.032,-2.032,-2.032,-2.032,-2.032,-2.032,-2.032,-2.032,-2.032,-2.0737,-2.1977,-2.3014,-2.5059,-2.8314,-3.1858,-3.4148,-3.4736,-3.5044,-3.5191,-3.5191,-3.5823,-3.6092,-3.6397,-3.7016,-3.7112,-3.7095,-3.7095,-3.6919,-3.6612,-3.6597,-3.6597,-3.6597,-3.6612,-3.6802,-3.7095,-3.7095,-3.7095,-3.7095,-3.7095,-3.689,-3.6612,-3.6597,-3.6597,-3.6597,-3.6597,-3.6378,-3.6056,-3.5734,-3.5646,-3.5646,-3.5646,-3.5646,-3.5646,-3.5646,-3.5178,-3.471,-3.471,-3.471,-3.471,-3.471,-3.5054,-3.56,-3.6173,-3.6545,-3.71,-3.7671,-3.7671,-3.7671,-3.7671,-3.7671,-3.7671,-3.7671,-3.7671,-3.7798,-3.8163,-3.7893,-3.7814,-3.8163,-3.9139,-4.0368,-4.1814,-4.4314,-4.6619,-4.9059,-4.908,-4.908,-4.9059,-4.9572,-4.9891,-5.04,-5.04,-5.0929,-5.1813,-5.2249,-5.249,-5.2512,-5.3495,-5.3931,-5.3975,-5.4456,-5.4652,-5.4652,-5.5181,-5.5708,-5.6036,-5.6038,-5.6537,-5.7196,-5.6702,-5.7317,-5.8443,-2.0645,-2.0556,-2.0474,-2.0344,-2.032,-2.032,-2.032,-2.032,-2.032,-2.032,-2.032,-2.032,-2.032,-2.032,-2.0737,-2.1977,-2.3418,-2.5882,-2.9975,-3.2492,-3.4055,-3.4429,-3.4736,-3.4977,-3.5191,-3.6243,-3.6607,-3.6719,-3.7544,-3.7753,-3.7768,-3.73,-3.7036,-3.6934,-3.67,-3.6597,-3.6626,-3.6846,-3.7007,-3.7109,-3.7344,-3.7431,-3.7402,-3.7183,-3.7036,-3.6919,-3.6685,-3.6597,-3.6568,-3.6334,-3.6056,-3.5734,-3.5397,-3.5456,-3.569,-3.5909,-3.5822,-3.5646,-3.5646,-3.5178,-3.471,-3.471,-3.471,-3.471,-3.471,-3.5428,-3.5987,-3.6173,-3.6915,-3.7486,-3.7671,-3.7671,-3.7671,-3.7671,-3.7671,-3.7671,-3.7671,-3.7671,-3.7798,-3.8163,-3.81,-3.827,-3.8723,-3.9554,-4.084,-4.2389,-4.5392,-4.7681,-4.9059,-4.9369,-4.939,-4.908,-4.9572,-4.9744,-4.9932,-5.0589,-5.1265,-5.1791,-5.1944,-5.2162,-5.2512,-5.3145,-5.3626,-5.3975,-5.4456,-5.4652,-5.4652,-5.5181,-5.5708,-5.608,-5.6769,-5.7006,-5.7219,-5.7408,-5.779,-5.8443,-2.0759,-2.0645,-2.0539,-2.0353,-2.032,-2.032,-2.032,-2.032,-2.032,-2.032,-2.032,-2.032,-2.032,-2.032,-2.0737,-2.1977,-2.4432,-2.7509,-3.0809,-3.2794,-3.3881,-3.4295,-3.4496,-3.4776,-3.5191,-3.6229,-3.6859,-3.6859,-3.7717,-3.8192,-3.8061,-3.7665,-3.7402,-3.727,-3.708,-3.6992,-3.7007,-3.7197,-3.7358,-3.749,-3.7695,-3.7768,-3.7753,-3.7548,-3.7314,-3.7065,-3.6861,-3.6714,-3.6583,-3.6378,-3.6012,-3.5588,-3.5266,-3.5383,-3.5705,-3.6027,-3.5895,-3.5646,-3.5646,-3.5178,-3.471,-3.471,-3.471,-3.4695,-3.4882,-3.5615,-3.6173,-3.6359,-3.71,-3.7671,-3.7671,-3.7671,-3.7671,-3.7671,-3.7671,-3.7671,-3.7671,-3.7671,-3.7798,-3.8163,-3.8084,-3.8286,-3.9104,-4.0124,-4.1761,-4.422,-4.6542,-4.8392,-4.9059,-4.9328,-4.9438,-4.9151,-4.9469,-4.9849,-5.0053,-5.0688,-5.1173,-5.1507,-5.1703,-5.1944,-5.2228,-5.2708,-5.308,-5.3407,-5.4084,-5.4368,-5.439,-5.5291,-5.5906,-5.6255,-5.7274,-5.7623,-5.7525,-5.7975,-5.8354,-5.9028,-2.0897,-2.0726,-2.0556,-2.0353,-2.032,-2.032,-2.032,-2.032,-2.032,-2.032,-2.032,-2.032,-2.032,-2.032,-2.0737,-2.1977,-2.6077,-2.9151,-3.1012,-3.2611,-3.3681,-3.4295,-3.4322,-3.4589,-3.5191,-3.6439,-3.6859,-3.7068,-3.7904,-3.8397,-3.8104,-3.8075,-3.7914,-3.7622,-3.7592,-3.7578,-3.7578,-3.7607,-3.7797,-3.8075,-3.809,-3.8104,-3.8104,-3.8075,-3.7695,-3.7168,-3.7109,-3.6905,-3.6641,-3.6583,-3.6158,-3.5602,-3.5324,-3.5441,-3.5749,-3.607,-3.5909,-3.5646,-3.5646,-3.5178,-3.471,-3.4695,-3.4695,-3.4882,-3.5226,-3.5786,-3.6359,-3.673,-3.7301,-3.7671,-3.7671,-3.7671,-3.7671,-3.7671,-3.7671,-3.7671,-3.7671,-3.7671,-3.7798,-3.8163,-3.7909,-3.8328,-3.9552,-4.0748,-4.3053,-4.6659,-4.7882,-4.8544,-4.9059,-4.9059,-4.9213,-4.9112,-4.9574,-4.9886,-5.0386,-5.0905,-5.1092,-5.1135,-5.1594,-5.1791,-5.1813,-5.2271,-5.249,-5.2533,-5.3516,-5.3931,-5.415,-5.553,-5.608,-5.6255,-5.7619,-5.815,-5.8116,-5.8424,-5.9033,-5.9765,-2.0913,-2.0824,-2.0694,-2.0377,-2.032,-2.032,-2.032,-2.032,-2.032,-2.032,-2.032,-2.032,-2.032,-2.032,-2.0737,-2.1977,-2.6077,-2.9342,-3.1403,-3.2812,-3.3681,-3.4295,-3.4322,-3.4797,-3.5809,-3.6439,-3.7068,-3.7486,-3.8112,-3.85,-3.8426,-3.8178,-3.8031,-3.7943,-3.7695,-3.7578,-3.7592,-3.7856,-3.8002,-3.809,-3.8339,-3.8441,-3.8412,-3.8163,-3.7973,-3.7782,-3.727,-3.7051,-3.6905,-3.6392,-3.5968,-3.5675,-3.5851,-3.5953,-3.6085,-3.6407,-3.6085,-3.5646,-3.5646,-3.5178,-3.4695,-3.5241,-3.5241,-3.5226,-3.5413,-3.6158,-3.673,-3.6915,-3.7301,-3.7671,-3.7671,-3.7671,-3.7671,-3.7671,-3.7671,-3.7671,-3.7671,-3.7671,-3.7798,-3.8163,-3.8489,-3.9047,-4.0141,-4.253,-4.4996,-4.6776,-4.7895,-4.8544,-4.9059,-4.9401,-4.953,-4.9595,-5.0079,-5.0386,-5.0386,-5.0905,-5.1267,-5.1638,-5.1747,-5.1791,-5.1813,-5.2271,-5.249,-5.2533,-5.3516,-5.4106,-5.4498,-5.5705,-5.6277,-5.6777,-5.8158,-5.8319,-5.8116,-5.8776,-5.9354,-5.9972,-2.1035,-2.0913,-2.0767,-2.0499,-2.0377,-2.032,-2.032,-2.032,-2.032,-2.032,-2.032,-2.032,-2.032,-2.0529,-2.1561,-2.3832,-2.7101,-2.9819,-3.1794,-3.3035,-3.3908,-3.4509,-3.4536,-3.5152,-3.6439,-3.6649,-3.7068,-3.7695,-3.8335,-3.8543,-3.8529,-3.8368,-3.8295,-3.828,-3.8104,-3.8031,-3.8046,-3.8221,-3.8295,-3.8309,-3.847,-3.8543,-3.8514,-3.8353,-3.8192,-3.8017,-3.768,-3.7358,-3.7007,-3.6524,-3.6144,-3.5895,-3.607,-3.6114,-3.6187,-3.6509,-3.6144,-3.5646,-3.5646,-3.5178,-3.4882,-3.5226,-3.56,-3.5786,-3.5972,-3.6545,-3.6915,-3.7285,-3.7486,-3.7671,-3.7671,-3.7671,-3.7671,-3.7671,-3.7671,-3.7671,-3.7671,-3.7671,-3.775,-3.7925,-3.8312,-3.9656,-4.1996,-4.4368,-4.6406,-4.7829,-4.8494,-4.8887,-4.9059,-4.9401,-4.9637,-4.9765,-5.0182,-5.0552,-5.0717,-5.0905,-5.131,-5.1791,-5.1791,-5.1791,-5.1813,-5.2053,-5.2162,-5.2206,-5.3167,-5.3755,-5.4339,-5.5593,-5.6429,-5.7124,-5.8329,-5.8823,-5.8806,-5.9364,-5.998,-6.0993,-2.1165,-2.0978,-2.0799,-2.0629,-2.0442,-2.032,-2.032,-2.032,-2.032,-2.032,-2.032,-2.032,-2.032,-2.097,-2.287,-2.6006,-2.8257,-3.0407,-3.229,-3.3337,-3.4202,-3.4736,-3.4763,-3.5523,-3.6845,-3.6859,-3.7277,-3.7904,-3.8321,-3.8543,-3.8543,-3.8543,-3.8543,-3.8543,-3.8543,-3.8543,-3.8543,-3.8543,-3.8543,-3.8543,-3.8543,-3.8543,-3.8543,-3.8543,-3.8382,-3.8134,-3.809,-3.7651,-3.7051,-3.6773,-3.6466,-3.6202,-3.6202,-3.6202,-3.6261,-3.6524,-3.6144,-3.5646,-3.5646,-3.5178,-3.4882,-3.5413,-3.5972,-3.6359,-3.6915,-3.71,-3.71,-3.7671,-3.7671,-3.7671,-3.7671,-3.7671,-3.7671,-3.7671,-3.7671,-3.7671,-3.7671,-3.7671,-3.7671,-3.7671,-3.8408,-4.0322,-4.3866,-4.5891,-4.7326,-4.8769,-4.8942,-4.9059,-4.923,-4.9572,-4.9892,-4.9868,-5.0348,-5.0848,-5.1201,-5.1201,-5.1398,-5.1791,-5.1791,-5.1791,-5.1791,-5.1791,-5.1834,-5.1966,-5.2839,-5.3598,-5.4268,-5.5526,-5.6603,-5.7619,-5.8477,-5.9158,-5.9523,-6.0049,-6.111,-6.2359,-2.1165,-2.0978,-2.0799,-2.0629,-2.0442,-2.032,-2.032,-2.032,-2.032,-2.032,-2.032,-2.032,-2.032,-2.1917,-2.4175,-2.73,-2.8994,-3.1097,-3.3201,-3.3844,-3.4416,-3.475,-3.4763,-3.5523,-3.6845,-3.6859,-3.7486,-3.8335,-3.8529,-3.8543,-3.8543,-3.8543,-3.8543,-3.8543,-3.8543,-3.8543,-3.8543,-3.8543,-3.8543,-3.8543,-3.8543,-3.8543,-3.8543,-3.8543,-3.8514,-3.8441,-3.8163,-3.7651,-3.708,-3.7036,-3.6802,-3.6539,-3.6539,-3.6539,-3.6553,-3.6597,-3.6144,-3.5646,-3.5646,-3.5543,-3.5413,-3.5987,-3.6545,-3.6915,-3.7486,-3.7671,-3.7671,-3.7671,-3.7671,-3.7671,-3.7671,-3.7671,-3.7671,-3.7671,-3.7671,-3.7671,-3.7671,-3.7671,-3.7671,-3.7671,-3.9657,-4.2012,-4.4567,-4.6192,-4.7434,-4.8453,-4.8929,-4.923,-4.9572,-5.0061,-5.0548,-5.0843,-5.1347,-5.1703,-5.1703,-5.1703,-5.1747,-5.1791,-5.1791,-5.1791,-5.1791,-5.1791,-5.2009,-5.2424,-5.297,-5.3968,-5.5079,-5.5856,-5.6777,-5.8134,-5.8671,-5.9158,-5.9739,-6.1095,-6.2395,-6.3564,-2.1278,-2.1124,-2.0978,-2.0905,-2.0661,-2.0474,-2.0474,-2.0385,-2.032,-2.032,-2.0409,-2.0474,-2.0474,-2.2732,-2.54,-2.7828,-2.9932,-3.1879,-3.3707,-3.4355,-3.4696,-3.499,-3.5004,-3.5687,-3.6859,-3.6859,-3.7486,-3.8543,-3.8543,-3.8543,-3.8543,-3.8543,-3.8543,-3.8543,-3.8543,-3.8543,-3.8543,-3.8543,-3.8543,-3.8543,-3.8543,-3.8543,-3.8543,-3.8543,-3.8543,-3.8514,-3.8382,-3.8031,-3.7636,-3.7636,-3.7417,-3.7109,-3.6934,-3.6875,-3.6846,-3.6656,-3.6275,-3.5866,-3.6075,-3.5866,-3.584,-3.6405,-3.673,-3.71,-3.7671,-3.7671,-3.7671,-3.7671,-3.7671,-3.7671,-3.7671,-3.7671,-3.7734,-3.7941,-3.7973,-3.8036,-3.8211,-3.8243,-3.8537,-3.9086,-4.1057,-4.3144,-4.5059,-4.6638,-4.7701,-4.8716,-4.9307,-4.95,-4.9763,-5.0315,-5.0847,-5.1097,-5.1623,-5.1791,-5.1791,-5.1791,-5.1791,-5.1791,-5.1791,-5.1791,-5.1791,-5.1791,-5.2053,-5.2512,-5.2992,-5.399,-5.5341,-5.5879,-5.7124,-5.85,-5.8671,-5.9161,-5.9857,-6.1071,-6.223,-6.3311]}]]